<?xml version='1.0' encoding='UTF-8'?><gpx version="1.1" creator="JPX - https://github.com/jenetics/jpx" xmlns="http://www.topografix.com/GPX/1/1"><trk><trkseg><trkpt lat="39.67058405188119" lon="9.010238138832884"><ele>220.0</ele><time>2026-05-01T10:04:59.999Z</time></trkpt><trkpt lat="39.670635661680585" lon="9.010115604272858"><ele>220.0</ele><time>2026-05-01T10:05:01.999Z</time></trkpt><trkpt lat="39.67067155567094" lon="9.010014867174108"><ele>220.0</ele><time>2026-05-01T10:05:03.999Z</time></trkpt><trkpt lat="39.67072898616201" lon="9.009894724540628"><ele>220.0</ele><time>2026-05-01T10:05:05.999Z</time></trkpt><trkpt lat="39.67078195374369" lon="9.009769596753674"><ele>220.0</ele><time>2026-05-01T10:05:07.999Z</time></trkpt><trkpt lat="39.670846509333714" lon="9.00967306838966"><ele>219.33333333333331</ele><time>2026-05-01T10:05:09.999Z</time></trkpt><trkpt lat="39.670936943326254" lon="9.00958181968961"><ele>218.66666666666666</ele><time>2026-05-01T10:05:11.999Z</time></trkpt><trkpt lat="39.670995314724834" lon="9.009495120767879"><ele>218.0</ele><time>2026-05-01T10:05:13.999Z</time></trkpt><trkpt lat="39.67103131672643" lon="9.009422244738529"><ele>217.33333333333331</ele><time>2026-05-01T10:05:14.999Z</time></trkpt><trkpt lat="39.67107492382555" lon="9.009356822930648"><ele>216.66666666666666</ele><time>2026-05-01T10:05:15.999Z</time></trkpt><trkpt lat="39.67111723502988" lon="9.009291510296109"><ele>216.0</ele><time>2026-05-01T10:05:16.999Z</time></trkpt><trkpt lat="39.6711698989601" lon="9.009236917131526"><ele>217.8</ele><time>2026-05-01T10:05:17.999Z</time></trkpt><trkpt lat="39.671260479219846" lon="9.009151664373556"><ele>219.60000000000002</ele><time>2026-05-01T10:05:19.999Z</time></trkpt><trkpt lat="39.671334493706375" lon="9.009058792672361"><ele>221.4</ele><time>2026-05-01T10:05:21.999Z</time></trkpt><trkpt lat="39.671407120131555" lon="9.008949044993404"><ele>223.2</ele><time>2026-05-01T10:05:23.999Z</time></trkpt><trkpt lat="39.67145315846346" lon="9.008863562983432"><ele>225.0</ele><time>2026-05-01T10:05:25.999Z</time></trkpt><trkpt lat="39.67149066069532" lon="9.00873889968639"><ele>225.00000000000003</ele><time>2026-05-01T10:05:27.999Z</time></trkpt><trkpt lat="39.67150862464284" lon="9.008646663617657"><ele>225.0</ele><time>2026-05-01T10:05:28.999Z</time></trkpt><trkpt lat="39.67152106257183" lon="9.008555741389495"><ele>225.00000000000003</ele><time>2026-05-01T10:05:29.999Z</time></trkpt><trkpt lat="39.67153803557987" lon="9.008467791297154"><ele>225.00000000000003</ele><time>2026-05-01T10:05:30.999Z</time></trkpt><trkpt lat="39.67156538148903" lon="9.008388034681268"><ele>225.0</ele><time>2026-05-01T10:05:31.999Z</time></trkpt><trkpt lat="39.67160143643374" lon="9.008309829246532"><ele>225.00000000000003</ele><time>2026-05-01T10:05:32.999Z</time></trkpt><trkpt lat="39.67164883121338" lon="9.008234176807713"><ele>225.00000000000003</ele><time>2026-05-01T10:05:33.999Z</time></trkpt><trkpt lat="39.671711251144714" lon="9.008167516848335"><ele>224.0</ele><time>2026-05-01T10:05:34.999Z</time></trkpt><trkpt lat="39.67177214349872" lon="9.008090915554101"><ele>223.0</ele><time>2026-05-01T10:05:35.999Z</time></trkpt><trkpt lat="39.67181833015117" lon="9.00803133137156"><ele>222.0</ele><time>2026-05-01T10:05:36.999Z</time></trkpt><trkpt lat="39.67187550613183" lon="9.00798411261608"><ele>221.0</ele><time>2026-05-01T10:05:37.999Z</time></trkpt><trkpt lat="39.671937273195425" lon="9.00791945270237"><ele>220.0</ele><time>2026-05-01T10:05:38.999Z</time></trkpt><trkpt lat="39.672009007631765" lon="9.007785655686021"><ele>219.0</ele><time>2026-05-01T10:05:40.999Z</time></trkpt><trkpt lat="39.67205602728051" lon="9.007713528985718"><ele>220.5</ele><time>2026-05-01T10:05:41.999Z</time></trkpt><trkpt lat="39.672091519470236" lon="9.007644394486164"><ele>222.0</ele><time>2026-05-01T10:05:42.999Z</time></trkpt><trkpt lat="39.67213301249447" lon="9.007578706982626"><ele>223.5</ele><time>2026-05-01T10:05:43.999Z</time></trkpt><trkpt lat="39.67217281126292" lon="9.007499587885773"><ele>225.0</ele><time>2026-05-01T10:05:44.999Z</time></trkpt><trkpt lat="39.67220950024426" lon="9.007408064946835"><ele>226.5</ele><time>2026-05-01T10:05:45.999Z</time></trkpt><trkpt lat="39.67223582935768" lon="9.007320527758074"><ele>228.0</ele><time>2026-05-01T10:05:46.999Z</time></trkpt><trkpt lat="39.67228254784933" lon="9.007170072320102"><ele>228.0</ele><time>2026-05-01T10:05:48.999Z</time></trkpt><trkpt lat="39.67231778963461" lon="9.007092989894042"><ele>227.99999999999997</ele><time>2026-05-01T10:05:49.999Z</time></trkpt><trkpt lat="39.67236138103316" lon="9.007021327636819"><ele>228.0</ele><time>2026-05-01T10:05:50.999Z</time></trkpt><trkpt lat="39.6724061006513" lon="9.00695660201504"><ele>228.0</ele><time>2026-05-01T10:05:51.999Z</time></trkpt><trkpt lat="39.672457912553234" lon="9.006900187076997"><ele>227.99999999999997</ele><time>2026-05-01T10:05:52.999Z</time></trkpt><trkpt lat="39.67251233748455" lon="9.006839646367638"><ele>228.0</ele><time>2026-05-01T10:05:53.999Z</time></trkpt><trkpt lat="39.672565971498635" lon="9.006784029970513"><ele>228.0</ele><time>2026-05-01T10:05:54.999Z</time></trkpt><trkpt lat="39.672616383258735" lon="9.006724104237902"><ele>227.5</ele><time>2026-05-01T10:05:55.999Z</time></trkpt><trkpt lat="39.67265703442561" lon="9.006659034741277"><ele>227.0</ele><time>2026-05-01T10:05:56.999Z</time></trkpt><trkpt lat="39.67270331795811" lon="9.006591901449369"><ele>226.5</ele><time>2026-05-01T10:05:59.999Z</time></trkpt><trkpt lat="39.67274497336791" lon="9.006509284371264"><ele>226.0</ele><time>2026-05-01T10:06:02.999Z</time></trkpt><trkpt lat="39.672817976123206" lon="9.006365185014667"><ele>225.5</ele><time>2026-05-01T10:06:04.999Z</time></trkpt><trkpt lat="39.67285271298952" lon="9.006289087627017"><ele>225.0</ele><time>2026-05-01T10:06:05.999Z</time></trkpt><trkpt lat="39.672888928258736" lon="9.006212454887375"><ele>226.5</ele><time>2026-05-01T10:06:06.999Z</time></trkpt><trkpt lat="39.67292282588895" lon="9.006142563476988"><ele>228.0</ele><time>2026-05-01T10:06:07.999Z</time></trkpt><trkpt lat="39.67296307589922" lon="9.006071680480922"><ele>229.5</ele><time>2026-05-01T10:06:08.999Z</time></trkpt><trkpt lat="39.67302086493701" lon="9.005924960283636"><ele>231.0</ele><time>2026-05-01T10:06:10.999Z</time></trkpt><trkpt lat="39.67303940511092" lon="9.005843403349246"><ele>232.5</ele><time>2026-05-01T10:06:11.999Z</time></trkpt><trkpt lat="39.67306366460294" lon="9.005765205413935"><ele>234.0</ele><time>2026-05-01T10:06:12.999Z</time></trkpt><trkpt lat="39.67309117132644" lon="9.005682797878451"><ele>234.16666666666666</ele><time>2026-05-01T10:06:13.999Z</time></trkpt><trkpt lat="39.67312144749393" lon="9.005595769248401"><ele>234.33333333333331</ele><time>2026-05-01T10:06:14.999Z</time></trkpt><trkpt lat="39.67315802600937" lon="9.005512544273724"><ele>234.5</ele><time>2026-05-01T10:06:15.999Z</time></trkpt><trkpt lat="39.67320206040207" lon="9.005445083241954"><ele>234.66666666666666</ele><time>2026-05-01T10:06:16.999Z</time></trkpt><trkpt lat="39.673244562285326" lon="9.005378819094844"><ele>234.83333333333331</ele><time>2026-05-01T10:06:17.999Z</time></trkpt><trkpt lat="39.673288898783824" lon="9.005316629919816"><ele>235.0</ele><time>2026-05-01T10:06:18.999Z</time></trkpt><trkpt lat="39.67336893148497" lon="9.005231299030097"><ele>234.99999999999997</ele><time>2026-05-01T10:06:20.999Z</time></trkpt><trkpt lat="39.67342149494233" lon="9.005181627081432"><ele>235.0</ele><time>2026-05-01T10:06:21.999Z</time></trkpt><trkpt lat="39.67350526837485" lon="9.005083926671075"><ele>235.0</ele><time>2026-05-01T10:06:24Z</time></trkpt><trkpt lat="39.67359124040028" lon="9.004953600780873"><ele>235.0</ele><time>2026-05-01T10:06:26Z</time></trkpt><trkpt lat="39.67363122834875" lon="9.004887844453595"><ele>234.99999999999997</ele><time>2026-05-01T10:06:27Z</time></trkpt><trkpt lat="39.67366804951731" lon="9.004818980332894"><ele>235.0</ele><time>2026-05-01T10:06:28Z</time></trkpt><trkpt lat="39.67372162488127" lon="9.004690799120183"><ele>235.99999999999997</ele><time>2026-05-01T10:06:30Z</time></trkpt><trkpt lat="39.673767843022" lon="9.004565389748654"><ele>237.0</ele><time>2026-05-01T10:06:32Z</time></trkpt><trkpt lat="39.67381322562444" lon="9.004441866535242"><ele>238.0</ele><time>2026-05-01T10:06:34Z</time></trkpt><trkpt lat="39.67386743364628" lon="9.004378444823594"><ele>239.0</ele><time>2026-05-01T10:06:37Z</time></trkpt><trkpt lat="39.673935008548234" lon="9.004346577120254"><ele>239.99999999999997</ele><time>2026-05-01T10:06:39Z</time></trkpt><trkpt lat="39.67401393750917" lon="9.004343430106175"><ele>241.0</ele><time>2026-05-01T10:06:41Z</time></trkpt><trkpt lat="39.67408723295773" lon="9.00439694360878"><ele>241.0</ele><time>2026-05-01T10:06:43Z</time></trkpt><trkpt lat="39.67417515616987" lon="9.004451632321791"><ele>241.00000000000003</ele><time>2026-05-01T10:06:45Z</time></trkpt><trkpt lat="39.67426684147075" lon="9.004468870011811"><ele>241.00000000000003</ele><time>2026-05-01T10:06:47Z</time></trkpt><trkpt lat="39.674361876965776" lon="9.004426170952039"><ele>241.0</ele><time>2026-05-01T10:06:49Z</time></trkpt><trkpt lat="39.674466596541336" lon="9.004318652517608"><ele>241.0</ele><time>2026-05-01T10:06:51Z</time></trkpt><trkpt lat="39.674523433834395" lon="9.004247894548959"><ele>241.4</ele><time>2026-05-01T10:06:52Z</time></trkpt><trkpt lat="39.674580203088674" lon="9.004163352000207"><ele>241.8</ele><time>2026-05-01T10:06:53Z</time></trkpt><trkpt lat="39.6746300609122" lon="9.004057753963298"><ele>242.20000000000002</ele><time>2026-05-01T10:06:54Z</time></trkpt><trkpt lat="39.67468774444793" lon="9.003946563752498"><ele>242.60000000000002</ele><time>2026-05-01T10:06:55Z</time></trkpt><trkpt lat="39.67474196020836" lon="9.003838903578576"><ele>243.0</ele><time>2026-05-01T10:06:56Z</time></trkpt><trkpt lat="39.67479804628863" lon="9.003736020232148"><ele>243.16666666666666</ele><time>2026-05-01T10:06:57Z</time></trkpt><trkpt lat="39.67485043879412" lon="9.003652164354833"><ele>243.33333333333331</ele><time>2026-05-01T10:06:58Z</time></trkpt><trkpt lat="39.67490408763187" lon="9.003562379425391"><ele>243.5</ele><time>2026-05-01T10:06:59Z</time></trkpt><trkpt lat="39.67494496390178" lon="9.003466814018974"><ele>243.66666666666666</ele><time>2026-05-01T10:07:00Z</time></trkpt><trkpt lat="39.67498170816088" lon="9.00338563227417"><ele>243.83333333333331</ele><time>2026-05-01T10:07:01Z</time></trkpt><trkpt lat="39.67503414085937" lon="9.003247946108427"><ele>244.0</ele><time>2026-05-01T10:07:03Z</time></trkpt><trkpt lat="39.67508601436211" lon="9.003109420189292"><ele>244.0</ele><time>2026-05-01T10:07:05Z</time></trkpt><trkpt lat="39.67513518084308" lon="9.002984728386169"><ele>243.99999999999997</ele><time>2026-05-01T10:07:07Z</time></trkpt><trkpt lat="39.6751967115656" lon="9.002844749165789"><ele>243.99999999999997</ele><time>2026-05-01T10:07:08.999Z</time></trkpt><trkpt lat="39.67525120053784" lon="9.002740811214746"><ele>244.0</ele><time>2026-05-01T10:07:10.999Z</time></trkpt><trkpt lat="39.675295262751085" lon="9.00267007890064"><ele>244.0</ele><time>2026-05-01T10:07:12.999Z</time></trkpt><trkpt lat="39.675334839598015" lon="9.00258969300745"><ele>242.66666666666666</ele><time>2026-05-01T10:07:14.999Z</time></trkpt><trkpt lat="39.67539658212588" lon="9.002478723357907"><ele>241.33333333333331</ele><time>2026-05-01T10:07:16.999Z</time></trkpt><trkpt lat="39.67543823718853" lon="9.002416472620723"><ele>240.0</ele><time>2026-05-01T10:07:18.999Z</time></trkpt><trkpt lat="39.675503638694394" lon="9.00237741541827"><ele>238.66666666666669</ele><time>2026-05-01T10:07:22.999Z</time></trkpt><trkpt lat="39.67557274335132" lon="9.002324454197034"><ele>237.33333333333334</ele><time>2026-05-01T10:07:26.999Z</time></trkpt><trkpt lat="39.67562510153519" lon="9.002271601161326"><ele>236.0</ele><time>2026-05-01T10:07:28.999Z</time></trkpt><trkpt lat="39.67568132765883" lon="9.002202565198532"><ele>236.00000000000003</ele><time>2026-05-01T10:07:30.999Z</time></trkpt><trkpt lat="39.675721823834174" lon="9.002131144290109"><ele>236.0</ele><time>2026-05-01T10:07:32.999Z</time></trkpt><trkpt lat="39.6757506043585" lon="9.002048557351683"><ele>236.0</ele><time>2026-05-01T10:07:35.999Z</time></trkpt><trkpt lat="39.67578041209566" lon="9.001968771814226"><ele>236.0</ele><time>2026-05-01T10:07:52.999Z</time></trkpt><trkpt lat="39.67573237166299" lon="9.001882183924861"><ele>236.00000000000003</ele><time>2026-05-01T10:07:55.999Z</time></trkpt><trkpt lat="39.67564685858951" lon="9.00189207834516"><ele>236.0</ele><time>2026-05-01T10:07:58.999Z</time></trkpt><trkpt lat="39.675593021599084" lon="9.001972877463654"><ele>236.0</ele><time>2026-05-01T10:08:00.999Z</time></trkpt><trkpt lat="39.67554622599192" lon="9.00209869277578"><ele>236.00000000000003</ele><time>2026-05-01T10:08:02.999Z</time></trkpt><trkpt lat="39.67549162527085" lon="9.002243267669906"><ele>236.00000000000003</ele><time>2026-05-01T10:08:04.999Z</time></trkpt><trkpt lat="39.67543820871927" lon="9.00239026297128"><ele>236.0</ele><time>2026-05-01T10:08:06.999Z</time></trkpt><trkpt lat="39.67541055526606" lon="9.00247284131262"><ele>236.0</ele><time>2026-05-01T10:08:07.999Z</time></trkpt><trkpt lat="39.67536803021405" lon="9.002543085544353"><ele>237.00000000000003</ele><time>2026-05-01T10:08:08.999Z</time></trkpt><trkpt lat="39.67532600263642" lon="9.002614829599935"><ele>238.0</ele><time>2026-05-01T10:08:09.999Z</time></trkpt><trkpt lat="39.67528996420372" lon="9.002688039407731"><ele>239.0</ele><time>2026-05-01T10:08:10.999Z</time></trkpt><trkpt lat="39.675219771534614" lon="9.002806534988125"><ele>240.0</ele><time>2026-05-01T10:08:12.999Z</time></trkpt><trkpt lat="39.67517593915025" lon="9.002881796745955"><ele>241.00000000000003</ele><time>2026-05-01T10:08:13.999Z</time></trkpt><trkpt lat="39.67512086849927" lon="9.00299819987357"><ele>242.0</ele><time>2026-05-01T10:08:15.999Z</time></trkpt><trkpt lat="39.6750698069594" lon="9.003108562194376"><ele>242.39999999999998</ele><time>2026-05-01T10:08:17.999Z</time></trkpt><trkpt lat="39.67501215153579" lon="9.003240238084027"><ele>242.79999999999998</ele><time>2026-05-01T10:08:19.999Z</time></trkpt><trkpt lat="39.67494651817473" lon="9.003371952884692"><ele>243.2</ele><time>2026-05-01T10:08:21.999Z</time></trkpt><trkpt lat="39.674885248665646" lon="9.003500018354966"><ele>243.6</ele><time>2026-05-01T10:08:23.999Z</time></trkpt><trkpt lat="39.674845535292285" lon="9.003579191763583"><ele>244.0</ele><time>2026-05-01T10:08:24.999Z</time></trkpt><trkpt lat="39.674802964589944" lon="9.003661621905277"><ele>244.0</ele><time>2026-05-01T10:08:25.999Z</time></trkpt><trkpt lat="39.67474681671" lon="9.00376367742035"><ele>243.99999999999997</ele><time>2026-05-01T10:08:26.998Z</time></trkpt><trkpt lat="39.67468432980575" lon="9.003869261125901"><ele>243.99999999999997</ele><time>2026-05-01T10:08:27.998Z</time></trkpt><trkpt lat="39.674627396408205" lon="9.003963024661699"><ele>244.0</ele><time>2026-05-01T10:08:29Z</time></trkpt><trkpt lat="39.674571136913706" lon="9.004040790446057"><ele>244.0</ele><time>2026-05-01T10:08:30Z</time></trkpt><trkpt lat="39.674517002284425" lon="9.00413827729931"><ele>243.79999999999998</ele><time>2026-05-01T10:08:31Z</time></trkpt><trkpt lat="39.67445671211326" lon="9.004248745191456"><ele>243.59999999999997</ele><time>2026-05-01T10:08:32Z</time></trkpt><trkpt lat="39.67439718544343" lon="9.004354846740954"><ele>243.4</ele><time>2026-05-01T10:08:33Z</time></trkpt><trkpt lat="39.67434490869376" lon="9.004453756908717"><ele>243.2</ele><time>2026-05-01T10:08:34Z</time></trkpt><trkpt lat="39.6743015158527" lon="9.004527947460941"><ele>243.0</ele><time>2026-05-01T10:08:35Z</time></trkpt><trkpt lat="39.674260220447856" lon="9.004669884505503"><ele>242.66666666666666</ele><time>2026-05-01T10:08:37Z</time></trkpt><trkpt lat="39.67426465682203" lon="9.004840855243254"><ele>242.33333333333331</ele><time>2026-05-01T10:08:39Z</time></trkpt><trkpt lat="39.67428456586244" lon="9.00491866367413"><ele>242.0</ele><time>2026-05-01T10:08:40Z</time></trkpt><trkpt lat="39.67431693202706" lon="9.0050045991139"><ele>241.66666666666666</ele><time>2026-05-01T10:08:41Z</time></trkpt><trkpt lat="39.67435432063539" lon="9.00507804568164"><ele>241.33333333333331</ele><time>2026-05-01T10:08:42Z</time></trkpt><trkpt lat="39.67440468135073" lon="9.005152667664998"><ele>241.0</ele><time>2026-05-01T10:08:43Z</time></trkpt><trkpt lat="39.67444820342507" lon="9.005239506896089"><ele>240.99999999999997</ele><time>2026-05-01T10:08:44Z</time></trkpt><trkpt lat="39.67448941406864" lon="9.005333784434903"><ele>241.0</ele><time>2026-05-01T10:08:45Z</time></trkpt><trkpt lat="39.67452470855823" lon="9.005408452376766"><ele>241.0</ele><time>2026-05-01T10:08:46Z</time></trkpt><trkpt lat="39.67455935386825" lon="9.005541886973038"><ele>241.0</ele><time>2026-05-01T10:08:48Z</time></trkpt><trkpt lat="39.674575582477495" lon="9.005643949030611"><ele>240.99999999999997</ele><time>2026-05-01T10:08:50Z</time></trkpt><trkpt lat="39.6745493905055" lon="9.005760329337884"><ele>241.0</ele><time>2026-05-01T10:08:52Z</time></trkpt><trkpt lat="39.674468233932984" lon="9.005882667616119"><ele>240.49999999999997</ele><time>2026-05-01T10:08:54Z</time></trkpt><trkpt lat="39.6744122378853" lon="9.005926212859958"><ele>240.0</ele><time>2026-05-01T10:08:55Z</time></trkpt><trkpt lat="39.67430140735992" lon="9.005990047179964"><ele>239.5</ele><time>2026-05-01T10:08:57Z</time></trkpt><trkpt lat="39.674241946503706" lon="9.006030646331741"><ele>239.0</ele><time>2026-05-01T10:08:58Z</time></trkpt><trkpt lat="39.6741888577827" lon="9.006078786103382"><ele>238.49999999999997</ele><time>2026-05-01T10:08:59Z</time></trkpt><trkpt lat="39.67409718125989" lon="9.006152866665937"><ele>238.0</ele><time>2026-05-01T10:09:01Z</time></trkpt><trkpt lat="39.67401313300229" lon="9.00621793925765"><ele>238.0</ele><time>2026-05-01T10:09:03Z</time></trkpt><trkpt lat="39.6739558749022" lon="9.006259181679726"><ele>238.0</ele><time>2026-05-01T10:09:04Z</time></trkpt><trkpt lat="39.673892418207444" lon="9.006300705226558"><ele>238.0</ele><time>2026-05-01T10:09:05Z</time></trkpt><trkpt lat="39.673836488816605" lon="9.006344690143635"><ele>238.0</ele><time>2026-05-01T10:09:06Z</time></trkpt><trkpt lat="39.67376946292016" lon="9.006387510019701"><ele>238.0</ele><time>2026-05-01T10:09:07Z</time></trkpt><trkpt lat="39.673702000480674" lon="9.006429535613137"><ele>238.0</ele><time>2026-05-01T10:09:08Z</time></trkpt><trkpt lat="39.67364388803277" lon="9.006479587992894"><ele>238.0</ele><time>2026-05-01T10:09:09Z</time></trkpt><trkpt lat="39.67357865828531" lon="9.006510769184805"><ele>237.33333333333331</ele><time>2026-05-01T10:09:10Z</time></trkpt><trkpt lat="39.673471475564554" lon="9.006575910597038"><ele>236.66666666666666</ele><time>2026-05-01T10:09:12Z</time></trkpt><trkpt lat="39.67341260341529" lon="9.00661635810573"><ele>236.0</ele><time>2026-05-01T10:09:13Z</time></trkpt><trkpt lat="39.67333110486297" lon="9.006635480668109"><ele>235.33333333333331</ele><time>2026-05-01T10:09:15Z</time></trkpt><trkpt lat="39.67325728826975" lon="9.006630683327149"><ele>234.66666666666666</ele><time>2026-05-01T10:09:17Z</time></trkpt><trkpt lat="39.673176368183476" lon="9.006607663158533"><ele>234.0</ele><time>2026-05-01T10:09:20Z</time></trkpt><trkpt lat="39.67312911986239" lon="9.006496221804236"><ele>234.0</ele><time>2026-05-01T10:09:22Z</time></trkpt><trkpt lat="39.67313147572217" lon="9.006347284188397"><ele>233.99999999999997</ele><time>2026-05-01T10:09:23.999Z</time></trkpt><trkpt lat="39.67317720611293" lon="9.006179595172794"><ele>233.99999999999997</ele><time>2026-05-01T10:09:25.999Z</time></trkpt><trkpt lat="39.673215202197156" lon="9.006094745862802"><ele>234.0</ele><time>2026-05-01T10:09:26.999Z</time></trkpt><trkpt lat="39.67326395623772" lon="9.006006758387214"><ele>234.0</ele><time>2026-05-01T10:09:27.999Z</time></trkpt><trkpt lat="39.67330645169706" lon="9.005923845151901"><ele>234.0</ele><time>2026-05-01T10:09:28.999Z</time></trkpt><trkpt lat="39.6733479454501" lon="9.005845581625177"><ele>234.0</ele><time>2026-05-01T10:09:29.999Z</time></trkpt><trkpt lat="39.6733865402259" lon="9.005755540210219"><ele>234.0</ele><time>2026-05-01T10:09:30.999Z</time></trkpt><trkpt lat="39.67342731641112" lon="9.005666908645347"><ele>234.0</ele><time>2026-05-01T10:09:31.999Z</time></trkpt><trkpt lat="39.67346037958936" lon="9.005570059804962"><ele>234.0</ele><time>2026-05-01T10:09:32.999Z</time></trkpt><trkpt lat="39.67349202290991" lon="9.005492061576874"><ele>234.0</ele><time>2026-05-01T10:09:33.999Z</time></trkpt><trkpt lat="39.67353251646494" lon="9.005391737421256"><ele>234.14285714285717</ele><time>2026-05-01T10:09:34.999Z</time></trkpt><trkpt lat="39.67356951269475" lon="9.005290222759982"><ele>234.2857142857143</ele><time>2026-05-01T10:09:35.999Z</time></trkpt><trkpt lat="39.673609815913714" lon="9.005208245670536"><ele>234.42857142857144</ele><time>2026-05-01T10:09:36.999Z</time></trkpt><trkpt lat="39.67364625138802" lon="9.005130411302662"><ele>234.57142857142856</ele><time>2026-05-01T10:09:37.999Z</time></trkpt><trkpt lat="39.67368514800076" lon="9.005057739176328"><ele>234.7142857142857</ele><time>2026-05-01T10:09:38.999Z</time></trkpt><trkpt lat="39.67372690620918" lon="9.00498032035858"><ele>234.85714285714283</ele><time>2026-05-01T10:09:39.999Z</time></trkpt><trkpt lat="39.67376969294221" lon="9.004898185894062"><ele>235.0</ele><time>2026-05-01T10:09:40.999Z</time></trkpt><trkpt lat="39.67381661504974" lon="9.004814753539787"><ele>235.99999999999997</ele><time>2026-05-01T10:09:41.999Z</time></trkpt><trkpt lat="39.67385579217967" lon="9.004732811231262"><ele>237.0</ele><time>2026-05-01T10:09:42.999Z</time></trkpt><trkpt lat="39.67388739635164" lon="9.00465484900745"><ele>238.0</ele><time>2026-05-01T10:09:43.999Z</time></trkpt><trkpt lat="39.67392226627342" lon="9.004534625927414"><ele>239.0</ele><time>2026-05-01T10:09:45.999Z</time></trkpt><trkpt lat="39.67391675454483" lon="9.004435151058242"><ele>239.99999999999997</ele><time>2026-05-01T10:09:47.999Z</time></trkpt><trkpt lat="39.673865179209436" lon="9.004383622788913"><ele>241.0</ele><time>2026-05-01T10:09:49.999Z</time></trkpt><trkpt lat="39.67378337253384" lon="9.004436154279215"><ele>240.99999999999997</ele><time>2026-05-01T10:09:52.999Z</time></trkpt><trkpt lat="39.673740243968986" lon="9.004551097806967"><ele>241.0</ele><time>2026-05-01T10:09:54.999Z</time></trkpt><trkpt lat="39.67368205904442" lon="9.004701675064258"><ele>241.0</ele><time>2026-05-01T10:09:56.999Z</time></trkpt><trkpt lat="39.673652201972395" lon="9.004783592721848"><ele>241.0</ele><time>2026-05-01T10:09:57.999Z</time></trkpt><trkpt lat="39.673612283735046" lon="9.004862383302719"><ele>240.99999999999997</ele><time>2026-05-01T10:09:58.999Z</time></trkpt><trkpt lat="39.673570073067886" lon="9.004942284869909"><ele>241.0</ele><time>2026-05-01T10:09:59.999Z</time></trkpt><trkpt lat="39.673523896895595" lon="9.005022286757168"><ele>239.8</ele><time>2026-05-01T10:10:00.999Z</time></trkpt><trkpt lat="39.673475497748655" lon="9.005102889229263"><ele>238.60000000000002</ele><time>2026-05-01T10:10:01.999Z</time></trkpt><trkpt lat="39.67341755646476" lon="9.005171286895933"><ele>237.4</ele><time>2026-05-01T10:10:02.999Z</time></trkpt><trkpt lat="39.67336671184762" lon="9.005228822622342"><ele>236.2</ele><time>2026-05-01T10:10:03.999Z</time></trkpt><trkpt lat="39.673273318172576" lon="9.005322624513115"><ele>235.0</ele><time>2026-05-01T10:10:05.999Z</time></trkpt><trkpt lat="39.673190540576705" lon="9.00542726472831"><ele>234.99999999999997</ele><time>2026-05-01T10:10:07.999Z</time></trkpt><trkpt lat="39.673144159635676" lon="9.005496783101867"><ele>235.0</ele><time>2026-05-01T10:10:08.999Z</time></trkpt><trkpt lat="39.67310400882951" lon="9.00557134683811"><ele>235.0</ele><time>2026-05-01T10:10:09.999Z</time></trkpt><trkpt lat="39.673066642891065" lon="9.005638139882516"><ele>235.0</ele><time>2026-05-01T10:10:10.999Z</time></trkpt><trkpt lat="39.67301577050949" lon="9.005792670940764"><ele>234.99999999999997</ele><time>2026-05-01T10:10:12.999Z</time></trkpt><trkpt lat="39.672990037779044" lon="9.005882851298995"><ele>235.0</ele><time>2026-05-01T10:10:13.999Z</time></trkpt><trkpt lat="39.6729525772505" lon="9.005999856282362"><ele>234.8</ele><time>2026-05-01T10:10:15.999Z</time></trkpt><trkpt lat="39.6729154005509" lon="9.006101543095795"><ele>234.6</ele><time>2026-05-01T10:10:17.999Z</time></trkpt><trkpt lat="39.67288222282623" lon="9.006173379375541"><ele>234.39999999999998</ele><time>2026-05-01T10:10:18.999Z</time></trkpt><trkpt lat="39.67282068814788" lon="9.006289170740706"><ele>234.2</ele><time>2026-05-01T10:10:20.999Z</time></trkpt><trkpt lat="39.67275950075705" lon="9.006416596277331"><ele>234.0</ele><time>2026-05-01T10:10:22.999Z</time></trkpt><trkpt lat="39.67272192229981" lon="9.006507450477205"><ele>234.0</ele><time>2026-05-01T10:10:24.999Z</time></trkpt><trkpt lat="39.67267277369379" lon="9.006591458302687"><ele>234.0</ele><time>2026-05-01T10:10:27.999Z</time></trkpt><trkpt lat="39.67272738141439" lon="9.006692457193308"><ele>234.0</ele><time>2026-05-01T10:10:31.999Z</time></trkpt><trkpt lat="39.67282582847607" lon="9.006721177993066"><ele>234.0</ele><time>2026-05-01T10:10:33.999Z</time></trkpt><trkpt lat="39.67289505765306" lon="9.006731696526215"><ele>234.0</ele><time>2026-05-01T10:10:36Z</time></trkpt><trkpt lat="39.6729795107127" lon="9.006761668296647"><ele>234.0</ele><time>2026-05-01T10:10:39Z</time></trkpt><trkpt lat="39.67293799136773" lon="9.00669386822425"><ele>234.0</ele><time>2026-05-01T10:10:47Z</time></trkpt><trkpt lat="39.67285488919679" lon="9.00672922852766"><ele>234.0</ele><time>2026-05-01T10:10:49Z</time></trkpt><trkpt lat="39.6727653712521" lon="9.006688799846751"><ele>234.0</ele><time>2026-05-01T10:10:51Z</time></trkpt><trkpt lat="39.67268671190078" lon="9.006627131498407"><ele>234.0</ele><time>2026-05-01T10:10:53Z</time></trkpt><trkpt lat="39.672618168163886" lon="9.006647627553702"><ele>234.0</ele><time>2026-05-01T10:10:56Z</time></trkpt><trkpt lat="39.67256347486853" lon="9.006723143291516"><ele>234.0</ele><time>2026-05-01T10:10:58Z</time></trkpt><trkpt lat="39.67248163801115" lon="9.006847286949233"><ele>232.79999999999998</ele><time>2026-05-01T10:11:00Z</time></trkpt><trkpt lat="39.67239884850012" lon="9.006927464926243"><ele>231.59999999999997</ele><time>2026-05-01T10:11:02Z</time></trkpt><trkpt lat="39.672321965483384" lon="9.007033666529614"><ele>230.4</ele><time>2026-05-01T10:11:04Z</time></trkpt><trkpt lat="39.67225741085268" lon="9.007143959938531"><ele>229.2</ele><time>2026-05-01T10:11:06Z</time></trkpt><trkpt lat="39.67219573936839" lon="9.007269177994786"><ele>228.0</ele><time>2026-05-01T10:11:08Z</time></trkpt><trkpt lat="39.67216334963583" lon="9.007405365372184"><ele>228.75</ele><time>2026-05-01T10:11:10Z</time></trkpt><trkpt lat="39.672112492394895" lon="9.007535872016911"><ele>229.5</ele><time>2026-05-01T10:11:12Z</time></trkpt><trkpt lat="39.67204236929792" lon="9.00766531307642"><ele>230.25</ele><time>2026-05-01T10:11:14Z</time></trkpt><trkpt lat="39.67196923748899" lon="9.007775906667325"><ele>231.0</ele><time>2026-05-01T10:11:16Z</time></trkpt><trkpt lat="39.67190171542453" lon="9.00789469397282"><ele>229.8</ele><time>2026-05-01T10:11:18Z</time></trkpt><trkpt lat="39.67182552836589" lon="9.00801398535318"><ele>228.60000000000002</ele><time>2026-05-01T10:11:20Z</time></trkpt><trkpt lat="39.671726027004254" lon="9.008102594366457"><ele>227.4</ele><time>2026-05-01T10:11:22Z</time></trkpt><trkpt lat="39.671643429304474" lon="9.008214691937358"><ele>226.2</ele><time>2026-05-01T10:11:24Z</time></trkpt><trkpt lat="39.67160033881527" lon="9.008275884769452"><ele>225.0</ele><time>2026-05-01T10:11:25Z</time></trkpt><trkpt lat="39.67153258231454" lon="9.008387178411331"><ele>225.0</ele><time>2026-05-01T10:11:27Z</time></trkpt><trkpt lat="39.67150092585256" lon="9.008466978058216"><ele>225.0</ele><time>2026-05-01T10:11:28Z</time></trkpt><trkpt lat="39.6714768253095" lon="9.008552520601441"><ele>225.0</ele><time>2026-05-01T10:11:29Z</time></trkpt><trkpt lat="39.67144984176274" lon="9.008704505605316"><ele>225.0</ele><time>2026-05-01T10:11:31Z</time></trkpt><trkpt lat="39.671419413928746" lon="9.00884497916026"><ele>225.0</ele><time>2026-05-01T10:11:32.999Z</time></trkpt><trkpt lat="39.67135968267883" lon="9.008958783829815"><ele>225.0</ele><time>2026-05-01T10:11:34.999Z</time></trkpt><trkpt lat="39.67129426636993" lon="9.009057500792183"><ele>225.0</ele><time>2026-05-01T10:11:36.999Z</time></trkpt><trkpt lat="39.67122336210728" lon="9.00915072494187"><ele>225.0</ele><time>2026-05-01T10:11:38.999Z</time></trkpt><trkpt lat="39.67113649235501" lon="9.009245794670834"><ele>225.0</ele><time>2026-05-01T10:11:40.999Z</time></trkpt><trkpt lat="39.67104448397144" lon="9.009346280359908"><ele>225.0</ele><time>2026-05-01T10:11:42.999Z</time></trkpt><trkpt lat="39.67100106422922" lon="9.00941737689893"><ele>223.2</ele><time>2026-05-01T10:11:43.999Z</time></trkpt><trkpt lat="39.67095905771434" lon="9.009479883955741"><ele>221.4</ele><time>2026-05-01T10:11:44.999Z</time></trkpt><trkpt lat="39.67088406317646" lon="9.009602300136068"><ele>219.60000000000002</ele><time>2026-05-01T10:11:46.999Z</time></trkpt><trkpt lat="39.67079380283141" lon="9.009697348422298"><ele>217.8</ele><time>2026-05-01T10:11:48.999Z</time></trkpt><trkpt lat="39.67073036157685" lon="9.00981719908145"><ele>216.0</ele><time>2026-05-01T10:11:50.999Z</time></trkpt><trkpt lat="39.67066809401325" lon="9.009950532438417"><ele>217.0</ele><time>2026-05-01T10:11:52.999Z</time></trkpt><trkpt lat="39.670608467047835" lon="9.01008755339486"><ele>218.0</ele><time>2026-05-01T10:11:54.999Z</time></trkpt><trkpt lat="39.670548340936236" lon="9.01021430593908"><ele>219.0</ele><time>2026-05-01T10:11:56.999Z</time></trkpt><trkpt lat="39.6704911639998" lon="9.01034953368501"><ele>220.0</ele><time>2026-05-01T10:11:58.999Z</time></trkpt><trkpt lat="39.67043292099235" lon="9.010469823129625"><ele>220.0</ele><time>2026-05-01T10:12:00.999Z</time></trkpt><trkpt lat="39.67037931368951" lon="9.010595137250572"><ele>220.0</ele><time>2026-05-01T10:12:02.999Z</time></trkpt><trkpt lat="39.67031357114524" lon="9.010705327851543"><ele>220.0</ele><time>2026-05-01T10:12:04.999Z</time></trkpt><trkpt lat="39.670270040707024" lon="9.01082578234347"><ele>220.0</ele><time>2026-05-01T10:12:06.999Z</time></trkpt><trkpt lat="39.67026801572874" lon="9.010946527845407"><ele>220.0</ele><time>2026-05-01T10:12:08.999Z</time></trkpt><trkpt lat="39.67028152247016" lon="9.011027401783668"><ele>217.8</ele><time>2026-05-01T10:12:10.999Z</time></trkpt><trkpt lat="39.67023231647273" lon="9.011106057417235"><ele>215.6</ele><time>2026-05-01T10:12:13.999Z</time></trkpt><trkpt lat="39.670159414254776" lon="9.011073326843306"><ele>213.39999999999998</ele><time>2026-05-01T10:12:15.999Z</time></trkpt><trkpt lat="39.67008801019592" lon="9.010978425791889"><ele>211.2</ele><time>2026-05-01T10:12:17.999Z</time></trkpt><trkpt lat="39.67000121834448" lon="9.010905163588037"><ele>209.0</ele><time>2026-05-01T10:12:19.999Z</time></trkpt><trkpt lat="39.66991194402605" lon="9.010851344919464"><ele>209.00000000000003</ele><time>2026-05-01T10:12:21.999Z</time></trkpt><trkpt lat="39.669814039628335" lon="9.010843330899075"><ele>209.0</ele><time>2026-05-01T10:12:23.999Z</time></trkpt><trkpt lat="39.669723859194264" lon="9.01084918152484"><ele>209.0</ele><time>2026-05-01T10:12:25.999Z</time></trkpt><trkpt lat="39.6696602653772" lon="9.010816308566175"><ele>209.0</ele><time>2026-05-01T10:12:27.999Z</time></trkpt><trkpt lat="39.669610450100244" lon="9.010728000235748"><ele>209.00000000000003</ele><time>2026-05-01T10:12:29.999Z</time></trkpt><trkpt lat="39.66959515793432" lon="9.010647673589883"><ele>209.0</ele><time>2026-05-01T10:12:30.999Z</time></trkpt><trkpt lat="39.66959476153473" lon="9.010562781947755"><ele>208.16666666666669</ele><time>2026-05-01T10:12:31.999Z</time></trkpt><trkpt lat="39.66959952805072" lon="9.010476943344717"><ele>207.33333333333334</ele><time>2026-05-01T10:12:32.999Z</time></trkpt><trkpt lat="39.66963119220484" lon="9.010348274182823"><ele>206.5</ele><time>2026-05-01T10:12:34.999Z</time></trkpt><trkpt lat="39.66964792089364" lon="9.01023257271977"><ele>205.66666666666669</ele><time>2026-05-01T10:12:37.999Z</time></trkpt><trkpt lat="39.66964491209719" lon="9.010147087048237"><ele>204.83333333333334</ele><time>2026-05-01T10:12:39.999Z</time></trkpt><trkpt lat="39.66965205724239" lon="9.010022918310758"><ele>204.0</ele><time>2026-05-01T10:12:42Z</time></trkpt><trkpt lat="39.6696734576029" lon="9.009897863362966"><ele>202.79999999999998</ele><time>2026-05-01T10:12:44Z</time></trkpt><trkpt lat="39.669706040210656" lon="9.009789934880988"><ele>201.6</ele><time>2026-05-01T10:12:46Z</time></trkpt><trkpt lat="39.66973596207394" lon="9.00971407959089"><ele>200.4</ele><time>2026-05-01T10:12:48Z</time></trkpt><trkpt lat="39.66979745514646" lon="9.009600827218772"><ele>199.2</ele><time>2026-05-01T10:12:50Z</time></trkpt><trkpt lat="39.66987611770352" lon="9.009469421774565"><ele>198.0</ele><time>2026-05-01T10:12:52Z</time></trkpt><trkpt lat="39.66991549264946" lon="9.009394921523098"><ele>198.0</ele><time>2026-05-01T10:12:53Z</time></trkpt><trkpt lat="39.669944710505256" lon="9.009319822327814"><ele>198.0</ele><time>2026-05-01T10:12:54Z</time></trkpt><trkpt lat="39.669993537651635" lon="9.009176890795796"><ele>198.0</ele><time>2026-05-01T10:12:56Z</time></trkpt><trkpt lat="39.670008843221744" lon="9.009083275662025"><ele>198.0</ele><time>2026-05-01T10:12:57Z</time></trkpt><trkpt lat="39.67002552324379" lon="9.008990923158972"><ele>198.0</ele><time>2026-05-01T10:12:58Z</time></trkpt><trkpt lat="39.67003757897175" lon="9.008904934115106"><ele>198.0</ele><time>2026-05-01T10:12:59Z</time></trkpt><trkpt lat="39.67005768002681" lon="9.008819490043166"><ele>197.2</ele><time>2026-05-01T10:13:00Z</time></trkpt><trkpt lat="39.670089333438185" lon="9.008672824300241"><ele>196.4</ele><time>2026-05-01T10:13:02Z</time></trkpt><trkpt lat="39.67012653187394" lon="9.008537356980948"><ele>195.6</ele><time>2026-05-01T10:13:04Z</time></trkpt><trkpt lat="39.6701460145313" lon="9.008408618016867"><ele>194.79999999999998</ele><time>2026-05-01T10:13:06Z</time></trkpt><trkpt lat="39.67016072678303" lon="9.008294026531265"><ele>194.0</ele><time>2026-05-01T10:13:08Z</time></trkpt><trkpt lat="39.670186934063075" lon="9.008180764391344"><ele>194.00000000000003</ele><time>2026-05-01T10:13:10Z</time></trkpt><trkpt lat="39.67022071085895" lon="9.008083345844897"><ele>194.0</ele><time>2026-05-01T10:13:12Z</time></trkpt><trkpt lat="39.67025947297816" lon="9.007960598207037"><ele>194.0</ele><time>2026-05-01T10:13:14Z</time></trkpt><trkpt lat="39.67030836911866" lon="9.007855770542962"><ele>194.0</ele><time>2026-05-01T10:13:16Z</time></trkpt><trkpt lat="39.67035351902906" lon="9.007767917508833"><ele>194.00000000000003</ele><time>2026-05-01T10:13:18Z</time></trkpt><trkpt lat="39.67039899959051" lon="9.00766809007312"><ele>194.0</ele><time>2026-05-01T10:13:20Z</time></trkpt><trkpt lat="39.67043865414603" lon="9.00760279173621"><ele>194.2</ele><time>2026-05-01T10:13:21Z</time></trkpt><trkpt lat="39.67047667168767" lon="9.007531634480356"><ele>194.39999999999998</ele><time>2026-05-01T10:13:22Z</time></trkpt><trkpt lat="39.67050864094946" lon="9.007461126693805"><ele>194.6</ele><time>2026-05-01T10:13:23Z</time></trkpt><trkpt lat="39.67057768669477" lon="9.00732318117026"><ele>194.8</ele><time>2026-05-01T10:13:25Z</time></trkpt><trkpt lat="39.670647897430115" lon="9.007221950682297"><ele>195.0</ele><time>2026-05-01T10:13:27Z</time></trkpt><trkpt lat="39.670716749428685" lon="9.00709457913601"><ele>194.0</ele><time>2026-05-01T10:13:29Z</time></trkpt><trkpt lat="39.670768634154435" lon="9.006977355413756"><ele>193.0</ele><time>2026-05-01T10:13:31Z</time></trkpt><trkpt lat="39.670823959476806" lon="9.00684894519232"><ele>192.0</ele><time>2026-05-01T10:13:33Z</time></trkpt><trkpt lat="39.67087561465092" lon="9.006706276540006"><ele>191.0</ele><time>2026-05-01T10:13:35Z</time></trkpt><trkpt lat="39.67090012130928" lon="9.006627252333596"><ele>190.0</ele><time>2026-05-01T10:13:36Z</time></trkpt><trkpt lat="39.6709240892264" lon="9.006550469151765"><ele>190.0</ele><time>2026-05-01T10:13:37Z</time></trkpt><trkpt lat="39.67093400098556" lon="9.00645799237793"><ele>190.0</ele><time>2026-05-01T10:13:37.999Z</time></trkpt><trkpt lat="39.67094969838278" lon="9.006370110264074"><ele>190.0</ele><time>2026-05-01T10:13:38.999Z</time></trkpt><trkpt lat="39.67096514263476" lon="9.00628219437142"><ele>190.0</ele><time>2026-05-01T10:13:39.999Z</time></trkpt><trkpt lat="39.67097730510368" lon="9.006193152517682"><ele>190.0</ele><time>2026-05-01T10:13:40.999Z</time></trkpt><trkpt lat="39.67098804374194" lon="9.006103091345892"><ele>190.0</ele><time>2026-05-01T10:13:41.999Z</time></trkpt><trkpt lat="39.670997719987014" lon="9.006016982253378"><ele>190.0</ele><time>2026-05-01T10:13:42.999Z</time></trkpt><trkpt lat="39.67100525355102" lon="9.005925114260766"><ele>190.0</ele><time>2026-05-01T10:13:43.999Z</time></trkpt><trkpt lat="39.67101407944535" lon="9.00584269733678"><ele>190.0</ele><time>2026-05-01T10:13:44.999Z</time></trkpt><trkpt lat="39.671023190012065" lon="9.005757182409427"><ele>190.0</ele><time>2026-05-01T10:13:45.999Z</time></trkpt><trkpt lat="39.671031582025435" lon="9.005605345122962"><ele>190.0</ele><time>2026-05-01T10:13:47.999Z</time></trkpt><trkpt lat="39.67102636523266" lon="9.00545888423812"><ele>190.0</ele><time>2026-05-01T10:13:49.999Z</time></trkpt><trkpt lat="39.671068638085295" lon="9.00532539641201"><ele>190.8</ele><time>2026-05-01T10:13:51.999Z</time></trkpt><trkpt lat="39.67112702954215" lon="9.005194447884922"><ele>191.6</ele><time>2026-05-01T10:13:53.999Z</time></trkpt><trkpt lat="39.67118346575352" lon="9.005063842771024"><ele>192.39999999999998</ele><time>2026-05-01T10:13:55.999Z</time></trkpt><trkpt lat="39.67123304857742" lon="9.004926490826508"><ele>193.2</ele><time>2026-05-01T10:13:57.999Z</time></trkpt><trkpt lat="39.671248846418315" lon="9.004846513080116"><ele>194.0</ele><time>2026-05-01T10:13:58.999Z</time></trkpt><trkpt lat="39.6712760631111" lon="9.004685806068126"><ele>192.66666666666669</ele><time>2026-05-01T10:14:00.999Z</time></trkpt><trkpt lat="39.67127735494359" lon="9.004596316575878"><ele>191.33333333333334</ele><time>2026-05-01T10:14:01.999Z</time></trkpt><trkpt lat="39.6712787876607" lon="9.004514101249043"><ele>190.0</ele><time>2026-05-01T10:14:02.999Z</time></trkpt><trkpt lat="39.67128611210738" lon="9.004351831723183"><ele>188.66666666666669</ele><time>2026-05-01T10:14:04.999Z</time></trkpt><trkpt lat="39.67129336003736" lon="9.0042660373558"><ele>187.33333333333334</ele><time>2026-05-01T10:14:05.999Z</time></trkpt><trkpt lat="39.671296608861326" lon="9.004180106147484"><ele>186.0</ele><time>2026-05-01T10:14:06.999Z</time></trkpt><trkpt lat="39.67130056617259" lon="9.004093579165891"><ele>185.4</ele><time>2026-05-01T10:14:07.999Z</time></trkpt><trkpt lat="39.67130492472262" lon="9.004006232911882"><ele>184.8</ele><time>2026-05-01T10:14:08.999Z</time></trkpt><trkpt lat="39.671314873372346" lon="9.003923209096207"><ele>184.20000000000002</ele><time>2026-05-01T10:14:09.999Z</time></trkpt><trkpt lat="39.67133183780027" lon="9.003783435937027"><ele>183.60000000000002</ele><time>2026-05-01T10:14:11.999Z</time></trkpt><trkpt lat="39.671354889768544" lon="9.003658023066464"><ele>183.0</ele><time>2026-05-01T10:14:13.999Z</time></trkpt><trkpt lat="39.671377469869405" lon="9.003515812007121"><ele>183.0</ele><time>2026-05-01T10:14:15.999Z</time></trkpt><trkpt lat="39.6713934945252" lon="9.003392415943651"><ele>183.0</ele><time>2026-05-01T10:14:17.999Z</time></trkpt><trkpt lat="39.67138312409457" lon="9.003268029035153"><ele>183.0</ele><time>2026-05-01T10:14:19.999Z</time></trkpt><trkpt lat="39.67135374152048" lon="9.003128783597887"><ele>183.0</ele><time>2026-05-01T10:14:21.999Z</time></trkpt><trkpt lat="39.67131885689905" lon="9.002981046858617"><ele>183.0</ele><time>2026-05-01T10:14:23.999Z</time></trkpt><trkpt lat="39.671291378766426" lon="9.002838059998979"><ele>182.4</ele><time>2026-05-01T10:14:25.999Z</time></trkpt><trkpt lat="39.67127772004041" lon="9.002685482359583"><ele>181.8</ele><time>2026-05-01T10:14:27.999Z</time></trkpt><trkpt lat="39.671278635730175" lon="9.002545921136607"><ele>181.2</ele><time>2026-05-01T10:14:29.999Z</time></trkpt><trkpt lat="39.67128804451687" lon="9.00246350539255"><ele>180.6</ele><time>2026-05-01T10:14:30.999Z</time></trkpt><trkpt lat="39.67131773777449" lon="9.002298591030586"><ele>180.0</ele><time>2026-05-01T10:14:32.999Z</time></trkpt><trkpt lat="39.6713563969776" lon="9.002211345514059"><ele>178.6</ele><time>2026-05-01T10:14:33.999Z</time></trkpt><trkpt lat="39.67140809758628" lon="9.002123303235576"><ele>177.2</ele><time>2026-05-01T10:14:34.999Z</time></trkpt><trkpt lat="39.67147630316884" lon="9.002021591279625"><ele>175.8</ele><time>2026-05-01T10:14:35.999Z</time></trkpt><trkpt lat="39.67154840105314" lon="9.00190689520322"><ele>174.4</ele><time>2026-05-01T10:14:36.999Z</time></trkpt><trkpt lat="39.671610346336344" lon="9.001815026264554"><ele>173.0</ele><time>2026-05-01T10:14:37.999Z</time></trkpt><trkpt lat="39.67166878997805" lon="9.001722664970819"><ele>172.85714285714286</ele><time>2026-05-01T10:14:38.999Z</time></trkpt><trkpt lat="39.671726610109175" lon="9.00163951720742"><ele>172.71428571428572</ele><time>2026-05-01T10:14:39.999Z</time></trkpt><trkpt lat="39.67178187676226" lon="9.001565024180605"><ele>172.57142857142858</ele><time>2026-05-01T10:14:40.999Z</time></trkpt><trkpt lat="39.67183469711971" lon="9.001496658868724"><ele>172.42857142857144</ele><time>2026-05-01T10:14:41.999Z</time></trkpt><trkpt lat="39.671890299454" lon="9.00143913593355"><ele>172.28571428571428</ele><time>2026-05-01T10:14:42.999Z</time></trkpt><trkpt lat="39.671932503444836" lon="9.001370681734906"><ele>172.14285714285717</ele><time>2026-05-01T10:14:43.999Z</time></trkpt><trkpt lat="39.671965780021694" lon="9.001295673582572"><ele>172.0</ele><time>2026-05-01T10:14:44.999Z</time></trkpt><trkpt lat="39.67199145305929" lon="9.001209308447871"><ele>173.6</ele><time>2026-05-01T10:14:45.999Z</time></trkpt><trkpt lat="39.67204855429929" lon="9.001070006083692"><ele>175.2</ele><time>2026-05-01T10:14:48Z</time></trkpt><trkpt lat="39.67208554394765" lon="9.000917349543522"><ele>176.8</ele><time>2026-05-01T10:14:50Z</time></trkpt><trkpt lat="39.67209551395638" lon="9.000832357042725"><ele>178.4</ele><time>2026-05-01T10:14:51Z</time></trkpt><trkpt lat="39.67209836709713" lon="9.00074635411854"><ele>180.0</ele><time>2026-05-01T10:14:52Z</time></trkpt><trkpt lat="39.672099312911925" lon="9.000650662395286"><ele>180.0</ele><time>2026-05-01T10:14:53Z</time></trkpt><trkpt lat="39.67210305270137" lon="9.00056259869879"><ele>180.0</ele><time>2026-05-01T10:14:54Z</time></trkpt><trkpt lat="39.67208220193118" lon="9.000416315124815"><ele>180.0</ele><time>2026-05-01T10:14:56Z</time></trkpt><trkpt lat="39.67206130043089" lon="9.000291184203908"><ele>180.0</ele><time>2026-05-01T10:14:58Z</time></trkpt><trkpt lat="39.67204663470161" lon="9.000201665015222"><ele>180.0</ele><time>2026-05-01T10:14:59Z</time></trkpt><trkpt lat="39.67202876387621" lon="9.000111256127383"><ele>180.0</ele><time>2026-05-01T10:15:00Z</time></trkpt><trkpt lat="39.672020360465815" lon="9.000023430079171"><ele>180.0</ele><time>2026-05-01T10:15:01Z</time></trkpt><trkpt lat="39.6719930253678" lon="8.999941675980747"><ele>180.0</ele><time>2026-05-01T10:15:02Z</time></trkpt><trkpt lat="39.67197539072321" lon="8.999861543132994"><ele>180.0</ele><time>2026-05-01T10:15:03Z</time></trkpt><trkpt lat="39.67194667420645" lon="8.999708917504007"><ele>180.0</ele><time>2026-05-01T10:15:05Z</time></trkpt><trkpt lat="39.67196901841649" lon="8.999625490014255"><ele>180.0</ele><time>2026-05-01T10:15:06Z</time></trkpt><trkpt lat="39.672022241518356" lon="8.999483086387778"><ele>180.0</ele><time>2026-05-01T10:15:08Z</time></trkpt><trkpt lat="39.67208369016876" lon="8.999373671919882"><ele>180.0</ele><time>2026-05-01T10:15:10Z</time></trkpt><trkpt lat="39.672153611117785" lon="8.999229694639212"><ele>180.0</ele><time>2026-05-01T10:15:12Z</time></trkpt><trkpt lat="39.672220755364336" lon="8.999106806208086"><ele>180.0</ele><time>2026-05-01T10:15:14Z</time></trkpt><trkpt lat="39.67231098389766" lon="8.99899000144081"><ele>180.0</ele><time>2026-05-01T10:15:16Z</time></trkpt><trkpt lat="39.67237442378825" lon="8.998950210936673"><ele>180.0</ele><time>2026-05-01T10:15:17Z</time></trkpt><trkpt lat="39.672448627420096" lon="8.998910743550397"><ele>181.8</ele><time>2026-05-01T10:15:18Z</time></trkpt><trkpt lat="39.67253073363635" lon="8.99886183243831"><ele>183.6</ele><time>2026-05-01T10:15:19Z</time></trkpt><trkpt lat="39.67259966850547" lon="8.998814507437842"><ele>185.39999999999998</ele><time>2026-05-01T10:15:20Z</time></trkpt><trkpt lat="39.67265705528488" lon="8.998764368712992"><ele>187.2</ele><time>2026-05-01T10:15:21Z</time></trkpt><trkpt lat="39.67273486776662" lon="8.99864197908677"><ele>189.0</ele><time>2026-05-01T10:15:23Z</time></trkpt><trkpt lat="39.672802700586445" lon="8.998523874640307"><ele>189.0</ele><time>2026-05-01T10:15:25Z</time></trkpt><trkpt lat="39.67285794515795" lon="8.998437509515849"><ele>189.0</ele><time>2026-05-01T10:15:27Z</time></trkpt><trkpt lat="39.67291986408356" lon="8.998351072764216"><ele>189.0</ele><time>2026-05-01T10:15:29Z</time></trkpt><trkpt lat="39.67299084872142" lon="8.998273076948182"><ele>189.0</ele><time>2026-05-01T10:15:31Z</time></trkpt><trkpt lat="39.673082050532614" lon="8.99818485112528"><ele>189.0</ele><time>2026-05-01T10:15:33Z</time></trkpt><trkpt lat="39.6731608328315" lon="8.998108234829612"><ele>184.33333333333334</ele><time>2026-05-01T10:15:35Z</time></trkpt><trkpt lat="39.673233593165" lon="8.998027756984285"><ele>179.66666666666666</ele><time>2026-05-01T10:15:37Z</time></trkpt><trkpt lat="39.673299380029455" lon="8.99793625589178"><ele>175.0</ele><time>2026-05-01T10:15:38.999Z</time></trkpt><trkpt lat="39.673348861960534" lon="8.997861956563174"><ele>170.33333333333331</ele><time>2026-05-01T10:15:41.999Z</time></trkpt><trkpt lat="39.67337601158913" lon="8.997784858400074"><ele>165.66666666666666</ele><time>2026-05-01T10:15:43.999Z</time></trkpt><trkpt lat="39.67339984731232" lon="8.99770531637584"><ele>161.0</ele><time>2026-05-01T10:15:45.999Z</time></trkpt><trkpt lat="39.673425150332626" lon="8.997616620895794"><ele>161.0</ele><time>2026-05-01T10:15:47.999Z</time></trkpt><trkpt lat="39.67345961143475" lon="8.997504457240062"><ele>161.0</ele><time>2026-05-01T10:15:49.999Z</time></trkpt><trkpt lat="39.6734446677824" lon="8.997365881823972"><ele>161.0</ele><time>2026-05-01T10:15:51.999Z</time></trkpt><trkpt lat="39.67338164184623" lon="8.997243850577664"><ele>161.0</ele><time>2026-05-01T10:15:53.999Z</time></trkpt><trkpt lat="39.673344796597085" lon="8.997176241132964"><ele>161.0</ele><time>2026-05-01T10:15:54.999Z</time></trkpt><trkpt lat="39.67331493378462" lon="8.99708194988801"><ele>160.60000000000002</ele><time>2026-05-01T10:15:55.999Z</time></trkpt><trkpt lat="39.673293346340735" lon="8.996971068739432"><ele>160.20000000000002</ele><time>2026-05-01T10:15:56.999Z</time></trkpt><trkpt lat="39.6732854880412" lon="8.996847642736258"><ele>159.8</ele><time>2026-05-01T10:15:57.999Z</time></trkpt><trkpt lat="39.67328562484604" lon="8.996719219688678"><ele>159.4</ele><time>2026-05-01T10:15:58.999Z</time></trkpt><trkpt lat="39.673283972728974" lon="8.996578273481902"><ele>159.0</ele><time>2026-05-01T10:15:59.999Z</time></trkpt><trkpt lat="39.67328322189251" lon="8.996420104294195"><ele>159.0</ele><time>2026-05-01T10:16:00.999Z</time></trkpt><trkpt lat="39.67328240246527" lon="8.996248828573592"><ele>159.0</ele><time>2026-05-01T10:16:01.999Z</time></trkpt><trkpt lat="39.67328410637566" lon="8.996066438193647"><ele>159.0</ele><time>2026-05-01T10:16:02.999Z</time></trkpt><trkpt lat="39.67328033750719" lon="8.995886865689277"><ele>159.0</ele><time>2026-05-01T10:16:03.999Z</time></trkpt><trkpt lat="39.67328835219103" lon="8.995740863779359"><ele>160.0</ele><time>2026-05-01T10:16:04.999Z</time></trkpt><trkpt lat="39.67330444174933" lon="8.995611858908287"><ele>161.0</ele><time>2026-05-01T10:16:05.999Z</time></trkpt><trkpt lat="39.673326946998316" lon="8.99548907135334"><ele>162.0</ele><time>2026-05-01T10:16:06.999Z</time></trkpt><trkpt lat="39.67334866596451" lon="8.995365205901336"><ele>163.0</ele><time>2026-05-01T10:16:07.999Z</time></trkpt><trkpt lat="39.67337229467871" lon="8.995245412714072"><ele>164.0</ele><time>2026-05-01T10:16:08.999Z</time></trkpt><trkpt lat="39.67341349947557" lon="8.995121477239593"><ele>164.39999999999998</ele><time>2026-05-01T10:16:09.999Z</time></trkpt><trkpt lat="39.67345829062922" lon="8.99499846161352"><ele>164.8</ele><time>2026-05-01T10:16:10.999Z</time></trkpt><trkpt lat="39.67349597285122" lon="8.994888268729623"><ele>165.2</ele><time>2026-05-01T10:16:11.999Z</time></trkpt><trkpt lat="39.673521183598666" lon="8.994754228082426"><ele>165.60000000000002</ele><time>2026-05-01T10:16:12.999Z</time></trkpt><trkpt lat="39.673549947701794" lon="8.994603036871263"><ele>166.0</ele><time>2026-05-01T10:16:13.999Z</time></trkpt><trkpt lat="39.67358778602125" lon="8.994426000624083"><ele>161.0</ele><time>2026-05-01T10:16:14.999Z</time></trkpt><trkpt lat="39.67361923421512" lon="8.99422041461931"><ele>156.0</ele><time>2026-05-01T10:16:15.999Z</time></trkpt><trkpt lat="39.67365051772939" lon="8.994017742231462"><ele>151.0</ele><time>2026-05-01T10:16:16.999Z</time></trkpt><trkpt lat="39.67367340434123" lon="8.993829875481744"><ele>151.0</ele><time>2026-05-01T10:16:17.999Z</time></trkpt><trkpt lat="39.67369933298361" lon="8.993651472896923"><ele>151.0</ele><time>2026-05-01T10:16:18.999Z</time></trkpt><trkpt lat="39.67371864414711" lon="8.993493522140232"><ele>151.0</ele><time>2026-05-01T10:16:19.999Z</time></trkpt><trkpt lat="39.673733108173664" lon="8.993328166660733"><ele>151.0</ele><time>2026-05-01T10:16:20.999Z</time></trkpt><trkpt lat="39.6737546087617" lon="8.993172521802634"><ele>150.8</ele><time>2026-05-01T10:16:21.999Z</time></trkpt><trkpt lat="39.67376661042416" lon="8.993050322401178"><ele>150.6</ele><time>2026-05-01T10:16:22.999Z</time></trkpt><trkpt lat="39.673766644473766" lon="8.992928831769543"><ele>150.4</ele><time>2026-05-01T10:16:23.999Z</time></trkpt><trkpt lat="39.67376125642259" lon="8.992783375907262"><ele>150.2</ele><time>2026-05-01T10:16:24.999Z</time></trkpt><trkpt lat="39.673741057892826" lon="8.992631474212722"><ele>150.0</ele><time>2026-05-01T10:16:25.999Z</time></trkpt><trkpt lat="39.67371855362239" lon="8.992471592361143"><ele>150.0</ele><time>2026-05-01T10:16:26.999Z</time></trkpt><trkpt lat="39.673689284920755" lon="8.992317498217169"><ele>150.0</ele><time>2026-05-01T10:16:27.999Z</time></trkpt><trkpt lat="39.67365120522905" lon="8.992190661556902"><ele>150.0</ele><time>2026-05-01T10:16:28.999Z</time></trkpt><trkpt lat="39.673634926692095" lon="8.992064204622388"><ele>150.0</ele><time>2026-05-01T10:16:29.999Z</time></trkpt><trkpt lat="39.67363004730123" lon="8.991946656702599"><ele>150.0</ele><time>2026-05-01T10:16:30.999Z</time></trkpt><trkpt lat="39.673629129062846" lon="8.991848019730726"><ele>150.0</ele><time>2026-05-01T10:16:31.999Z</time></trkpt><trkpt lat="39.673650578365105" lon="8.991766390618885"><ele>150.0</ele><time>2026-05-01T10:16:32.999Z</time></trkpt><trkpt lat="39.67369077727869" lon="8.99167266631779"><ele>150.0</ele><time>2026-05-01T10:16:33.999Z</time></trkpt><trkpt lat="39.673747331016" lon="8.991575886728622"><ele>150.0</ele><time>2026-05-01T10:16:34.999Z</time></trkpt><trkpt lat="39.673810690878014" lon="8.991467629584582"><ele>150.0</ele><time>2026-05-01T10:16:35.999Z</time></trkpt><trkpt lat="39.673872709503485" lon="8.991357954924968"><ele>150.4</ele><time>2026-05-01T10:16:36.999Z</time></trkpt><trkpt lat="39.67392700706217" lon="8.991244567884278"><ele>150.8</ele><time>2026-05-01T10:16:37.999Z</time></trkpt><trkpt lat="39.673978747354155" lon="8.991140950674987"><ele>151.2</ele><time>2026-05-01T10:16:38.999Z</time></trkpt><trkpt lat="39.674016576460176" lon="8.99103232439664"><ele>151.6</ele><time>2026-05-01T10:16:39.999Z</time></trkpt><trkpt lat="39.67406639071217" lon="8.990925225793074"><ele>152.0</ele><time>2026-05-01T10:16:40.999Z</time></trkpt><trkpt lat="39.6741326550883" lon="8.990818706278745"><ele>151.0</ele><time>2026-05-01T10:16:41.999Z</time></trkpt><trkpt lat="39.67420386016246" lon="8.990708561646304"><ele>150.0</ele><time>2026-05-01T10:16:42.999Z</time></trkpt><trkpt lat="39.67428405942057" lon="8.990604581159966"><ele>149.0</ele><time>2026-05-01T10:16:43.999Z</time></trkpt><trkpt lat="39.67437001434314" lon="8.990510595469686"><ele>148.0</ele><time>2026-05-01T10:16:44.999Z</time></trkpt><trkpt lat="39.674458554587595" lon="8.990416019659207"><ele>148.0</ele><time>2026-05-01T10:16:45.999Z</time></trkpt><trkpt lat="39.67455195906893" lon="8.990331454010628"><ele>148.0</ele><time>2026-05-01T10:16:46.999Z</time></trkpt><trkpt lat="39.674643307675666" lon="8.990243044186323"><ele>148.0</ele><time>2026-05-01T10:16:47.999Z</time></trkpt><trkpt lat="39.674737462183565" lon="8.990155704537747"><ele>148.0</ele><time>2026-05-01T10:16:48.999Z</time></trkpt><trkpt lat="39.67482336212113" lon="8.990047780678816"><ele>149.0</ele><time>2026-05-01T10:16:49.999Z</time></trkpt><trkpt lat="39.67491469572196" lon="8.989923879422236"><ele>150.0</ele><time>2026-05-01T10:16:50.999Z</time></trkpt><trkpt lat="39.67501795640373" lon="8.989784221574581"><ele>151.0</ele><time>2026-05-01T10:16:51.999Z</time></trkpt><trkpt lat="39.675132278914" lon="8.989639749139423"><ele>152.0</ele><time>2026-05-01T10:16:53Z</time></trkpt><trkpt lat="39.67524446338932" lon="8.989476391589735"><ele>151.5</ele><time>2026-05-01T10:16:54Z</time></trkpt><trkpt lat="39.67534597746838" lon="8.989339303702769"><ele>151.0</ele><time>2026-05-01T10:16:55Z</time></trkpt><trkpt lat="39.675443912461816" lon="8.989232055633455"><ele>150.5</ele><time>2026-05-01T10:16:56Z</time></trkpt><trkpt lat="39.67553652986535" lon="8.989138059958178"><ele>150.0</ele><time>2026-05-01T10:16:57Z</time></trkpt><trkpt lat="39.67563328694079" lon="8.989023507769646"><ele>150.0</ele><time>2026-05-01T10:16:58Z</time></trkpt><trkpt lat="39.675703169879114" lon="8.988880272148407"><ele>150.0</ele><time>2026-05-01T10:16:59Z</time></trkpt><trkpt lat="39.675763019429155" lon="8.98876596135899"><ele>150.0</ele><time>2026-05-01T10:17:00Z</time></trkpt><trkpt lat="39.675798988480835" lon="8.98864305323805"><ele>150.0</ele><time>2026-05-01T10:17:01Z</time></trkpt><trkpt lat="39.675832887123164" lon="8.988501861666906"><ele>150.0</ele><time>2026-05-01T10:17:02Z</time></trkpt><trkpt lat="39.675862612499515" lon="8.98837305094917"><ele>150.0</ele><time>2026-05-01T10:17:03Z</time></trkpt><trkpt lat="39.67589337491171" lon="8.98825667792439"><ele>150.0</ele><time>2026-05-01T10:17:04Z</time></trkpt><trkpt lat="39.67590173951802" lon="8.988154089195344"><ele>150.0</ele><time>2026-05-01T10:17:05Z</time></trkpt><trkpt lat="39.675896720991005" lon="8.98802547137721"><ele>150.0</ele><time>2026-05-01T10:17:06Z</time></trkpt><trkpt lat="39.67589202990937" lon="8.98787328885191"><ele>150.0</ele><time>2026-05-01T10:17:07Z</time></trkpt><trkpt lat="39.675871149683545" lon="8.987713990036626"><ele>150.0</ele><time>2026-05-01T10:17:08Z</time></trkpt><trkpt lat="39.675847063360386" lon="8.987575502356687"><ele>150.0</ele><time>2026-05-01T10:17:09Z</time></trkpt><trkpt lat="39.675811709774905" lon="8.987445774492278"><ele>150.0</ele><time>2026-05-01T10:17:10Z</time></trkpt><trkpt lat="39.67577117283562" lon="8.987325716903976"><ele>150.0</ele><time>2026-05-01T10:17:11Z</time></trkpt><trkpt lat="39.67572332470383" lon="8.987191448791066"><ele>150.0</ele><time>2026-05-01T10:17:12Z</time></trkpt><trkpt lat="39.67568639142102" lon="8.987064480842326"><ele>150.0</ele><time>2026-05-01T10:17:13Z</time></trkpt><trkpt lat="39.67567332686106" lon="8.986953168819753"><ele>150.0</ele><time>2026-05-01T10:17:14Z</time></trkpt><trkpt lat="39.67568081009806" lon="8.986852793009696"><ele>150.0</ele><time>2026-05-01T10:17:15Z</time></trkpt><trkpt lat="39.675718981661056" lon="8.98674359411227"><ele>150.0</ele><time>2026-05-01T10:17:17Z</time></trkpt><trkpt lat="39.67577602863764" lon="8.9866457098346"><ele>148.75</ele><time>2026-05-01T10:17:21Z</time></trkpt><trkpt lat="39.67591357025027" lon="8.986595611197957"><ele>147.5</ele><time>2026-05-01T10:17:23Z</time></trkpt><trkpt lat="39.676015380398496" lon="8.986574509269074"><ele>146.25</ele><time>2026-05-01T10:17:24Z</time></trkpt><trkpt lat="39.67612876016488" lon="8.98655104474634"><ele>145.0</ele><time>2026-05-01T10:17:25Z</time></trkpt><trkpt lat="39.67624356638626" lon="8.986531107097793"><ele>144.83333333333334</ele><time>2026-05-01T10:17:26Z</time></trkpt><trkpt lat="39.67633726588272" lon="8.986510018416809"><ele>144.66666666666669</ele><time>2026-05-01T10:17:27Z</time></trkpt><trkpt lat="39.676413130762896" lon="8.98648610234004"><ele>144.5</ele><time>2026-05-01T10:17:28Z</time></trkpt><trkpt lat="39.67648935406906" lon="8.98646486705238"><ele>144.33333333333334</ele><time>2026-05-01T10:17:29Z</time></trkpt><trkpt lat="39.67657316651185" lon="8.98644938285503"><ele>144.16666666666666</ele><time>2026-05-01T10:17:30Z</time></trkpt><trkpt lat="39.67666584480455" lon="8.986433607215687"><ele>144.0</ele><time>2026-05-01T10:17:31Z</time></trkpt><trkpt lat="39.67676571366485" lon="8.986410897045749"><ele>144.0</ele><time>2026-05-01T10:17:32Z</time></trkpt><trkpt lat="39.676863214381235" lon="8.986392801102054"><ele>144.0</ele><time>2026-05-01T10:17:33Z</time></trkpt><trkpt lat="39.676952794249885" lon="8.986374573435139"><ele>144.0</ele><time>2026-05-01T10:17:34Z</time></trkpt><trkpt lat="39.67703505558711" lon="8.9863549443406"><ele>144.0</ele><time>2026-05-01T10:17:35Z</time></trkpt><trkpt lat="39.677115246022844" lon="8.986328249595358"><ele>144.0</ele><time>2026-05-01T10:17:36Z</time></trkpt><trkpt lat="39.677209873457834" lon="8.986300531370674"><ele>144.5</ele><time>2026-05-01T10:17:37Z</time></trkpt><trkpt lat="39.677313196650104" lon="8.986249266146322"><ele>145.0</ele><time>2026-05-01T10:17:38Z</time></trkpt><trkpt lat="39.67742137623437" lon="8.986199830465086"><ele>145.5</ele><time>2026-05-01T10:17:39Z</time></trkpt><trkpt lat="39.677532791386184" lon="8.986167173133508"><ele>146.0</ele><time>2026-05-01T10:17:40Z</time></trkpt><trkpt lat="39.67764565238403" lon="8.98613205027293"><ele>146.0</ele><time>2026-05-01T10:17:40.999Z</time></trkpt><trkpt lat="39.67775189549349" lon="8.986097839821358"><ele>146.0</ele><time>2026-05-01T10:17:41.999Z</time></trkpt><trkpt lat="39.67786554073589" lon="8.986053148487143"><ele>146.0</ele><time>2026-05-01T10:17:42.999Z</time></trkpt><trkpt lat="39.67799742403057" lon="8.985991238111035"><ele>146.0</ele><time>2026-05-01T10:17:43.999Z</time></trkpt><trkpt lat="39.6781017081243" lon="8.985948850227519"><ele>146.0</ele><time>2026-05-01T10:17:44.999Z</time></trkpt><trkpt lat="39.67819316714765" lon="8.985922632302808"><ele>146.0</ele><time>2026-05-01T10:17:45.999Z</time></trkpt><trkpt lat="39.678265222193325" lon="8.985901206208995"><ele>146.0</ele><time>2026-05-01T10:17:46.999Z</time></trkpt><trkpt lat="39.6783683150843" lon="8.985861224359516"><ele>146.0</ele><time>2026-05-01T10:17:48.999Z</time></trkpt><trkpt lat="39.678453855699765" lon="8.985821177049452"><ele>146.0</ele><time>2026-05-01T10:17:50.999Z</time></trkpt><trkpt lat="39.67851326956413" lon="8.985789596313705"><ele>146.0</ele><time>2026-05-01T10:17:51.999Z</time></trkpt><trkpt lat="39.67857642533029" lon="8.985753142622963"><ele>146.16666666666666</ele><time>2026-05-01T10:17:52.999Z</time></trkpt><trkpt lat="39.67864591646342" lon="8.98571790905342"><ele>146.33333333333331</ele><time>2026-05-01T10:17:53.999Z</time></trkpt><trkpt lat="39.6787106967254" lon="8.985689090927362"><ele>146.5</ele><time>2026-05-01T10:17:54.999Z</time></trkpt><trkpt lat="39.67881037140959" lon="8.985612784106703"><ele>146.66666666666666</ele><time>2026-05-01T10:17:56.999Z</time></trkpt><trkpt lat="39.67888821006108" lon="8.985559937276655"><ele>146.83333333333334</ele><time>2026-05-01T10:17:58.999Z</time></trkpt><trkpt lat="39.67891057705801" lon="8.985473626851768"><ele>147.0</ele><time>2026-05-01T10:18:02.999Z</time></trkpt><trkpt lat="39.67885241030312" lon="8.985526342682222"><ele>147.0</ele><time>2026-05-01T10:18:06.999Z</time></trkpt><trkpt lat="39.678793773315704" lon="8.985604014847832"><ele>147.0</ele><time>2026-05-01T10:21:40.999Z</time></trkpt><trkpt lat="39.67872378811423" lon="8.98566918381337"><ele>147.0</ele><time>2026-05-01T10:21:41.999Z</time></trkpt><trkpt lat="39.67863832180639" lon="8.985730698871963"><ele>147.0</ele><time>2026-05-01T10:21:42.999Z</time></trkpt><trkpt lat="39.678547189440096" lon="8.985770923505068"><ele>147.0</ele><time>2026-05-01T10:21:43.999Z</time></trkpt><trkpt lat="39.67845230068879" lon="8.985812336773172"><ele>147.0</ele><time>2026-05-01T10:21:44.999Z</time></trkpt><trkpt lat="39.67833754923204" lon="8.985844990068827"><ele>147.0</ele><time>2026-05-01T10:21:45.999Z</time></trkpt><trkpt lat="39.67820874121641" lon="8.985892990329699"><ele>147.0</ele><time>2026-05-01T10:21:46.999Z</time></trkpt><trkpt lat="39.67807002276652" lon="8.985941968964926"><ele>147.0</ele><time>2026-05-01T10:21:47.999Z</time></trkpt><trkpt lat="39.677928799016286" lon="8.985989880149406"><ele>147.0</ele><time>2026-05-01T10:21:48.999Z</time></trkpt><trkpt lat="39.677779029143515" lon="8.986041621300624"><ele>147.0</ele><time>2026-05-01T10:21:49.999Z</time></trkpt><trkpt lat="39.67762812592967" lon="8.9861016927226"><ele>147.0</ele><time>2026-05-01T10:21:50.999Z</time></trkpt><trkpt lat="39.67746589586793" lon="8.9861659344364"><ele>146.66666666666666</ele><time>2026-05-01T10:21:51.999Z</time></trkpt><trkpt lat="39.67729429372292" lon="8.98623266916897"><ele>146.33333333333331</ele><time>2026-05-01T10:21:52.999Z</time></trkpt><trkpt lat="39.67712619869611" lon="8.986293209139289"><ele>146.0</ele><time>2026-05-01T10:21:53.999Z</time></trkpt><trkpt lat="39.676974519778646" lon="8.98633548951761"><ele>145.5</ele><time>2026-05-01T10:21:54.999Z</time></trkpt><trkpt lat="39.676829944317" lon="8.9863601254462"><ele>145.0</ele><time>2026-05-01T10:21:55.999Z</time></trkpt><trkpt lat="39.67668743435196" lon="8.986388467888345"><ele>144.5</ele><time>2026-05-01T10:21:56.999Z</time></trkpt><trkpt lat="39.67655366144413" lon="8.986421642912326"><ele>144.0</ele><time>2026-05-01T10:21:57.999Z</time></trkpt><trkpt lat="39.67642373447109" lon="8.986477288834413"><ele>144.0</ele><time>2026-05-01T10:21:58.999Z</time></trkpt><trkpt lat="39.67629658582025" lon="8.986489223430038"><ele>144.0</ele><time>2026-05-01T10:21:59.999Z</time></trkpt><trkpt lat="39.676173593866466" lon="8.98652064868329"><ele>144.0</ele><time>2026-05-01T10:22:00.999Z</time></trkpt><trkpt lat="39.67604243624733" lon="8.986549469207537"><ele>144.0</ele><time>2026-05-01T10:22:01.999Z</time></trkpt><trkpt lat="39.67591706268425" lon="8.986578745426058"><ele>144.33333333333334</ele><time>2026-05-01T10:22:02.999Z</time></trkpt><trkpt lat="39.67578512322641" lon="8.986616016396802"><ele>144.66666666666669</ele><time>2026-05-01T10:22:03.999Z</time></trkpt><trkpt lat="39.675637929051796" lon="8.986683285299154"><ele>145.0</ele><time>2026-05-01T10:22:04.999Z</time></trkpt><trkpt lat="39.675486578138546" lon="8.986750478365508"><ele>146.66666666666669</ele><time>2026-05-01T10:22:05.999Z</time></trkpt><trkpt lat="39.6753404513147" lon="8.98681093820022"><ele>148.33333333333334</ele><time>2026-05-01T10:22:06.999Z</time></trkpt><trkpt lat="39.675194867298835" lon="8.986868968301659"><ele>150.0</ele><time>2026-05-01T10:22:07.999Z</time></trkpt><trkpt lat="39.67504506549957" lon="8.986924185293507"><ele>155.25</ele><time>2026-05-01T10:22:08.999Z</time></trkpt><trkpt lat="39.67491260216731" lon="8.986967952170014"><ele>160.5</ele><time>2026-05-01T10:22:09.999Z</time></trkpt><trkpt lat="39.674789991162164" lon="8.987003812396882"><ele>165.75</ele><time>2026-05-01T10:22:10.999Z</time></trkpt><trkpt lat="39.674681508060374" lon="8.987014379559058"><ele>171.0</ele><time>2026-05-01T10:22:11.999Z</time></trkpt><trkpt lat="39.67456371038875" lon="8.987014820864285"><ele>171.0</ele><time>2026-05-01T10:22:12.999Z</time></trkpt><trkpt lat="39.674439829625214" lon="8.9870098721001"><ele>171.0</ele><time>2026-05-01T10:22:13.999Z</time></trkpt><trkpt lat="39.67432083636718" lon="8.987001488419772"><ele>171.0</ele><time>2026-05-01T10:22:14.999Z</time></trkpt><trkpt lat="39.67419838236544" lon="8.98699175182374"><ele>171.0</ele><time>2026-05-01T10:22:15.999Z</time></trkpt><trkpt lat="39.674073070590666" lon="8.986976332481008"><ele>176.5</ele><time>2026-05-01T10:22:16.999Z</time></trkpt><trkpt lat="39.67394364986713" lon="8.98695448157678"><ele>182.0</ele><time>2026-05-01T10:22:17.999Z</time></trkpt><trkpt lat="39.67381524933769" lon="8.98692674114228"><ele>187.5</ele><time>2026-05-01T10:22:18.999Z</time></trkpt><trkpt lat="39.67368350965322" lon="8.98690163130873"><ele>193.0</ele><time>2026-05-01T10:22:19.999Z</time></trkpt><trkpt lat="39.673555224260596" lon="8.986884036343245"><ele>196.2</ele><time>2026-05-01T10:22:20.999Z</time></trkpt><trkpt lat="39.67343014422108" lon="8.986871898227733"><ele>199.4</ele><time>2026-05-01T10:22:21.999Z</time></trkpt><trkpt lat="39.673326897264246" lon="8.986879434141521"><ele>202.6</ele><time>2026-05-01T10:22:22.999Z</time></trkpt><trkpt lat="39.67323937056986" lon="8.986878686300823"><ele>205.79999999999998</ele><time>2026-05-01T10:22:23.999Z</time></trkpt><trkpt lat="39.67315306601106" lon="8.986891345792964"><ele>209.0</ele><time>2026-05-01T10:22:24.999Z</time></trkpt><trkpt lat="39.67305928955384" lon="8.986927643158621"><ele>209.0</ele><time>2026-05-01T10:22:25.999Z</time></trkpt><trkpt lat="39.672951679569" lon="8.986954009811285"><ele>209.0</ele><time>2026-05-01T10:22:26.999Z</time></trkpt><trkpt lat="39.67283001596084" lon="8.986991152204274"><ele>209.0</ele><time>2026-05-01T10:22:27.999Z</time></trkpt><trkpt lat="39.672706728936625" lon="8.98702618870243"><ele>209.0</ele><time>2026-05-01T10:22:28.999Z</time></trkpt><trkpt lat="39.67258981290899" lon="8.987053193145051"><ele>209.66666666666669</ele><time>2026-05-01T10:22:29.999Z</time></trkpt><trkpt lat="39.67248972244037" lon="8.9870697580395"><ele>210.33333333333334</ele><time>2026-05-01T10:22:30.999Z</time></trkpt><trkpt lat="39.67241643773069" lon="8.987057216124999"><ele>211.0</ele><time>2026-05-01T10:22:31.999Z</time></trkpt><trkpt lat="39.672344014722306" lon="8.987027980269339"><ele>211.66666666666669</ele><time>2026-05-01T10:22:32.999Z</time></trkpt><trkpt lat="39.67224858639497" lon="8.98697925691131"><ele>212.33333333333334</ele><time>2026-05-01T10:22:34.999Z</time></trkpt><trkpt lat="39.67217341432111" lon="8.98698684413784"><ele>213.0</ele><time>2026-05-01T10:22:36.999Z</time></trkpt><trkpt lat="39.67215351368917" lon="8.987134966486707"><ele>213.0</ele><time>2026-05-01T10:22:38.999Z</time></trkpt><trkpt lat="39.67222184400386" lon="8.98718414564292"><ele>213.0</ele><time>2026-05-01T10:22:39.999Z</time></trkpt><trkpt lat="39.6723259638047" lon="8.98722547434406"><ele>213.0</ele><time>2026-05-01T10:22:41.999Z</time></trkpt><trkpt lat="39.672315297779754" lon="8.98732166274984"><ele>213.0</ele><time>2026-05-01T10:22:44.999Z</time></trkpt><trkpt lat="39.672218985171384" lon="8.987303896493248"><ele>213.0</ele><time>2026-05-01T10:22:46.999Z</time></trkpt><trkpt lat="39.672156042774546" lon="8.98725253902447"><ele>213.0</ele><time>2026-05-01T10:22:47.999Z</time></trkpt><trkpt lat="39.67208950533221" lon="8.987181883850377"><ele>213.0</ele><time>2026-05-01T10:22:48.999Z</time></trkpt><trkpt lat="39.672042515088044" lon="8.987057347049708"><ele>213.0</ele><time>2026-05-01T10:22:49.999Z</time></trkpt><trkpt lat="39.671982795841046" lon="8.986931581791088"><ele>213.0</ele><time>2026-05-01T10:22:50.999Z</time></trkpt><trkpt lat="39.67192257580206" lon="8.986789370875895"><ele>213.0</ele><time>2026-05-01T10:22:51.999Z</time></trkpt><trkpt lat="39.67184983343124" lon="8.986655759216026"><ele>214.8</ele><time>2026-05-01T10:22:52.998Z</time></trkpt><trkpt lat="39.67179626993512" lon="8.986518993416281"><ele>216.60000000000002</ele><time>2026-05-01T10:22:53.998Z</time></trkpt><trkpt lat="39.67177099592974" lon="8.98639912108516"><ele>218.39999999999998</ele><time>2026-05-01T10:22:54.998Z</time></trkpt><trkpt lat="39.67173890931801" lon="8.986296046740986"><ele>220.2</ele><time>2026-05-01T10:22:55.998Z</time></trkpt><trkpt lat="39.67170065384766" lon="8.986192008174866"><ele>222.0</ele><time>2026-05-01T10:22:56.998Z</time></trkpt><trkpt lat="39.67168779450227" lon="8.986061873774778"><ele>222.0</ele><time>2026-05-01T10:22:57.998Z</time></trkpt><trkpt lat="39.671707330530644" lon="8.985927653773455"><ele>222.0</ele><time>2026-05-01T10:22:58.998Z</time></trkpt><trkpt lat="39.67168182572724" lon="8.985795830418553"><ele>222.0</ele><time>2026-05-01T10:22:59.998Z</time></trkpt><trkpt lat="39.67165921064691" lon="8.98566950196994"><ele>222.0</ele><time>2026-05-01T10:23:00.998Z</time></trkpt><trkpt lat="39.6716276173601" lon="8.985529892286042"><ele>222.0</ele><time>2026-05-01T10:23:01.998Z</time></trkpt><trkpt lat="39.67159095052084" lon="8.98538413289471"><ele>221.2</ele><time>2026-05-01T10:23:02.998Z</time></trkpt><trkpt lat="39.67155962561072" lon="8.985257138725064"><ele>220.39999999999998</ele><time>2026-05-01T10:23:03.998Z</time></trkpt><trkpt lat="39.67153721910927" lon="8.985163916860095"><ele>219.60000000000002</ele><time>2026-05-01T10:23:04.998Z</time></trkpt><trkpt lat="39.671507321138165" lon="8.985026513408172"><ele>218.8</ele><time>2026-05-01T10:23:06.998Z</time></trkpt><trkpt lat="39.6714171861228" lon="8.984972749792009"><ele>218.0</ele><time>2026-05-01T10:23:08.998Z</time></trkpt><trkpt lat="39.67135515286086" lon="8.985025807260062"><ele>218.0</ele><time>2026-05-01T10:23:09.998Z</time></trkpt><trkpt lat="39.67134397775731" lon="8.985146651432649"><ele>218.0</ele><time>2026-05-01T10:23:10.999Z</time></trkpt><trkpt lat="39.671305692746564" lon="8.985278739501096"><ele>218.0</ele><time>2026-05-01T10:23:11.999Z</time></trkpt><trkpt lat="39.67127268496067" lon="8.98541955333643"><ele>218.0</ele><time>2026-05-01T10:23:12.999Z</time></trkpt><trkpt lat="39.67123705385019" lon="8.98557155845132"><ele>218.0</ele><time>2026-05-01T10:23:13.999Z</time></trkpt><trkpt lat="39.67119437088878" lon="8.985756195239558"><ele>219.33333333333334</ele><time>2026-05-01T10:23:14.999Z</time></trkpt><trkpt lat="39.67116515017484" lon="8.985955668763715"><ele>220.66666666666669</ele><time>2026-05-01T10:23:15.999Z</time></trkpt><trkpt lat="39.671118344046725" lon="8.986147230764997"><ele>222.0</ele><time>2026-05-01T10:23:16.999Z</time></trkpt><trkpt lat="39.67107662638263" lon="8.986320735813432"><ele>225.6</ele><time>2026-05-01T10:23:17.999Z</time></trkpt><trkpt lat="39.67104300014398" lon="8.986475700246157"><ele>229.2</ele><time>2026-05-01T10:23:19Z</time></trkpt><trkpt lat="39.67101297780381" lon="8.986611873671931"><ele>232.8</ele><time>2026-05-01T10:23:20Z</time></trkpt><trkpt lat="39.67098218040952" lon="8.986747387560067"><ele>236.4</ele><time>2026-05-01T10:23:21Z</time></trkpt><trkpt lat="39.670963384434785" lon="8.986884773560654"><ele>240.0</ele><time>2026-05-01T10:23:22Z</time></trkpt><trkpt lat="39.67094903978128" lon="8.987028437793928"><ele>240.6</ele><time>2026-05-01T10:23:23Z</time></trkpt><trkpt lat="39.67093109540804" lon="8.987176407976879"><ele>241.2</ele><time>2026-05-01T10:23:24Z</time></trkpt><trkpt lat="39.670887575730546" lon="8.98729838710809"><ele>241.8</ele><time>2026-05-01T10:23:25Z</time></trkpt><trkpt lat="39.67085655646678" lon="8.987401623723581"><ele>242.4</ele><time>2026-05-01T10:23:26Z</time></trkpt><trkpt lat="39.67081097369204" lon="8.98749633070113"><ele>243.0</ele><time>2026-05-01T10:23:27Z</time></trkpt><trkpt lat="39.670751176693095" lon="8.987605444850166"><ele>243.25</ele><time>2026-05-01T10:23:28Z</time></trkpt><trkpt lat="39.670682289694334" lon="8.987709763140655"><ele>243.5</ele><time>2026-05-01T10:23:29Z</time></trkpt><trkpt lat="39.67060574470627" lon="8.987819416813023"><ele>243.75</ele><time>2026-05-01T10:23:30Z</time></trkpt><trkpt lat="39.67052555769579" lon="8.987933900674163"><ele>244.0</ele><time>2026-05-01T10:23:31Z</time></trkpt><trkpt lat="39.6704476106986" lon="8.988043248040682"><ele>244.0</ele><time>2026-05-01T10:23:32Z</time></trkpt><trkpt lat="39.670369076391054" lon="8.98814744211604"><ele>243.99999999999997</ele><time>2026-05-01T10:23:33Z</time></trkpt><trkpt lat="39.67029046456686" lon="8.988238081104125"><ele>243.99999999999997</ele><time>2026-05-01T10:23:34Z</time></trkpt><trkpt lat="39.670204459163145" lon="8.988316852103809"><ele>244.0</ele><time>2026-05-01T10:23:35Z</time></trkpt><trkpt lat="39.670109195381" lon="8.988392397099478"><ele>244.0</ele><time>2026-05-01T10:23:36Z</time></trkpt><trkpt lat="39.67001064530238" lon="8.988467354859038"><ele>245.2</ele><time>2026-05-01T10:23:37Z</time></trkpt><trkpt lat="39.66991010093645" lon="8.988540741383824"><ele>246.39999999999998</ele><time>2026-05-01T10:23:38Z</time></trkpt><trkpt lat="39.66981406877319" lon="8.988610834506112"><ele>247.6</ele><time>2026-05-01T10:23:39Z</time></trkpt><trkpt lat="39.66974004792618" lon="8.988691240765682"><ele>248.8</ele><time>2026-05-01T10:23:40Z</time></trkpt><trkpt lat="39.66967545070084" lon="8.988747710801636"><ele>250.0</ele><time>2026-05-01T10:23:41Z</time></trkpt><trkpt lat="39.669593472593924" lon="8.988797716982774"><ele>250.0</ele><time>2026-05-01T10:23:42Z</time></trkpt><trkpt lat="39.66952279763154" lon="8.988869692399756"><ele>250.0</ele><time>2026-05-01T10:23:43Z</time></trkpt><trkpt lat="39.6694533569254" lon="8.988950783276884"><ele>250.0</ele><time>2026-05-01T10:23:44Z</time></trkpt><trkpt lat="39.669384343812084" lon="8.989039449050564"><ele>250.0</ele><time>2026-05-01T10:23:45Z</time></trkpt><trkpt lat="39.66931466472157" lon="8.989141882697554"><ele>250.0</ele><time>2026-05-01T10:23:46Z</time></trkpt><trkpt lat="39.66924609617343" lon="8.989245243100283"><ele>250.2</ele><time>2026-05-01T10:23:47Z</time></trkpt><trkpt lat="39.66918005820527" lon="8.989341563715923"><ele>250.4</ele><time>2026-05-01T10:23:48Z</time></trkpt><trkpt lat="39.66911157696126" lon="8.98943029188459"><ele>250.60000000000002</ele><time>2026-05-01T10:23:49Z</time></trkpt><trkpt lat="39.669037202334316" lon="8.989515089500545"><ele>250.8</ele><time>2026-05-01T10:23:50Z</time></trkpt><trkpt lat="39.66895950679855" lon="8.989604169071525"><ele>251.0</ele><time>2026-05-01T10:23:51Z</time></trkpt><trkpt lat="39.66888013304326" lon="8.989695868402194"><ele>251.0</ele><time>2026-05-01T10:23:52Z</time></trkpt><trkpt lat="39.668801905788655" lon="8.98978624381416"><ele>251.00000000000003</ele><time>2026-05-01T10:23:53Z</time></trkpt><trkpt lat="39.668727720137014" lon="8.989867212598604"><ele>251.00000000000003</ele><time>2026-05-01T10:23:54Z</time></trkpt><trkpt lat="39.66864918346152" lon="8.989951442795375"><ele>251.0</ele><time>2026-05-01T10:23:55Z</time></trkpt><trkpt lat="39.66856832328122" lon="8.990032293105074"><ele>251.0</ele><time>2026-05-01T10:23:56Z</time></trkpt><trkpt lat="39.66848739105495" lon="8.990112254953855"><ele>250.8</ele><time>2026-05-01T10:23:57Z</time></trkpt><trkpt lat="39.66840556708179" lon="8.990193097954482"><ele>250.60000000000002</ele><time>2026-05-01T10:23:58Z</time></trkpt><trkpt lat="39.6683246345" lon="8.990273060213385"><ele>250.4</ele><time>2026-05-01T10:23:59Z</time></trkpt><trkpt lat="39.668243967011485" lon="8.99035276056575"><ele>250.2</ele><time>2026-05-01T10:24:00Z</time></trkpt><trkpt lat="39.66816312190768" lon="8.990432636367515"><ele>250.0</ele><time>2026-05-01T10:24:00.999Z</time></trkpt><trkpt lat="39.66808581667154" lon="8.99050901481632"><ele>249.99999999999997</ele><time>2026-05-01T10:24:01.999Z</time></trkpt><trkpt lat="39.66801074423384" lon="8.990583187151858"><ele>250.0</ele><time>2026-05-01T10:24:02.999Z</time></trkpt><trkpt lat="39.6679421758936" lon="8.990661272917002"><ele>250.0</ele><time>2026-05-01T10:24:03.999Z</time></trkpt><trkpt lat="39.66788117936712" lon="8.990731792697705"><ele>250.0</ele><time>2026-05-01T10:24:04.999Z</time></trkpt><trkpt lat="39.66782623517732" lon="8.99079531516419"><ele>249.99999999999997</ele><time>2026-05-01T10:24:05.999Z</time></trkpt><trkpt lat="39.6677714188993" lon="8.990856671729432"><ele>250.0</ele><time>2026-05-01T10:24:06.999Z</time></trkpt><trkpt lat="39.66768142043016" lon="8.990959958698069"><ele>250.0</ele><time>2026-05-01T10:24:08.999Z</time></trkpt><trkpt lat="39.66762620751257" lon="8.991108432725511"><ele>250.0</ele><time>2026-05-01T10:24:10.999Z</time></trkpt><trkpt lat="39.667601437381556" lon="8.991194196503352"><ele>250.0</ele><time>2026-05-01T10:24:11.999Z</time></trkpt><trkpt lat="39.66753930638942" lon="8.99132326782226"><ele>250.0</ele><time>2026-05-01T10:24:13.999Z</time></trkpt><trkpt lat="39.66749291058212" lon="8.991387946880115"><ele>250.0</ele><time>2026-05-01T10:24:14.999Z</time></trkpt><trkpt lat="39.66744692068573" lon="8.991469000699942"><ele>249.99999999999997</ele><time>2026-05-01T10:24:15.999Z</time></trkpt><trkpt lat="39.667401655149085" lon="8.991548777974145"><ele>250.0</ele><time>2026-05-01T10:24:16.999Z</time></trkpt><trkpt lat="39.66735392308812" lon="8.991629089741647"><ele>250.0</ele><time>2026-05-01T10:24:17.999Z</time></trkpt><trkpt lat="39.66729739260848" lon="8.991722527223084"><ele>250.0</ele><time>2026-05-01T10:24:18.999Z</time></trkpt><trkpt lat="39.667240622847146" lon="8.991818871769029"><ele>249.99999999999997</ele><time>2026-05-01T10:24:19.999Z</time></trkpt><trkpt lat="39.667194466143556" lon="8.991897931513927"><ele>250.0</ele><time>2026-05-01T10:24:20.999Z</time></trkpt><trkpt lat="39.667154744416315" lon="8.991963809003565"><ele>249.99999999999997</ele><time>2026-05-01T10:24:21.999Z</time></trkpt><trkpt lat="39.667105792793734" lon="8.99203486792633"><ele>250.0</ele><time>2026-05-01T10:24:22.999Z</time></trkpt><trkpt lat="39.667036235660035" lon="8.992157208773902"><ele>250.0</ele><time>2026-05-01T10:24:24.999Z</time></trkpt><trkpt lat="39.66705451799643" lon="8.992281052614635"><ele>250.0</ele><time>2026-05-01T10:24:25.999Z</time></trkpt><trkpt lat="39.66700084602384" lon="8.992346623538259"><ele>249.99999999999997</ele><time>2026-05-01T10:24:26.999Z</time></trkpt><trkpt lat="39.6669533444126" lon="8.992405366975863"><ele>250.0</ele><time>2026-05-01T10:24:27.999Z</time></trkpt><trkpt lat="39.666900216883874" lon="8.992463835121377"><ele>249.99999999999997</ele><time>2026-05-01T10:24:28.999Z</time></trkpt><trkpt lat="39.66685395965312" lon="8.992533817733296"><ele>250.0</ele><time>2026-05-01T10:24:29.999Z</time></trkpt><trkpt lat="39.66680856179357" lon="8.992615440407283"><ele>250.0</ele><time>2026-05-01T10:24:30.999Z</time></trkpt><trkpt lat="39.66675978569994" lon="8.992682679576289"><ele>250.0</ele><time>2026-05-01T10:24:31.999Z</time></trkpt><trkpt lat="39.66671121086625" lon="8.992735408686436"><ele>249.99999999999997</ele><time>2026-05-01T10:24:32.999Z</time></trkpt><trkpt lat="39.66663815214403" lon="8.992751018866691"><ele>250.0</ele><time>2026-05-01T10:24:33.999Z</time></trkpt><trkpt lat="39.666544650997444" lon="8.992832066160657"><ele>250.0</ele><time>2026-05-01T10:24:35.999Z</time></trkpt><trkpt lat="39.66643572971153" lon="8.992910415920544"><ele>250.0</ele><time>2026-05-01T10:24:37.999Z</time></trkpt><trkpt lat="39.6663719301173" lon="8.992948869506481"><ele>250.0</ele><time>2026-05-01T10:24:38.999Z</time></trkpt><trkpt lat="39.66629569856161" lon="8.992991844284552"><ele>250.0</ele><time>2026-05-01T10:24:39.999Z</time></trkpt><trkpt lat="39.66621674668561" lon="8.99303469010241"><ele>250.0</ele><time>2026-05-01T10:24:40.999Z</time></trkpt><trkpt lat="39.66612182083132" lon="8.993081892220824"><ele>250.0</ele><time>2026-05-01T10:24:41.999Z</time></trkpt><trkpt lat="39.666018288202345" lon="8.993132054499874"><ele>250.0</ele><time>2026-05-01T10:24:42.999Z</time></trkpt><trkpt lat="39.66590315160091" lon="8.993188184035931"><ele>250.0</ele><time>2026-05-01T10:24:43.999Z</time></trkpt><trkpt lat="39.66578662710336" lon="8.993265871450825"><ele>250.0</ele><time>2026-05-01T10:24:44.999Z</time></trkpt><trkpt lat="39.665663969474934" lon="8.993345606110223"><ele>250.0</ele><time>2026-05-01T10:24:45.999Z</time></trkpt><trkpt lat="39.665536672894234" lon="8.993427840653109"><ele>250.0</ele><time>2026-05-01T10:24:46.999Z</time></trkpt><trkpt lat="39.66541914181678" lon="8.993508430607518"><ele>250.0</ele><time>2026-05-01T10:24:47.999Z</time></trkpt><trkpt lat="39.6652893404433" lon="8.993577348381477"><ele>250.0</ele><time>2026-05-01T10:24:48.999Z</time></trkpt><trkpt lat="39.665175403909416" lon="8.9936747548331"><ele>250.0</ele><time>2026-05-01T10:24:49.999Z</time></trkpt><trkpt lat="39.66506566330352" lon="8.99376742287859"><ele>250.0</ele><time>2026-05-01T10:24:50.999Z</time></trkpt><trkpt lat="39.6649543991649" lon="8.99385647505755"><ele>250.0</ele><time>2026-05-01T10:24:51.999Z</time></trkpt><trkpt lat="39.66484466124306" lon="8.993944713875292"><ele>250.0</ele><time>2026-05-01T10:24:52.999Z</time></trkpt><trkpt lat="39.664743986124584" lon="8.994032779440506"><ele>250.0</ele><time>2026-05-01T10:24:53.999Z</time></trkpt><trkpt lat="39.66464734152281" lon="8.994124519143968"><ele>250.0</ele><time>2026-05-01T10:24:54.999Z</time></trkpt><trkpt lat="39.66456495859216" lon="8.994207691451043"><ele>250.0</ele><time>2026-05-01T10:24:55.999Z</time></trkpt><trkpt lat="39.6644818882706" lon="8.994298126135261"><ele>250.0</ele><time>2026-05-01T10:24:56.999Z</time></trkpt><trkpt lat="39.6643996599933" lon="8.994397411066887"><ele>250.0</ele><time>2026-05-01T10:24:57.999Z</time></trkpt><trkpt lat="39.664316697743885" lon="8.994502559506627"><ele>249.25</ele><time>2026-05-01T10:24:58.999Z</time></trkpt><trkpt lat="39.664233735364675" lon="8.994613768246513"><ele>248.5</ele><time>2026-05-01T10:24:59.999Z</time></trkpt><trkpt lat="39.66415630970439" lon="8.994728520344216"><ele>247.75</ele><time>2026-05-01T10:25:00.999Z</time></trkpt><trkpt lat="39.664085506476965" lon="8.994841517051759"><ele>247.0</ele><time>2026-05-01T10:25:01.999Z</time></trkpt><trkpt lat="39.664017404522106" lon="8.994957462751477"><ele>248.0</ele><time>2026-05-01T10:25:02.999Z</time></trkpt><trkpt lat="39.663956122522265" lon="8.995067949236013"><ele>249.0</ele><time>2026-05-01T10:25:03.999Z</time></trkpt><trkpt lat="39.66389935292062" lon="8.995179548317108"><ele>250.0</ele><time>2026-05-01T10:25:04.999Z</time></trkpt><trkpt lat="39.663842076933534" lon="8.995303241335638"><ele>251.0</ele><time>2026-05-01T10:25:05.999Z</time></trkpt><trkpt lat="39.66378019973338" lon="8.995443994309111"><ele>252.0</ele><time>2026-05-01T10:25:06.999Z</time></trkpt><trkpt lat="39.66371435221387" lon="8.995581726199127"><ele>252.0</ele><time>2026-05-01T10:25:07.999Z</time></trkpt><trkpt lat="39.66365626493683" lon="8.995701001198455"><ele>252.0</ele><time>2026-05-01T10:25:08.999Z</time></trkpt><trkpt lat="39.66360274167775" lon="8.995814224877424"><ele>252.0</ele><time>2026-05-01T10:25:09.999Z</time></trkpt><trkpt lat="39.66356264822921" lon="8.995937075982122"><ele>252.0</ele><time>2026-05-01T10:25:10.999Z</time></trkpt><trkpt lat="39.663536807723375" lon="8.996058897239328"><ele>252.0</ele><time>2026-05-01T10:25:11.999Z</time></trkpt><trkpt lat="39.66351762953633" lon="8.996187794404646"><ele>249.2</ele><time>2026-05-01T10:25:12.999Z</time></trkpt><trkpt lat="39.663508871528485" lon="8.996320114697662"><ele>246.39999999999998</ele><time>2026-05-01T10:25:13.999Z</time></trkpt><trkpt lat="39.66350615941276" lon="8.996430576753223"><ele>243.60000000000002</ele><time>2026-05-01T10:25:14.999Z</time></trkpt><trkpt lat="39.66351122339481" lon="8.996541371965028"><ele>240.8</ele><time>2026-05-01T10:25:15.999Z</time></trkpt><trkpt lat="39.66352386316319" lon="8.996670049713034"><ele>238.0</ele><time>2026-05-01T10:25:17Z</time></trkpt><trkpt lat="39.663535882363725" lon="8.996801097388687"><ele>237.99999999999997</ele><time>2026-05-01T10:25:18Z</time></trkpt><trkpt lat="39.66354092313509" lon="8.996919279692564"><ele>238.0</ele><time>2026-05-01T10:25:19Z</time></trkpt><trkpt lat="39.66354383318446" lon="8.99702780227855"><ele>238.0</ele><time>2026-05-01T10:25:20Z</time></trkpt><trkpt lat="39.66353651365885" lon="8.997124155075484"><ele>238.0</ele><time>2026-05-01T10:25:21Z</time></trkpt><trkpt lat="39.663516446153636" lon="8.997222685533991"><ele>237.99999999999997</ele><time>2026-05-01T10:25:22Z</time></trkpt><trkpt lat="39.663477787730436" lon="8.99731582789062"><ele>238.0</ele><time>2026-05-01T10:25:23Z</time></trkpt><trkpt lat="39.663431658889365" lon="8.99742554413944"><ele>238.8</ele><time>2026-05-01T10:25:24Z</time></trkpt><trkpt lat="39.66339950253156" lon="8.997564987892028"><ele>239.60000000000002</ele><time>2026-05-01T10:25:25Z</time></trkpt><trkpt lat="39.66336956234882" lon="8.997710158481"><ele>240.39999999999998</ele><time>2026-05-01T10:25:26Z</time></trkpt><trkpt lat="39.663325663535346" lon="8.997830561294954"><ele>241.2</ele><time>2026-05-01T10:25:27Z</time></trkpt><trkpt lat="39.66329409638485" lon="8.997946272034223"><ele>242.0</ele><time>2026-05-01T10:25:28Z</time></trkpt><trkpt lat="39.66326818413609" lon="8.998062509834972"><ele>242.0</ele><time>2026-05-01T10:25:29Z</time></trkpt><trkpt lat="39.6632435298623" lon="8.998193423590106"><ele>242.0</ele><time>2026-05-01T10:25:30Z</time></trkpt><trkpt lat="39.66323017563594" lon="8.998334072829948"><ele>242.0</ele><time>2026-05-01T10:25:31Z</time></trkpt><trkpt lat="39.66321982351878" lon="8.99845767921849"><ele>242.0</ele><time>2026-05-01T10:25:32Z</time></trkpt><trkpt lat="39.66320133630857" lon="8.998563557496992"><ele>242.0</ele><time>2026-05-01T10:25:33Z</time></trkpt><trkpt lat="39.66317246235786" lon="8.998649128485313"><ele>243.00000000000003</ele><time>2026-05-01T10:25:34Z</time></trkpt><trkpt lat="39.66313846454711" lon="8.998734082839496"><ele>244.0</ele><time>2026-05-01T10:25:35Z</time></trkpt><trkpt lat="39.66309586629303" lon="8.998817094104389"><ele>245.0</ele><time>2026-05-01T10:25:36Z</time></trkpt><trkpt lat="39.663035976464144" lon="8.998906572560834"><ele>246.0</ele><time>2026-05-01T10:25:37Z</time></trkpt><trkpt lat="39.662954103318185" lon="8.99895739357967"><ele>247.00000000000003</ele><time>2026-05-01T10:25:38Z</time></trkpt><trkpt lat="39.66284975178779" lon="8.999023901597829"><ele>248.0</ele><time>2026-05-01T10:25:39Z</time></trkpt><trkpt lat="39.66275612050924" lon="8.999090839416851"><ele>247.2</ele><time>2026-05-01T10:25:40Z</time></trkpt><trkpt lat="39.66268268758824" lon="8.999147302898372"><ele>246.4</ele><time>2026-05-01T10:25:41Z</time></trkpt><trkpt lat="39.66260919126171" lon="8.999227868737254"><ele>245.59999999999997</ele><time>2026-05-01T10:25:42Z</time></trkpt><trkpt lat="39.66253701875612" lon="8.999317973657924"><ele>244.79999999999998</ele><time>2026-05-01T10:25:43Z</time></trkpt><trkpt lat="39.66245366788781" lon="8.999425014935332"><ele>244.0</ele><time>2026-05-01T10:25:44Z</time></trkpt><trkpt lat="39.66236703161437" lon="8.999536275400379"><ele>244.0</ele><time>2026-05-01T10:25:45Z</time></trkpt><trkpt lat="39.66227923272939" lon="8.99964902892208"><ele>243.99999999999997</ele><time>2026-05-01T10:25:46Z</time></trkpt><trkpt lat="39.66219572456708" lon="8.999757615316643"><ele>243.99999999999997</ele><time>2026-05-01T10:25:47Z</time></trkpt><trkpt lat="39.66212887065929" lon="8.999854102564889"><ele>244.0</ele><time>2026-05-01T10:25:48Z</time></trkpt><trkpt lat="39.662069663966136" lon="8.999945564902768"><ele>244.0</ele><time>2026-05-01T10:25:49Z</time></trkpt><trkpt lat="39.662044291142685" lon="9.000069777144303"><ele>244.0</ele><time>2026-05-01T10:25:50Z</time></trkpt><trkpt lat="39.66202281342301" lon="9.000192366420425"><ele>243.99999999999997</ele><time>2026-05-01T10:25:51Z</time></trkpt><trkpt lat="39.66200868412186" lon="9.000331276488662"><ele>243.99999999999997</ele><time>2026-05-01T10:25:52Z</time></trkpt><trkpt lat="39.6619761045418" lon="9.000448997041747"><ele>244.0</ele><time>2026-05-01T10:25:53Z</time></trkpt><trkpt lat="39.66193086072395" lon="9.000561659802713"><ele>244.0</ele><time>2026-05-01T10:25:54Z</time></trkpt><trkpt lat="39.66187413434117" lon="9.000693282216863"><ele>243.0</ele><time>2026-05-01T10:25:55Z</time></trkpt><trkpt lat="39.66180224625632" lon="9.000832983450143"><ele>242.0</ele><time>2026-05-01T10:25:56Z</time></trkpt><trkpt lat="39.66172447222155" lon="9.000974394025318"><ele>241.0</ele><time>2026-05-01T10:25:57Z</time></trkpt><trkpt lat="39.66164662289848" lon="9.001107319623834"><ele>240.0</ele><time>2026-05-01T10:25:58Z</time></trkpt><trkpt lat="39.66156941946936" lon="9.001266021957061"><ele>240.0</ele><time>2026-05-01T10:25:59Z</time></trkpt><trkpt lat="39.66151343374054" lon="9.001433316156902"><ele>240.0</ele><time>2026-05-01T10:26:00Z</time></trkpt><trkpt lat="39.66142873703167" lon="9.001577205586614"><ele>240.0</ele><time>2026-05-01T10:26:01Z</time></trkpt><trkpt lat="39.661355032999" lon="9.001709073834087"><ele>240.0</ele><time>2026-05-01T10:26:02Z</time></trkpt><trkpt lat="39.66129106343129" lon="9.001815269051216"><ele>240.83333333333334</ele><time>2026-05-01T10:26:03Z</time></trkpt><trkpt lat="39.661245589485695" lon="9.0019041096816"><ele>241.66666666666669</ele><time>2026-05-01T10:26:04Z</time></trkpt><trkpt lat="39.661215473338785" lon="9.001995016006008"><ele>242.5</ele><time>2026-05-01T10:26:05Z</time></trkpt><trkpt lat="39.66117732160377" lon="9.002146282937469"><ele>243.33333333333334</ele><time>2026-05-01T10:26:07Z</time></trkpt><trkpt lat="39.661158953472686" lon="9.002228662275845"><ele>244.16666666666669</ele><time>2026-05-01T10:26:08Z</time></trkpt><trkpt lat="39.66114127129211" lon="9.002322286028408"><ele>245.0</ele><time>2026-05-01T10:26:09Z</time></trkpt><trkpt lat="39.66114325445135" lon="9.002427902307462"><ele>245.50000000000003</ele><time>2026-05-01T10:26:10Z</time></trkpt><trkpt lat="39.66113405063946" lon="9.002539464482236"><ele>246.0</ele><time>2026-05-01T10:26:11Z</time></trkpt><trkpt lat="39.66112226335406" lon="9.00265663306235"><ele>246.5</ele><time>2026-05-01T10:26:12Z</time></trkpt><trkpt lat="39.661085947527994" lon="9.002773524320446"><ele>247.0</ele><time>2026-05-01T10:26:13Z</time></trkpt><trkpt lat="39.66106047392555" lon="9.00288343696638"><ele>247.50000000000003</ele><time>2026-05-01T10:26:14Z</time></trkpt><trkpt lat="39.661038135525615" lon="9.002980789709385"><ele>248.0</ele><time>2026-05-01T10:26:15Z</time></trkpt><trkpt lat="39.6610163280943" lon="9.003075828442023"><ele>248.00000000000003</ele><time>2026-05-01T10:26:16Z</time></trkpt><trkpt lat="39.661007049787415" lon="9.003181670308983"><ele>248.0</ele><time>2026-05-01T10:26:17Z</time></trkpt><trkpt lat="39.66098376823882" lon="9.003277128121589"><ele>248.0</ele><time>2026-05-01T10:26:18Z</time></trkpt><trkpt lat="39.660958132440044" lon="9.003371880025067"><ele>248.0</ele><time>2026-05-01T10:26:19Z</time></trkpt><trkpt lat="39.66094414558518" lon="9.003489262034096"><ele>248.00000000000003</ele><time>2026-05-01T10:26:20Z</time></trkpt><trkpt lat="39.66093796938143" lon="9.00360367364503"><ele>248.0</ele><time>2026-05-01T10:26:21Z</time></trkpt><trkpt lat="39.660933751200176" lon="9.003716816252608"><ele>248.50000000000003</ele><time>2026-05-01T10:26:22Z</time></trkpt><trkpt lat="39.66092758785966" lon="9.00383280648841"><ele>249.0</ele><time>2026-05-01T10:26:23Z</time></trkpt><trkpt lat="39.66091757646359" lon="9.003940783008522"><ele>249.5</ele><time>2026-05-01T10:26:24Z</time></trkpt><trkpt lat="39.66090574059951" lon="9.004040813982689"><ele>250.0</ele><time>2026-05-01T10:26:25Z</time></trkpt><trkpt lat="39.66089238562302" lon="9.004149426876802"><ele>250.50000000000003</ele><time>2026-05-01T10:26:26Z</time></trkpt><trkpt lat="39.66087801438482" lon="9.004248417579594"><ele>251.0</ele><time>2026-05-01T10:26:27Z</time></trkpt><trkpt lat="39.66085878855944" lon="9.004366664426616"><ele>251.66666666666669</ele><time>2026-05-01T10:26:28Z</time></trkpt><trkpt lat="39.66083928305315" lon="9.004481141907519"><ele>252.33333333333334</ele><time>2026-05-01T10:26:29Z</time></trkpt><trkpt lat="39.66082298430545" lon="9.004567157187486"><ele>253.0</ele><time>2026-05-01T10:26:30Z</time></trkpt><trkpt lat="39.66082298868979" lon="9.004652230905238"><ele>253.66666666666669</ele><time>2026-05-01T10:26:31Z</time></trkpt><trkpt lat="39.66078904555568" lon="9.004737764868139"><ele>254.33333333333334</ele><time>2026-05-01T10:26:32Z</time></trkpt><trkpt lat="39.66076741503436" lon="9.004839824291587"><ele>255.0</ele><time>2026-05-01T10:26:33Z</time></trkpt><trkpt lat="39.66074518416771" lon="9.004943880904188"><ele>255.6</ele><time>2026-05-01T10:26:34Z</time></trkpt><trkpt lat="39.66072176420837" lon="9.005053503377447"><ele>256.2</ele><time>2026-05-01T10:26:35Z</time></trkpt><trkpt lat="39.660697132270755" lon="9.005168798872797"><ele>256.8</ele><time>2026-05-01T10:26:36Z</time></trkpt><trkpt lat="39.660671520364" lon="9.005288681218678"><ele>257.4</ele><time>2026-05-01T10:26:37Z</time></trkpt><trkpt lat="39.660646033361786" lon="9.005407978972666"><ele>258.0</ele><time>2026-05-01T10:26:37.999Z</time></trkpt><trkpt lat="39.66061965448408" lon="9.00553145140826"><ele>258.0</ele><time>2026-05-01T10:26:38.999Z</time></trkpt><trkpt lat="39.66059506407849" lon="9.005646552370006"><ele>258.0</ele><time>2026-05-01T10:26:40Z</time></trkpt><trkpt lat="39.660570962147176" lon="9.005759795381143"><ele>258.0</ele><time>2026-05-01T10:26:40.999Z</time></trkpt><trkpt lat="39.66054549998696" lon="9.00588093554168"><ele>258.0</ele><time>2026-05-01T10:26:41.999Z</time></trkpt><trkpt lat="39.66052079597846" lon="9.006005533161652"><ele>258.0</ele><time>2026-05-01T10:26:42.999Z</time></trkpt><trkpt lat="39.660498948678345" lon="9.006118840292396"><ele>258.8</ele><time>2026-05-01T10:26:43.999Z</time></trkpt><trkpt lat="39.66047394750261" lon="9.006232587895521"><ele>259.6</ele><time>2026-05-01T10:26:44.999Z</time></trkpt><trkpt lat="39.66043882395909" lon="9.006351558218025"><ele>260.4</ele><time>2026-05-01T10:26:45.999Z</time></trkpt><trkpt lat="39.66039434760679" lon="9.00647320425031"><ele>261.2</ele><time>2026-05-01T10:26:46.999Z</time></trkpt><trkpt lat="39.66034270452777" lon="9.006602221028066"><ele>262.0</ele><time>2026-05-01T10:26:47.999Z</time></trkpt><trkpt lat="39.66028532412707" lon="9.006727195780837"><ele>262.75</ele><time>2026-05-01T10:26:48.999Z</time></trkpt><trkpt lat="39.66022449313575" lon="9.006864429517377"><ele>263.5</ele><time>2026-05-01T10:26:49.999Z</time></trkpt><trkpt lat="39.66017090051369" lon="9.007006537060967"><ele>264.25</ele><time>2026-05-01T10:26:50.999Z</time></trkpt><trkpt lat="39.66012445160454" lon="9.007159667823348"><ele>265.0</ele><time>2026-05-01T10:26:51.999Z</time></trkpt><trkpt lat="39.66007785546099" lon="9.007326097163203"><ele>265.3333333333333</ele><time>2026-05-01T10:26:52.999Z</time></trkpt><trkpt lat="39.66001841524708" lon="9.007503243623065"><ele>265.6666666666667</ele><time>2026-05-01T10:26:53.999Z</time></trkpt><trkpt lat="39.65994702884737" lon="9.007694963328257"><ele>266.0</ele><time>2026-05-01T10:26:54.999Z</time></trkpt><trkpt lat="39.65987002723888" lon="9.007914028963254"><ele>266.0</ele><time>2026-05-01T10:26:55.999Z</time></trkpt><trkpt lat="39.65980283943751" lon="9.008108848725955"><ele>266.0</ele><time>2026-05-01T10:26:56.999Z</time></trkpt><trkpt lat="39.65974447967702" lon="9.008255797987415"><ele>266.0</ele><time>2026-05-01T10:26:57.999Z</time></trkpt><trkpt lat="39.65969506848711" lon="9.008368819747874"><ele>266.0</ele><time>2026-05-01T10:26:58.999Z</time></trkpt><trkpt lat="39.65965102957596" lon="9.008468912213635"><ele>266.6666666666667</ele><time>2026-05-01T10:26:59.999Z</time></trkpt><trkpt lat="39.65961693633872" lon="9.008546399979057"><ele>267.33333333333337</ele><time>2026-05-01T10:27:00.999Z</time></trkpt><trkpt lat="39.65957389539748" lon="9.00864422424694"><ele>268.0</ele><time>2026-05-01T10:27:02.999Z</time></trkpt><trkpt lat="39.659520244998724" lon="9.008707449767368"><ele>268.6666666666667</ele><time>2026-05-01T10:27:05.999Z</time></trkpt><trkpt lat="39.6594404375554" lon="9.00859788693217"><ele>269.3333333333333</ele><time>2026-05-01T10:27:06.999Z</time></trkpt><trkpt lat="39.65938378102059" lon="9.00853300070994"><ele>270.0</ele><time>2026-05-01T10:27:07.999Z</time></trkpt><trkpt lat="39.659327587444444" lon="9.008446965892725"><ele>270.5</ele><time>2026-05-01T10:27:08.999Z</time></trkpt><trkpt lat="39.659283241538056" lon="9.008328554430012"><ele>271.0</ele><time>2026-05-01T10:27:09.999Z</time></trkpt><trkpt lat="39.65924743634857" lon="9.008193863206902"><ele>271.5</ele><time>2026-05-01T10:27:10.999Z</time></trkpt><trkpt lat="39.659209222162495" lon="9.008033271486376"><ele>272.0</ele><time>2026-05-01T10:27:11.999Z</time></trkpt><trkpt lat="39.65915652596075" lon="9.007868397086876"><ele>272.5</ele><time>2026-05-01T10:27:12.999Z</time></trkpt><trkpt lat="39.659122329651034" lon="9.007675118033257"><ele>273.0</ele><time>2026-05-01T10:27:13.999Z</time></trkpt><trkpt lat="39.659058032038274" lon="9.00749381024362"><ele>273.5</ele><time>2026-05-01T10:27:14.999Z</time></trkpt><trkpt lat="39.65900800931563" lon="9.007321976757455"><ele>274.0</ele><time>2026-05-01T10:27:15.999Z</time></trkpt><trkpt lat="39.65894602819974" lon="9.007170861465058"><ele>274.75</ele><time>2026-05-01T10:27:16.999Z</time></trkpt><trkpt lat="39.65885690590174" lon="9.007032585197207"><ele>275.5</ele><time>2026-05-01T10:27:17.999Z</time></trkpt><trkpt lat="39.658758029012" lon="9.006889969372688"><ele>276.25</ele><time>2026-05-01T10:27:18.999Z</time></trkpt><trkpt lat="39.658677858075905" lon="9.006740811032218"><ele>277.0</ele><time>2026-05-01T10:27:19.999Z</time></trkpt><trkpt lat="39.65857468089167" lon="9.00663349314464"><ele>277.75</ele><time>2026-05-01T10:27:20.999Z</time></trkpt><trkpt lat="39.658476417922635" lon="9.006512023154803"><ele>278.5</ele><time>2026-05-01T10:27:21.999Z</time></trkpt><trkpt lat="39.65836914753858" lon="9.006366079107968"><ele>279.25</ele><time>2026-05-01T10:27:23Z</time></trkpt><trkpt lat="39.658252894779096" lon="9.006237719569896"><ele>280.0</ele><time>2026-05-01T10:27:24Z</time></trkpt><trkpt lat="39.65813097192267" lon="9.006120870654003"><ele>280.0</ele><time>2026-05-01T10:27:25Z</time></trkpt><trkpt lat="39.65800869325031" lon="9.006035597402354"><ele>280.0</ele><time>2026-05-01T10:27:26Z</time></trkpt><trkpt lat="39.65791149947483" lon="9.005954703198151"><ele>280.0</ele><time>2026-05-01T10:27:27Z</time></trkpt><trkpt lat="39.65780596967434" lon="9.005885050901385"><ele>280.0</ele><time>2026-05-01T10:27:28Z</time></trkpt><trkpt lat="39.65770461504107" lon="9.00582686314232"><ele>277.66666666666663</ele><time>2026-05-01T10:27:29Z</time></trkpt><trkpt lat="39.657576752536755" lon="9.005785868930268"><ele>275.3333333333333</ele><time>2026-05-01T10:27:30Z</time></trkpt><trkpt lat="39.657427493450015" lon="9.005750922846397"><ele>273.0</ele><time>2026-05-01T10:27:31Z</time></trkpt><trkpt lat="39.6572632773134" lon="9.00569285768901"><ele>273.0</ele><time>2026-05-01T10:27:32Z</time></trkpt><trkpt lat="39.657101174256205" lon="9.005649588077958"><ele>273.0</ele><time>2026-05-01T10:27:33Z</time></trkpt><trkpt lat="39.65694184133877" lon="9.005606988766328"><ele>273.0</ele><time>2026-05-01T10:27:34Z</time></trkpt><trkpt lat="39.65678641422798" lon="9.005564690789901"><ele>273.6666666666667</ele><time>2026-05-01T10:27:35Z</time></trkpt><trkpt lat="39.65662511552573" lon="9.005520096668562"><ele>274.33333333333337</ele><time>2026-05-01T10:27:36Z</time></trkpt><trkpt lat="39.656472892966704" lon="9.005462314460424"><ele>275.0</ele><time>2026-05-01T10:27:37Z</time></trkpt><trkpt lat="39.65631929879446" lon="9.005392615688395"><ele>275.0</ele><time>2026-05-01T10:27:38Z</time></trkpt><trkpt lat="39.65616897638708" lon="9.005332708882602"><ele>275.0</ele><time>2026-05-01T10:27:39Z</time></trkpt><trkpt lat="39.65603549242258" lon="9.005268184783674"><ele>275.0</ele><time>2026-05-01T10:27:40Z</time></trkpt><trkpt lat="39.655921333078965" lon="9.005193471373325"><ele>275.0</ele><time>2026-05-01T10:27:41Z</time></trkpt><trkpt lat="39.655816247048904" lon="9.005165856808897"><ele>275.0</ele><time>2026-05-01T10:27:42Z</time></trkpt><trkpt lat="39.65573377596296" lon="9.005122601486715"><ele>275.0</ele><time>2026-05-01T10:27:43Z</time></trkpt><trkpt lat="39.655658078281576" lon="9.00507980536428"><ele>275.0</ele><time>2026-05-01T10:27:44Z</time></trkpt><trkpt lat="39.65557571723405" lon="9.00503683800121"><ele>275.0</ele><time>2026-05-01T10:27:45Z</time></trkpt><trkpt lat="39.6554807162766" lon="9.005019063985705"><ele>275.0</ele><time>2026-05-01T10:27:46Z</time></trkpt><trkpt lat="39.65539109861124" lon="9.004984289556795"><ele>275.0</ele><time>2026-05-01T10:27:47Z</time></trkpt><trkpt lat="39.65530940421606" lon="9.00493923440058"><ele>275.0</ele><time>2026-05-01T10:27:48Z</time></trkpt><trkpt lat="39.655227602067505" lon="9.004909710661385"><ele>275.0</ele><time>2026-05-01T10:27:49Z</time></trkpt><trkpt lat="39.65514556223868" lon="9.004893978348605"><ele>275.0</ele><time>2026-05-01T10:27:50Z</time></trkpt><trkpt lat="39.65506465649441" lon="9.0049015967762"><ele>275.0</ele><time>2026-05-01T10:27:51Z</time></trkpt><trkpt lat="39.65498518654423" lon="9.004949973727376"><ele>275.0</ele><time>2026-05-01T10:27:52Z</time></trkpt><trkpt lat="39.65491724051821" lon="9.005022230347686"><ele>274.4</ele><time>2026-05-01T10:27:53Z</time></trkpt><trkpt lat="39.654839600307376" lon="9.005078922168515"><ele>273.8</ele><time>2026-05-01T10:27:54Z</time></trkpt><trkpt lat="39.65475398645441" lon="9.005131760602191"><ele>273.2</ele><time>2026-05-01T10:27:55Z</time></trkpt><trkpt lat="39.65466566218041" lon="9.005163156647813"><ele>272.6</ele><time>2026-05-01T10:27:56Z</time></trkpt><trkpt lat="39.65458107861749" lon="9.005202928122339"><ele>272.0</ele><time>2026-05-01T10:27:57Z</time></trkpt><trkpt lat="39.6544865875567" lon="9.005228345021635"><ele>269.8</ele><time>2026-05-01T10:27:58Z</time></trkpt><trkpt lat="39.65438905276391" lon="9.005231835669594"><ele>267.6</ele><time>2026-05-01T10:27:59Z</time></trkpt><trkpt lat="39.65429989899984" lon="9.005253901366356"><ele>265.40000000000003</ele><time>2026-05-01T10:28:00Z</time></trkpt><trkpt lat="39.65420451438322" lon="9.00527750924662"><ele>263.2</ele><time>2026-05-01T10:28:01Z</time></trkpt><trkpt lat="39.65411078047169" lon="9.0053007970165"><ele>261.0</ele><time>2026-05-01T10:28:02Z</time></trkpt><trkpt lat="39.65402098558448" lon="9.005324253858475"><ele>261.0</ele><time>2026-05-01T10:28:03Z</time></trkpt><trkpt lat="39.653940371784785" lon="9.005348183329659"><ele>261.0</ele><time>2026-05-01T10:28:04Z</time></trkpt><trkpt lat="39.65387006717208" lon="9.005358412665942"><ele>261.0</ele><time>2026-05-01T10:28:05Z</time></trkpt><trkpt lat="39.653805630715695" lon="9.005345495155012"><ele>261.0</ele><time>2026-05-01T10:28:06Z</time></trkpt><trkpt lat="39.653745506769965" lon="9.005315629814325"><ele>261.0</ele><time>2026-05-01T10:28:07Z</time></trkpt><trkpt lat="39.65370382471572" lon="9.00525406617291"><ele>261.0</ele><time>2026-05-01T10:28:08Z</time></trkpt><trkpt lat="39.65367011418529" lon="9.005160646705281"><ele>261.0</ele><time>2026-05-01T10:28:09Z</time></trkpt><trkpt lat="39.65363127517519" lon="9.005058232444473"><ele>260.8</ele><time>2026-05-01T10:28:10Z</time></trkpt><trkpt lat="39.65359622933905" lon="9.004962086924474"><ele>260.6</ele><time>2026-05-01T10:28:11Z</time></trkpt><trkpt lat="39.65356119524307" lon="9.004858292224784"><ele>260.4</ele><time>2026-05-01T10:28:12Z</time></trkpt><trkpt lat="39.65350875166645" lon="9.004748747168339"><ele>260.2</ele><time>2026-05-01T10:28:13Z</time></trkpt><trkpt lat="39.653467722585404" lon="9.004615486286543"><ele>260.0</ele><time>2026-05-01T10:28:14Z</time></trkpt><trkpt lat="39.6534219256391" lon="9.004489234074125"><ele>260.0</ele><time>2026-05-01T10:28:15Z</time></trkpt><trkpt lat="39.65337214675756" lon="9.004384665178062"><ele>260.0</ele><time>2026-05-01T10:28:16Z</time></trkpt><trkpt lat="39.65331068275203" lon="9.004300532124489"><ele>260.0</ele><time>2026-05-01T10:28:17Z</time></trkpt><trkpt lat="39.65322632006589" lon="9.004233968330901"><ele>260.0</ele><time>2026-05-01T10:28:18Z</time></trkpt><trkpt lat="39.65313957956902" lon="9.004155465082972"><ele>260.0</ele><time>2026-05-01T10:28:19Z</time></trkpt><trkpt lat="39.65304853392833" lon="9.004078451389063"><ele>260.0</ele><time>2026-05-01T10:28:20Z</time></trkpt><trkpt lat="39.652947857202165" lon="9.004024387715807"><ele>260.0</ele><time>2026-05-01T10:28:21Z</time></trkpt><trkpt lat="39.652823030755066" lon="9.003994353279746"><ele>260.0</ele><time>2026-05-01T10:28:22Z</time></trkpt><trkpt lat="39.652707662957894" lon="9.003936003936357"><ele>260.0</ele><time>2026-05-01T10:28:23Z</time></trkpt><trkpt lat="39.65258800438169" lon="9.003897511103919"><ele>260.0</ele><time>2026-05-01T10:28:24Z</time></trkpt><trkpt lat="39.65247549663506" lon="9.00386529718696"><ele>260.0</ele><time>2026-05-01T10:28:25Z</time></trkpt><trkpt lat="39.65235553617573" lon="9.003867468032553"><ele>260.0</ele><time>2026-05-01T10:28:26Z</time></trkpt><trkpt lat="39.652240838276484" lon="9.003879668369386"><ele>260.0</ele><time>2026-05-01T10:28:27Z</time></trkpt><trkpt lat="39.65213131580671" lon="9.003893033723163"><ele>260.0</ele><time>2026-05-01T10:28:28Z</time></trkpt><trkpt lat="39.65204466551765" lon="9.003914981742243"><ele>260.0</ele><time>2026-05-01T10:28:29Z</time></trkpt><trkpt lat="39.651979171100095" lon="9.003917865035186"><ele>260.0</ele><time>2026-05-01T10:28:30Z</time></trkpt><trkpt lat="39.651862367938726" lon="9.003843396980928"><ele>260.0</ele><time>2026-05-01T10:28:32Z</time></trkpt><trkpt lat="39.65179504933213" lon="9.003779800192993"><ele>260.0</ele><time>2026-05-01T10:28:33Z</time></trkpt><trkpt lat="39.6517641667602" lon="9.003667227381662"><ele>262.0</ele><time>2026-05-01T10:28:34Z</time></trkpt><trkpt lat="39.65171516596546" lon="9.003560961096452"><ele>264.0</ele><time>2026-05-01T10:28:35Z</time></trkpt><trkpt lat="39.65165248441554" lon="9.003461733008804"><ele>266.0</ele><time>2026-05-01T10:28:36Z</time></trkpt><trkpt lat="39.65158882594417" lon="9.003342240199675"><ele>268.0</ele><time>2026-05-01T10:28:37Z</time></trkpt><trkpt lat="39.65150989725884" lon="9.00321788184202"><ele>270.0</ele><time>2026-05-01T10:28:38Z</time></trkpt><trkpt lat="39.651411859242685" lon="9.003095108513708"><ele>271.0</ele><time>2026-05-01T10:28:39Z</time></trkpt><trkpt lat="39.65132261759736" lon="9.002951060101267"><ele>272.0</ele><time>2026-05-01T10:28:40Z</time></trkpt><trkpt lat="39.65124543801064" lon="9.00283670291434"><ele>273.0</ele><time>2026-05-01T10:28:41Z</time></trkpt><trkpt lat="39.65117500298523" lon="9.002766478796921"><ele>274.0</ele><time>2026-05-01T10:28:42Z</time></trkpt><trkpt lat="39.651121238997504" lon="9.002700956365944"><ele>275.0</ele><time>2026-05-01T10:28:43Z</time></trkpt><trkpt lat="39.65107865161317" lon="9.002623585152431"><ele>275.2</ele><time>2026-05-01T10:28:45Z</time></trkpt><trkpt lat="39.65102034418525" lon="9.002679489379819"><ele>275.4</ele><time>2026-05-01T10:28:46Z</time></trkpt><trkpt lat="39.650902199712455" lon="9.00276743137017"><ele>275.6</ele><time>2026-05-01T10:28:47.999Z</time></trkpt><trkpt lat="39.65083123543735" lon="9.002848442557204"><ele>275.8</ele><time>2026-05-01T10:28:48.999Z</time></trkpt><trkpt lat="39.650754746852506" lon="9.002939234568721"><ele>276.0</ele><time>2026-05-01T10:28:49.999Z</time></trkpt><trkpt lat="39.65067618258085" lon="9.00303802157435"><ele>276.0</ele><time>2026-05-01T10:28:50.999Z</time></trkpt><trkpt lat="39.65059548168473" lon="9.003147943330363"><ele>276.0</ele><time>2026-05-01T10:28:51.999Z</time></trkpt><trkpt lat="39.65051596114514" lon="9.003264971315627"><ele>276.0</ele><time>2026-05-01T10:28:52.999Z</time></trkpt><trkpt lat="39.65045359442456" lon="9.003401831542854"><ele>276.0</ele><time>2026-05-01T10:28:53.999Z</time></trkpt><trkpt lat="39.65037266198339" lon="9.003541188495097"><ele>275.3333333333333</ele><time>2026-05-01T10:28:54.999Z</time></trkpt><trkpt lat="39.65025944083151" lon="9.00368555136888"><ele>274.66666666666663</ele><time>2026-05-01T10:28:55.999Z</time></trkpt><trkpt lat="39.65013994780314" lon="9.00386255359354"><ele>274.0</ele><time>2026-05-01T10:28:56.999Z</time></trkpt><trkpt lat="39.6500113428855" lon="9.004051896804315"><ele>275.3333333333333</ele><time>2026-05-01T10:28:57.999Z</time></trkpt><trkpt lat="39.649912891814274" lon="9.004224118975898"><ele>276.6666666666667</ele><time>2026-05-01T10:28:58.999Z</time></trkpt><trkpt lat="39.649841214801285" lon="9.004397512361743"><ele>278.0</ele><time>2026-05-01T10:28:59.999Z</time></trkpt><trkpt lat="39.64975793478907" lon="9.004595274639149"><ele>278.0</ele><time>2026-05-01T10:29:00.999Z</time></trkpt><trkpt lat="39.649674354051726" lon="9.004789195231236"><ele>278.0</ele><time>2026-05-01T10:29:01.999Z</time></trkpt><trkpt lat="39.649587709624036" lon="9.004976188282782"><ele>278.0</ele><time>2026-05-01T10:29:02.999Z</time></trkpt><trkpt lat="39.64948217328864" lon="9.005117466426068"><ele>279.6666666666667</ele><time>2026-05-01T10:29:03.999Z</time></trkpt><trkpt lat="39.64937443398201" lon="9.005236837808615"><ele>281.3333333333333</ele><time>2026-05-01T10:29:04.999Z</time></trkpt><trkpt lat="39.649244554145234" lon="9.005356151709568"><ele>283.0</ele><time>2026-05-01T10:29:05.999Z</time></trkpt><trkpt lat="39.64909111380413" lon="9.005480846139996"><ele>283.0</ele><time>2026-05-01T10:29:06.999Z</time></trkpt><trkpt lat="39.64893078807886" lon="9.005609407164917"><ele>283.0</ele><time>2026-05-01T10:29:07.999Z</time></trkpt><trkpt lat="39.648778024121235" lon="9.005731327850503"><ele>283.0</ele><time>2026-05-01T10:29:08.999Z</time></trkpt><trkpt lat="39.64864756536236" lon="9.00583062349786"><ele>284.2</ele><time>2026-05-01T10:29:09.999Z</time></trkpt><trkpt lat="39.648535795780944" lon="9.005915694546482"><ele>285.4</ele><time>2026-05-01T10:29:10.999Z</time></trkpt><trkpt lat="39.64844852784644" lon="9.00598376608073"><ele>286.59999999999997</ele><time>2026-05-01T10:29:11.999Z</time></trkpt><trkpt lat="39.64838860522259" lon="9.006031376170917"><ele>287.8</ele><time>2026-05-01T10:29:12.999Z</time></trkpt><trkpt lat="39.648305338858364" lon="9.006097533487743"><ele>289.0</ele><time>2026-05-01T10:29:14.999Z</time></trkpt><trkpt lat="39.64822742143488" lon="9.006088929521932"><ele>289.0</ele><time>2026-05-01T10:29:17.999Z</time></trkpt><trkpt lat="39.648184153215105" lon="9.005944052102171"><ele>289.0</ele><time>2026-05-01T10:29:19.999Z</time></trkpt><trkpt lat="39.64815134412626" lon="9.005855379442545"><ele>289.0</ele><time>2026-05-01T10:29:20.999Z</time></trkpt><trkpt lat="39.64811736080163" lon="9.005774288324401"><ele>289.0</ele><time>2026-05-01T10:29:21.999Z</time></trkpt><trkpt lat="39.648078801720374" lon="9.00568487095915"><ele>289.0</ele><time>2026-05-01T10:29:22.999Z</time></trkpt><trkpt lat="39.647954629215135" lon="9.005636815837892"><ele>288.75</ele><time>2026-05-01T10:29:23.999Z</time></trkpt><trkpt lat="39.6478450991627" lon="9.0055658272218"><ele>288.5</ele><time>2026-05-01T10:29:24.999Z</time></trkpt><trkpt lat="39.64771521461163" lon="9.00550391894951"><ele>288.25</ele><time>2026-05-01T10:29:25.999Z</time></trkpt><trkpt lat="39.64757551079973" lon="9.005428891229021"><ele>288.0</ele><time>2026-05-01T10:29:26.999Z</time></trkpt><trkpt lat="39.64742545833449" lon="9.005340078530043"><ele>290.2</ele><time>2026-05-01T10:29:27.999Z</time></trkpt><trkpt lat="39.64730249989373" lon="9.005275585581492"><ele>292.4</ele><time>2026-05-01T10:29:29.001Z</time></trkpt><trkpt lat="39.64720520440961" lon="9.005217085042048"><ele>294.59999999999997</ele><time>2026-05-01T10:29:30.001Z</time></trkpt><trkpt lat="39.647117272979486" lon="9.005158923652155"><ele>296.8</ele><time>2026-05-01T10:29:31Z</time></trkpt><trkpt lat="39.647048713472685" lon="9.005117444459277"><ele>299.0</ele><time>2026-05-01T10:29:32Z</time></trkpt><trkpt lat="39.64696161341385" lon="9.00503514403545"><ele>298.59999999999997</ele><time>2026-05-01T10:29:34Z</time></trkpt><trkpt lat="39.64689112452713" lon="9.004999625349217"><ele>298.2</ele><time>2026-05-01T10:29:37Z</time></trkpt><trkpt lat="39.64681307360096" lon="9.004955651356664"><ele>297.79999999999995</ele><time>2026-05-01T10:29:41Z</time></trkpt><trkpt lat="39.6467361981872" lon="9.005101633500992"><ele>297.4</ele><time>2026-05-01T10:29:42Z</time></trkpt><trkpt lat="39.64668577704647" lon="9.005217620923563"><ele>297.0</ele><time>2026-05-01T10:29:43Z</time></trkpt><trkpt lat="39.646606755907676" lon="9.005322000296188"><ele>297.0</ele><time>2026-05-01T10:29:44Z</time></trkpt><trkpt lat="39.64653307752986" lon="9.005447798185207"><ele>297.0</ele><time>2026-05-01T10:29:45Z</time></trkpt><trkpt lat="39.646463088834516" lon="9.005567296855547"><ele>297.0</ele><time>2026-05-01T10:29:46Z</time></trkpt><trkpt lat="39.64639304623" lon="9.005684955993708"><ele>297.0</ele><time>2026-05-01T10:29:47Z</time></trkpt><trkpt lat="39.646327951138325" lon="9.005828040343742"><ele>296.6666666666667</ele><time>2026-05-01T10:29:48Z</time></trkpt><trkpt lat="39.64623430350466" lon="9.005976196113414"><ele>296.33333333333337</ele><time>2026-05-01T10:29:49Z</time></trkpt><trkpt lat="39.64613537405954" lon="9.00614053722743"><ele>296.0</ele><time>2026-05-01T10:29:50Z</time></trkpt><trkpt lat="39.64603204031036" lon="9.006315523768528"><ele>294.0</ele><time>2026-05-01T10:29:51Z</time></trkpt><trkpt lat="39.64591587878652" lon="9.006480236631871"><ele>292.0</ele><time>2026-05-01T10:29:52Z</time></trkpt><trkpt lat="39.64581318970907" lon="9.006650099766869"><ele>290.0</ele><time>2026-05-01T10:29:53Z</time></trkpt><trkpt lat="39.64570952148791" lon="9.006821582562498"><ele>289.6666666666667</ele><time>2026-05-01T10:29:54Z</time></trkpt><trkpt lat="39.64561037199287" lon="9.00699139903774"><ele>289.3333333333333</ele><time>2026-05-01T10:29:55Z</time></trkpt><trkpt lat="39.64551636956606" lon="9.007153059558508"><ele>289.0</ele><time>2026-05-01T10:29:56Z</time></trkpt><trkpt lat="39.64541518731642" lon="9.007310495588976"><ele>289.0</ele><time>2026-05-01T10:29:57Z</time></trkpt><trkpt lat="39.64531195737169" lon="9.007445315089974"><ele>289.0</ele><time>2026-05-01T10:29:58Z</time></trkpt><trkpt lat="39.645206289771735" lon="9.007565411180071"><ele>289.0</ele><time>2026-05-01T10:29:59Z</time></trkpt><trkpt lat="39.64509674221048" lon="9.007682410463065"><ele>289.0</ele><time>2026-05-01T10:30:00Z</time></trkpt><trkpt lat="39.644992787015774" lon="9.007813471426472"><ele>287.5</ele><time>2026-05-01T10:30:01Z</time></trkpt><trkpt lat="39.64487296063267" lon="9.007928222855679"><ele>286.0</ele><time>2026-05-01T10:30:02Z</time></trkpt><trkpt lat="39.64476829253659" lon="9.00804740590709"><ele>284.5</ele><time>2026-05-01T10:30:03Z</time></trkpt><trkpt lat="39.64465429322893" lon="9.008140928002007"><ele>283.0</ele><time>2026-05-01T10:30:04Z</time></trkpt><trkpt lat="39.64455653556816" lon="9.008242792565179"><ele>282.0</ele><time>2026-05-01T10:30:05Z</time></trkpt><trkpt lat="39.64447721405445" lon="9.008348067746745"><ele>281.0</ele><time>2026-05-01T10:30:06Z</time></trkpt><trkpt lat="39.64437979572185" lon="9.00842386416927"><ele>280.0</ele><time>2026-05-01T10:30:07Z</time></trkpt><trkpt lat="39.644297615299315" lon="9.008508057387571"><ele>279.0</ele><time>2026-05-01T10:30:08Z</time></trkpt><trkpt lat="39.64423003116653" lon="9.008604616180294"><ele>278.0</ele><time>2026-05-01T10:30:09Z</time></trkpt><trkpt lat="39.64414739454557" lon="9.008663218705468"><ele>277.6</ele><time>2026-05-01T10:30:10Z</time></trkpt><trkpt lat="39.64407209532382" lon="9.008740903637952"><ele>277.20000000000005</ele><time>2026-05-01T10:30:11Z</time></trkpt><trkpt lat="39.64400093415576" lon="9.008815943976938"><ele>276.8</ele><time>2026-05-01T10:30:12Z</time></trkpt><trkpt lat="39.643931632971" lon="9.008890210401109"><ele>276.40000000000003</ele><time>2026-05-01T10:30:13Z</time></trkpt><trkpt lat="39.643873821721115" lon="9.008979885769"><ele>276.0</ele><time>2026-05-01T10:30:14Z</time></trkpt><trkpt lat="39.64379262411925" lon="9.00903788077529"><ele>276.0</ele><time>2026-05-01T10:30:15Z</time></trkpt><trkpt lat="39.643742265794096" lon="9.009112623427143"><ele>276.0</ele><time>2026-05-01T10:30:16Z</time></trkpt><trkpt lat="39.6436786564741" lon="9.009146847201107"><ele>276.0</ele><time>2026-05-01T10:30:17Z</time></trkpt><trkpt lat="39.6436166191922" lon="9.009171453892305"><ele>276.0</ele><time>2026-05-01T10:30:18Z</time></trkpt><trkpt lat="39.64350710583523" lon="9.009212073305202"><ele>276.0</ele><time>2026-05-01T10:30:20Z</time></trkpt><trkpt lat="39.64340972765236" lon="9.009245967900764"><ele>276.0</ele><time>2026-05-01T10:30:22Z</time></trkpt><trkpt lat="39.64336320042749" lon="9.009062324613213"><ele>276.0</ele><time>2026-05-01T10:30:23Z</time></trkpt><trkpt lat="39.64329152690389" lon="9.008919398570196"><ele>276.0</ele><time>2026-05-01T10:30:25Z</time></trkpt><trkpt lat="39.64324361828829" lon="9.008835739327731"><ele>276.0</ele><time>2026-05-01T10:30:26Z</time></trkpt><trkpt lat="39.6432630078621" lon="9.008677450817451"><ele>276.0</ele><time>2026-05-01T10:30:27Z</time></trkpt><trkpt lat="39.64327242740355" lon="9.008529898893439"><ele>276.0</ele><time>2026-05-01T10:30:28Z</time></trkpt><trkpt lat="39.64326964144141" lon="9.008366395020877"><ele>276.0</ele><time>2026-05-01T10:30:29Z</time></trkpt><trkpt lat="39.64325153699784" lon="9.008192247367719"><ele>276.0</ele><time>2026-05-01T10:30:30Z</time></trkpt><trkpt lat="39.64323510740687" lon="9.008011482125152"><ele>276.0</ele><time>2026-05-01T10:30:31Z</time></trkpt><trkpt lat="39.6431869034029" lon="9.007816485198607"><ele>276.0</ele><time>2026-05-01T10:30:32Z</time></trkpt><trkpt lat="39.64312151673536" lon="9.007612731289932"><ele>275.6666666666667</ele><time>2026-05-01T10:30:33Z</time></trkpt><trkpt lat="39.643031585358244" lon="9.007415347201261"><ele>275.33333333333337</ele><time>2026-05-01T10:30:34Z</time></trkpt><trkpt lat="39.642937602435964" lon="9.007204783495453"><ele>275.0</ele><time>2026-05-01T10:30:35Z</time></trkpt><trkpt lat="39.642831451896676" lon="9.006977595617261"><ele>273.33333333333337</ele><time>2026-05-01T10:30:36Z</time></trkpt><trkpt lat="39.642731665998625" lon="9.006745835949575"><ele>271.6666666666667</ele><time>2026-05-01T10:30:37Z</time></trkpt><trkpt lat="39.64264160911642" lon="9.006510784710832"><ele>270.0</ele><time>2026-05-01T10:30:38Z</time></trkpt><trkpt lat="39.642545361080096" lon="9.006288496439929"><ele>269.6666666666667</ele><time>2026-05-01T10:30:39Z</time></trkpt><trkpt lat="39.642447408015244" lon="9.00606422909395"><ele>269.33333333333337</ele><time>2026-05-01T10:30:40Z</time></trkpt><trkpt lat="39.64234774337015" lon="9.005831610134607"><ele>269.0</ele><time>2026-05-01T10:30:41Z</time></trkpt><trkpt lat="39.642247522076524" lon="9.005600767132481"><ele>270.6666666666667</ele><time>2026-05-01T10:30:41.999Z</time></trkpt><trkpt lat="39.64215149386975" lon="9.005364801889726"><ele>272.3333333333333</ele><time>2026-05-01T10:30:42.999Z</time></trkpt><trkpt lat="39.64205865402736" lon="9.005144464209767"><ele>274.0</ele><time>2026-05-01T10:30:43.999Z</time></trkpt><trkpt lat="39.64196369911225" lon="9.004910961962219"><ele>275.3333333333333</ele><time>2026-05-01T10:30:44.999Z</time></trkpt><trkpt lat="39.64187304931143" lon="9.004698137058897"><ele>276.6666666666667</ele><time>2026-05-01T10:30:45.999Z</time></trkpt><trkpt lat="39.64178614532081" lon="9.004485646136494"><ele>278.0</ele><time>2026-05-01T10:30:46.999Z</time></trkpt><trkpt lat="39.641701885962064" lon="9.00428252294509"><ele>278.6666666666667</ele><time>2026-05-01T10:30:47.999Z</time></trkpt><trkpt lat="39.64162612189168" lon="9.004084277224239"><ele>279.3333333333333</ele><time>2026-05-01T10:30:48.999Z</time></trkpt><trkpt lat="39.641553269200365" lon="9.00389500463969"><ele>280.0</ele><time>2026-05-01T10:30:49.999Z</time></trkpt><trkpt lat="39.641483957502174" lon="9.003709197786485"><ele>280.0</ele><time>2026-05-01T10:30:50.999Z</time></trkpt><trkpt lat="39.641409974007644" lon="9.0035304612616"><ele>280.0</ele><time>2026-05-01T10:30:51.999Z</time></trkpt><trkpt lat="39.641345459416435" lon="9.003361078668823"><ele>280.0</ele><time>2026-05-01T10:30:52.999Z</time></trkpt><trkpt lat="39.64129917686204" lon="9.003199975515866"><ele>280.0</ele><time>2026-05-01T10:30:53.999Z</time></trkpt><trkpt lat="39.641272264673546" lon="9.003045532956609"><ele>280.0</ele><time>2026-05-01T10:30:54.999Z</time></trkpt><trkpt lat="39.64127964184218" lon="9.00288208105367"><ele>280.0</ele><time>2026-05-01T10:30:55.999Z</time></trkpt><trkpt lat="39.64131741253936" lon="9.002718549490565"><ele>280.0</ele><time>2026-05-01T10:30:56.999Z</time></trkpt><trkpt lat="39.641385395700325" lon="9.002574021182658"><ele>280.0</ele><time>2026-05-01T10:30:57.999Z</time></trkpt><trkpt lat="39.64146647195007" lon="9.002435512901835"><ele>280.0</ele><time>2026-05-01T10:30:58.999Z</time></trkpt><trkpt lat="39.64154770100834" lon="9.00229548283635"><ele>280.0</ele><time>2026-05-01T10:30:59.999Z</time></trkpt><trkpt lat="39.64162226135793" lon="9.002148976723475"><ele>280.0</ele><time>2026-05-01T10:31:00.999Z</time></trkpt><trkpt lat="39.64169612541459" lon="9.002006515962451"><ele>280.0</ele><time>2026-05-01T10:31:01.999Z</time></trkpt><trkpt lat="39.64176373323945" lon="9.00187741412711"><ele>280.0</ele><time>2026-05-01T10:31:02.999Z</time></trkpt><trkpt lat="39.641822814808094" lon="9.001758554778633"><ele>280.0</ele><time>2026-05-01T10:31:03.999Z</time></trkpt><trkpt lat="39.64187745788718" lon="9.001653549683454"><ele>280.0</ele><time>2026-05-01T10:31:04.999Z</time></trkpt><trkpt lat="39.6419328390294" lon="9.001555502971469"><ele>280.0</ele><time>2026-05-01T10:31:05.999Z</time></trkpt><trkpt lat="39.641985874584016" lon="9.001457738253412"><ele>280.0</ele><time>2026-05-01T10:31:06.999Z</time></trkpt><trkpt lat="39.64203550705439" lon="9.001363707984655"><ele>279.4</ele><time>2026-05-01T10:31:07.999Z</time></trkpt><trkpt lat="39.642081429841745" lon="9.001279731077288"><ele>278.8</ele><time>2026-05-01T10:31:08.999Z</time></trkpt><trkpt lat="39.64212165352281" lon="9.001200004483762"><ele>278.2</ele><time>2026-05-01T10:31:09.999Z</time></trkpt><trkpt lat="39.64215480965154" lon="9.001126489103351"><ele>277.6</ele><time>2026-05-01T10:31:10.999Z</time></trkpt><trkpt lat="39.642173476871875" lon="9.001046701744448"><ele>277.0</ele><time>2026-05-01T10:31:11.999Z</time></trkpt><trkpt lat="39.642055272737494" lon="9.000884198847938"><ele>277.0</ele><time>2026-05-01T10:31:14.999Z</time></trkpt><trkpt lat="39.64196994142863" lon="9.000863064334759"><ele>277.0</ele><time>2026-05-01T10:31:15.999Z</time></trkpt><trkpt lat="39.641878283435595" lon="9.00084194196873"><ele>277.0</ele><time>2026-05-01T10:31:16.999Z</time></trkpt><trkpt lat="39.641783118230784" lon="9.000811568443643"><ele>277.0</ele><time>2026-05-01T10:31:17.999Z</time></trkpt><trkpt lat="39.64168510304715" lon="9.000779455637351"><ele>277.0</ele><time>2026-05-01T10:31:18.999Z</time></trkpt><trkpt lat="39.64158156347426" lon="9.00076461700997"><ele>277.75</ele><time>2026-05-01T10:31:19.999Z</time></trkpt><trkpt lat="39.641480478685885" lon="9.000753518361439"><ele>278.5</ele><time>2026-05-01T10:31:20.999Z</time></trkpt><trkpt lat="39.64137547787589" lon="9.000712776524548"><ele>279.25</ele><time>2026-05-01T10:31:21.999Z</time></trkpt><trkpt lat="39.64125402231386" lon="9.00068095301551"><ele>280.0</ele><time>2026-05-01T10:31:22.999Z</time></trkpt><trkpt lat="39.64112235472965" lon="9.000634744038257"><ele>281.0</ele><time>2026-05-01T10:31:23.999Z</time></trkpt><trkpt lat="39.640985597944095" lon="9.000574150061404"><ele>282.0</ele><time>2026-05-01T10:31:24.999Z</time></trkpt><trkpt lat="39.640850261749726" lon="9.000491473438384"><ele>283.0</ele><time>2026-05-01T10:31:25.999Z</time></trkpt><trkpt lat="39.64069668181459" lon="9.0004333340714"><ele>283.0</ele><time>2026-05-01T10:31:26.999Z</time></trkpt><trkpt lat="39.640529323016565" lon="9.000345112325107"><ele>283.0</ele><time>2026-05-01T10:31:27.999Z</time></trkpt><trkpt lat="39.6403503547705" lon="9.000213534797716"><ele>283.0</ele><time>2026-05-01T10:31:28.999Z</time></trkpt><trkpt lat="39.640139952413584" lon="9.00010103648837"><ele>283.0</ele><time>2026-05-01T10:31:29.999Z</time></trkpt><trkpt lat="39.63992495752899" lon="8.999946128495912"><ele>283.0</ele><time>2026-05-01T10:31:30.999Z</time></trkpt><trkpt lat="39.63969807008921" lon="8.999802710087971"><ele>283.0</ele><time>2026-05-01T10:31:31.999Z</time></trkpt><trkpt lat="39.639499262806545" lon="8.999698100824451"><ele>283.0</ele><time>2026-05-01T10:31:32.999Z</time></trkpt><trkpt lat="39.6393261696948" lon="8.99960940240965"><ele>283.0</ele><time>2026-05-01T10:31:33.999Z</time></trkpt><trkpt lat="39.639168870382846" lon="8.999509678013107"><ele>282.3333333333333</ele><time>2026-05-01T10:31:35Z</time></trkpt><trkpt lat="39.6390182146004" lon="8.999440936757294"><ele>281.6666666666667</ele><time>2026-05-01T10:31:36Z</time></trkpt><trkpt lat="39.63886788427735" lon="8.999393782222207"><ele>281.0</ele><time>2026-05-01T10:31:37Z</time></trkpt><trkpt lat="39.63872026672766" lon="8.999328238523802"><ele>280.6666666666667</ele><time>2026-05-01T10:31:38Z</time></trkpt><trkpt lat="39.638554509153835" lon="8.999237598621596"><ele>280.3333333333333</ele><time>2026-05-01T10:31:39Z</time></trkpt><trkpt lat="39.63837044019676" lon="8.999166429043228"><ele>280.0</ele><time>2026-05-01T10:31:40Z</time></trkpt><trkpt lat="39.638221774810354" lon="8.999108723633002"><ele>280.5</ele><time>2026-05-01T10:31:41Z</time></trkpt><trkpt lat="39.63809745645848" lon="8.999054130289496"><ele>281.0</ele><time>2026-05-01T10:31:42Z</time></trkpt><trkpt lat="39.637972125076274" lon="8.999042232961727"><ele>281.5</ele><time>2026-05-01T10:31:43Z</time></trkpt><trkpt lat="39.63785591596696" lon="8.99903527058836"><ele>282.0</ele><time>2026-05-01T10:31:44Z</time></trkpt><trkpt lat="39.63772812839284" lon="8.999043257299716"><ele>281.0</ele><time>2026-05-01T10:31:45Z</time></trkpt><trkpt lat="39.637583964409316" lon="8.999066574397744"><ele>280.0</ele><time>2026-05-01T10:31:46Z</time></trkpt><trkpt lat="39.63743236937372" lon="8.999080785742354"><ele>279.0</ele><time>2026-05-01T10:31:47Z</time></trkpt><trkpt lat="39.637291911545326" lon="8.999120643858548"><ele>278.0</ele><time>2026-05-01T10:31:48Z</time></trkpt><trkpt lat="39.63717140149404" lon="8.999157933082273"><ele>278.0</ele><time>2026-05-01T10:31:49Z</time></trkpt><trkpt lat="39.63706661352951" lon="8.999183558449811"><ele>278.0</ele><time>2026-05-01T10:31:50Z</time></trkpt><trkpt lat="39.6369623661971" lon="8.99919721887643"><ele>278.0</ele><time>2026-05-01T10:31:51Z</time></trkpt><trkpt lat="39.63685115822546" lon="8.99919132252767"><ele>278.0</ele><time>2026-05-01T10:31:52Z</time></trkpt><trkpt lat="39.636731590196504" lon="8.999167698241944"><ele>278.0</ele><time>2026-05-01T10:31:53Z</time></trkpt><trkpt lat="39.63660631247078" lon="8.999129901890663"><ele>277.0</ele><time>2026-05-01T10:31:54Z</time></trkpt><trkpt lat="39.63646346443075" lon="8.999070517901108"><ele>276.0</ele><time>2026-05-01T10:31:55Z</time></trkpt><trkpt lat="39.63630482813867" lon="8.999000254411222"><ele>275.0</ele><time>2026-05-01T10:31:56Z</time></trkpt><trkpt lat="39.63612759236125" lon="8.998929664714815"><ele>275.0</ele><time>2026-05-01T10:31:57Z</time></trkpt><trkpt lat="39.635939496398876" lon="8.998884311672548"><ele>275.0</ele><time>2026-05-01T10:31:58Z</time></trkpt><trkpt lat="39.63573405347109" lon="8.998829399916534"><ele>275.0</ele><time>2026-05-01T10:31:59Z</time></trkpt><trkpt lat="39.635516896685985" lon="8.998783678788753"><ele>275.0</ele><time>2026-05-01T10:32:00Z</time></trkpt><trkpt lat="39.635292820670195" lon="8.998740505929455"><ele>275.0</ele><time>2026-05-01T10:32:01Z</time></trkpt><trkpt lat="39.635081212140264" lon="8.998686827132802"><ele>275.0</ele><time>2026-05-01T10:32:02Z</time></trkpt><trkpt lat="39.63489680370413" lon="8.998646609159545"><ele>275.0</ele><time>2026-05-01T10:32:03Z</time></trkpt><trkpt lat="39.63473086657817" lon="8.998606090129938"><ele>275.0</ele><time>2026-05-01T10:32:04Z</time></trkpt><trkpt lat="39.634555809802926" lon="8.998621132401974"><ele>275.0</ele><time>2026-05-01T10:32:05Z</time></trkpt><trkpt lat="39.63438567275019" lon="8.998649653095022"><ele>275.33333333333337</ele><time>2026-05-01T10:32:06Z</time></trkpt><trkpt lat="39.63422689279862" lon="8.99866942690444"><ele>275.6666666666667</ele><time>2026-05-01T10:32:07Z</time></trkpt><trkpt lat="39.63408294762013" lon="8.99864349659451"><ele>276.0</ele><time>2026-05-01T10:32:08Z</time></trkpt><trkpt lat="39.63392789671991" lon="8.998587307350213"><ele>276.0</ele><time>2026-05-01T10:32:09Z</time></trkpt><trkpt lat="39.63376125348556" lon="8.998514642601315"><ele>276.0</ele><time>2026-05-01T10:32:10Z</time></trkpt><trkpt lat="39.63358976220101" lon="8.998433988778283"><ele>276.0</ele><time>2026-05-01T10:32:11Z</time></trkpt><trkpt lat="39.63342587092256" lon="8.998325735186365"><ele>277.3333333333333</ele><time>2026-05-01T10:32:12Z</time></trkpt><trkpt lat="39.63325859655117" lon="8.998218629513989"><ele>278.66666666666663</ele><time>2026-05-01T10:32:13Z</time></trkpt><trkpt lat="39.63312434131039" lon="8.998063982573424"><ele>280.0</ele><time>2026-05-01T10:32:14Z</time></trkpt><trkpt lat="39.63301701115959" lon="8.997858862350922"><ele>280.0</ele><time>2026-05-01T10:32:15Z</time></trkpt><trkpt lat="39.63288723907329" lon="8.997664544106115"><ele>280.0</ele><time>2026-05-01T10:32:16Z</time></trkpt><trkpt lat="39.63277023796731" lon="8.997453203862849"><ele>280.0</ele><time>2026-05-01T10:32:17Z</time></trkpt><trkpt lat="39.632667240189555" lon="8.997234726852733"><ele>281.66666666666663</ele><time>2026-05-01T10:32:18Z</time></trkpt><trkpt lat="39.63256075174563" lon="8.997007254130944"><ele>283.3333333333333</ele><time>2026-05-01T10:32:19Z</time></trkpt><trkpt lat="39.63245942161465" lon="8.996762319190262"><ele>285.0</ele><time>2026-05-01T10:32:20Z</time></trkpt><trkpt lat="39.63235482461174" lon="8.996495908509665"><ele>285.5</ele><time>2026-05-01T10:32:21Z</time></trkpt><trkpt lat="39.63224667256422" lon="8.996209210972696"><ele>286.0</ele><time>2026-05-01T10:32:22Z</time></trkpt><trkpt lat="39.632130804423305" lon="8.995915087101546"><ele>287.5</ele><time>2026-05-01T10:32:23Z</time></trkpt><trkpt lat="39.63198076825202" lon="8.995629310113726"><ele>289.0</ele><time>2026-05-01T10:32:24Z</time></trkpt><trkpt lat="39.63184832122464" lon="8.995361820544844"><ele>290.0</ele><time>2026-05-01T10:32:25Z</time></trkpt><trkpt lat="39.631738423334326" lon="8.995134660347288"><ele>291.0</ele><time>2026-05-01T10:32:26Z</time></trkpt><trkpt lat="39.63165159662197" lon="8.994931187087797"><ele>292.0</ele><time>2026-05-01T10:32:27Z</time></trkpt><trkpt lat="39.631566222027914" lon="8.994753977183715"><ele>292.75</ele><time>2026-05-01T10:32:28Z</time></trkpt><trkpt lat="39.631485026352046" lon="8.994593128685633"><ele>293.5</ele><time>2026-05-01T10:32:29Z</time></trkpt><trkpt lat="39.6314029647965" lon="8.994452891459998"><ele>294.25</ele><time>2026-05-01T10:32:30Z</time></trkpt><trkpt lat="39.63134420416366" lon="8.994308279601347"><ele>295.0</ele><time>2026-05-01T10:32:31Z</time></trkpt><trkpt lat="39.631273246278575" lon="8.994205186611108"><ele>295.0</ele><time>2026-05-01T10:32:32Z</time></trkpt><trkpt lat="39.631210654502" lon="8.994108905405033"><ele>295.0</ele><time>2026-05-01T10:32:33Z</time></trkpt><trkpt lat="39.631163621420846" lon="8.994013861141468"><ele>295.0</ele><time>2026-05-01T10:32:34Z</time></trkpt><trkpt lat="39.631109049384385" lon="8.993943704229476"><ele>295.0</ele><time>2026-05-01T10:32:35Z</time></trkpt><trkpt lat="39.631061991177035" lon="8.993883362052706"><ele>295.0</ele><time>2026-05-01T10:32:36Z</time></trkpt><trkpt lat="39.63097973438164" lon="8.993797552584383"><ele>295.0</ele><time>2026-05-01T10:32:38Z</time></trkpt><trkpt lat="39.63092114042466" lon="8.993711288666747"><ele>295.0</ele><time>2026-05-01T10:32:40Z</time></trkpt><trkpt lat="39.630852070637" lon="8.993694864745"><ele>295.0</ele><time>2026-05-01T10:32:41.999Z</time></trkpt><trkpt lat="39.63076178965736" lon="8.99371440211857"><ele>295.0</ele><time>2026-05-01T10:32:43.999Z</time></trkpt><trkpt lat="39.63069739404269" lon="8.993627943979902"><ele>295.0</ele><time>2026-05-01T10:32:46.999Z</time></trkpt><trkpt lat="39.630630376196635" lon="8.993556965004855"><ele>295.0</ele><time>2026-05-01T10:32:48.999Z</time></trkpt><trkpt lat="39.63070627737294" lon="8.993220104715755"><ele>295.16666666666663</ele><time>2026-05-01T10:32:49.999Z</time></trkpt><trkpt lat="39.630740612327415" lon="8.993080014182727"><ele>295.3333333333333</ele><time>2026-05-01T10:32:51.999Z</time></trkpt><trkpt lat="39.630767152487195" lon="8.993002907876363"><ele>295.5</ele><time>2026-05-01T10:32:52.999Z</time></trkpt><trkpt lat="39.63081371431961" lon="8.99292957940884"><ele>295.6666666666667</ele><time>2026-05-01T10:32:53.999Z</time></trkpt><trkpt lat="39.63087702917088" lon="8.99286062191541"><ele>295.83333333333337</ele><time>2026-05-01T10:32:54.999Z</time></trkpt><trkpt lat="39.63094541476043" lon="8.992793673104703"><ele>296.0</ele><time>2026-05-01T10:32:55.999Z</time></trkpt><trkpt lat="39.631007156014626" lon="8.992726786851875"><ele>296.0</ele><time>2026-05-01T10:32:56.999Z</time></trkpt><trkpt lat="39.631063214152064" lon="8.992662027153463"><ele>296.0</ele><time>2026-05-01T10:32:57.999Z</time></trkpt><trkpt lat="39.631116355710695" lon="8.992605354374195"><ele>296.0</ele><time>2026-05-01T10:32:58.999Z</time></trkpt><trkpt lat="39.63117564194474" lon="8.992553699355872"><ele>296.0</ele><time>2026-05-01T10:32:59.999Z</time></trkpt><trkpt lat="39.631236602745055" lon="8.99250839161551"><ele>296.0</ele><time>2026-05-01T10:33:00.999Z</time></trkpt><trkpt lat="39.63130703797985" lon="8.99248045387011"><ele>296.0</ele><time>2026-05-01T10:33:01.999Z</time></trkpt><trkpt lat="39.63137791314098" lon="8.992454653693269"><ele>296.0</ele><time>2026-05-01T10:33:02.999Z</time></trkpt><trkpt lat="39.63145066755829" lon="8.992437099249072"><ele>295.83333333333337</ele><time>2026-05-01T10:33:03.999Z</time></trkpt><trkpt lat="39.63152421575879" lon="8.992417761127053"><ele>295.6666666666667</ele><time>2026-05-01T10:33:04.999Z</time></trkpt><trkpt lat="39.63160848535808" lon="8.992402903090953"><ele>295.5</ele><time>2026-05-01T10:33:05.999Z</time></trkpt><trkpt lat="39.631699967221344" lon="8.99239007812438"><ele>295.3333333333333</ele><time>2026-05-01T10:33:06.999Z</time></trkpt><trkpt lat="39.631776102652836" lon="8.992384040980834"><ele>295.16666666666663</ele><time>2026-05-01T10:33:07.999Z</time></trkpt><trkpt lat="39.63185529904208" lon="8.992389178456584"><ele>295.0</ele><time>2026-05-01T10:33:08.999Z</time></trkpt><trkpt lat="39.63194030619056" lon="8.992399957656668"><ele>294.8333333333333</ele><time>2026-05-01T10:33:09.999Z</time></trkpt><trkpt lat="39.63201543839506" lon="8.992407303940297"><ele>294.66666666666663</ele><time>2026-05-01T10:33:10.999Z</time></trkpt><trkpt lat="39.63208891382333" lon="8.992410502639885"><ele>294.5</ele><time>2026-05-01T10:33:11.999Z</time></trkpt><trkpt lat="39.63216192319341" lon="8.992427204405274"><ele>294.3333333333333</ele><time>2026-05-01T10:33:12.999Z</time></trkpt><trkpt lat="39.63224462750105" lon="8.992439973358598"><ele>294.1666666666667</ele><time>2026-05-01T10:33:13.999Z</time></trkpt><trkpt lat="39.63232137461378" lon="8.992457897609805"><ele>294.0</ele><time>2026-05-01T10:33:14.999Z</time></trkpt><trkpt lat="39.6324002837955" lon="8.99247597363312"><ele>294.0</ele><time>2026-05-01T10:33:15.999Z</time></trkpt><trkpt lat="39.632482174976424" lon="8.992482772945149"><ele>294.0</ele><time>2026-05-01T10:33:16.999Z</time></trkpt><trkpt lat="39.632549300456446" lon="8.992491416067056"><ele>294.0</ele><time>2026-05-01T10:33:17.999Z</time></trkpt><trkpt lat="39.63268316563178" lon="8.992511083850008"><ele>294.0</ele><time>2026-05-01T10:33:19.999Z</time></trkpt><trkpt lat="39.63275979753318" lon="8.992519150375923"><ele>294.0</ele><time>2026-05-01T10:33:20.999Z</time></trkpt><trkpt lat="39.632828551422236" lon="8.992511335729969"><ele>294.0</ele><time>2026-05-01T10:33:21.999Z</time></trkpt><trkpt lat="39.63289508063908" lon="8.99248871436636"><ele>293.5</ele><time>2026-05-01T10:33:22.999Z</time></trkpt><trkpt lat="39.63296941164942" lon="8.992469136604738"><ele>293.0</ele><time>2026-05-01T10:33:23.999Z</time></trkpt><trkpt lat="39.633091524143545" lon="8.992439210792517"><ele>292.5</ele><time>2026-05-01T10:33:25.999Z</time></trkpt><trkpt lat="39.63316338880606" lon="8.992428809528409"><ele>292.0</ele><time>2026-05-01T10:33:26.999Z</time></trkpt><trkpt lat="39.63323807522275" lon="8.992418874986916"><ele>291.5</ele><time>2026-05-01T10:33:27.999Z</time></trkpt><trkpt lat="39.63330099117734" lon="8.992407062972282"><ele>291.0</ele><time>2026-05-01T10:33:28.999Z</time></trkpt><trkpt lat="39.63336625341865" lon="8.992396716127063"><ele>291.0</ele><time>2026-05-01T10:33:29.999Z</time></trkpt><trkpt lat="39.63344014140901" lon="8.992391695460238"><ele>291.0</ele><time>2026-05-01T10:33:30.999Z</time></trkpt><trkpt lat="39.633513087261015" lon="8.992395866056071"><ele>291.0</ele><time>2026-05-01T10:33:31.999Z</time></trkpt><trkpt lat="39.63358138461577" lon="8.992408354758771"><ele>291.0</ele><time>2026-05-01T10:33:32.999Z</time></trkpt><trkpt lat="39.63369438144838" lon="8.992466046525216"><ele>291.0</ele><time>2026-05-01T10:33:34.999Z</time></trkpt><trkpt lat="39.63375053267825" lon="8.992516884420162"><ele>291.0</ele><time>2026-05-01T10:33:35.999Z</time></trkpt><trkpt lat="39.63384300668772" lon="8.992594993732387"><ele>291.5</ele><time>2026-05-01T10:33:37.999Z</time></trkpt><trkpt lat="39.63389940625628" lon="8.992656071155174"><ele>292.0</ele><time>2026-05-01T10:33:39.999Z</time></trkpt><trkpt lat="39.633887767777125" lon="8.992765147078893"><ele>292.5</ele><time>2026-05-01T10:33:42Z</time></trkpt><trkpt lat="39.63384946328148" lon="8.992843712023864"><ele>293.0</ele><time>2026-05-01T10:33:43Z</time></trkpt><trkpt lat="39.63381986709596" lon="8.992952933176158"><ele>293.5</ele><time>2026-05-01T10:33:44Z</time></trkpt><trkpt lat="39.63378772146135" lon="8.993079980122083"><ele>294.0</ele><time>2026-05-01T10:33:45Z</time></trkpt><trkpt lat="39.63376162855279" lon="8.993210904698493"><ele>294.0</ele><time>2026-05-01T10:33:46Z</time></trkpt><trkpt lat="39.6337287417457" lon="8.99333706730769"><ele>294.0</ele><time>2026-05-01T10:33:47Z</time></trkpt><trkpt lat="39.633684213085864" lon="8.993443834568764"><ele>294.0</ele><time>2026-05-01T10:33:48Z</time></trkpt><trkpt lat="39.63360136455906" lon="8.993545028576854"><ele>294.0</ele><time>2026-05-01T10:33:49Z</time></trkpt><trkpt lat="39.63352929004492" lon="8.993675348645022"><ele>294.0</ele><time>2026-05-01T10:33:50Z</time></trkpt><trkpt lat="39.633450910072746" lon="8.993821009810116"><ele>293.25</ele><time>2026-05-01T10:33:51Z</time></trkpt><trkpt lat="39.63338273315716" lon="8.993991783829578"><ele>292.5</ele><time>2026-05-01T10:33:52Z</time></trkpt><trkpt lat="39.633325555496256" lon="8.994179302691524"><ele>291.75</ele><time>2026-05-01T10:33:53Z</time></trkpt><trkpt lat="39.63327436627106" lon="8.994342381935526"><ele>291.0</ele><time>2026-05-01T10:33:54Z</time></trkpt><trkpt lat="39.633213690099055" lon="8.994488008581492"><ele>290.5</ele><time>2026-05-01T10:33:55Z</time></trkpt><trkpt lat="39.63317299648613" lon="8.99462405015157"><ele>290.0</ele><time>2026-05-01T10:33:56Z</time></trkpt><trkpt lat="39.63315886501954" lon="8.994780202256576"><ele>289.5</ele><time>2026-05-01T10:33:57Z</time></trkpt><trkpt lat="39.633159322833365" lon="8.994957874009554"><ele>289.0</ele><time>2026-05-01T10:33:58Z</time></trkpt><trkpt lat="39.63316172935693" lon="8.995135195765023"><ele>288.59999999999997</ele><time>2026-05-01T10:33:59Z</time></trkpt><trkpt lat="39.63314469840384" lon="8.995283193448383"><ele>288.2</ele><time>2026-05-01T10:34:00Z</time></trkpt><trkpt lat="39.633122021784025" lon="8.995399585428572"><ele>287.79999999999995</ele><time>2026-05-01T10:34:01Z</time></trkpt><trkpt lat="39.63308711515356" lon="8.995522138434914"><ele>287.4</ele><time>2026-05-01T10:34:02Z</time></trkpt><trkpt lat="39.63306394518207" lon="8.995647175245178"><ele>287.0</ele><time>2026-05-01T10:34:03Z</time></trkpt><trkpt lat="39.633027664479776" lon="8.99574917539332"><ele>286.4</ele><time>2026-05-01T10:34:04Z</time></trkpt><trkpt lat="39.633017313553815" lon="8.995871893972714"><ele>285.79999999999995</ele><time>2026-05-01T10:34:05Z</time></trkpt><trkpt lat="39.63302186641455" lon="8.996023227298686"><ele>285.2</ele><time>2026-05-01T10:34:06Z</time></trkpt><trkpt lat="39.6330222821637" lon="8.99617100503559"><ele>284.59999999999997</ele><time>2026-05-01T10:34:07Z</time></trkpt><trkpt lat="39.63301001252688" lon="8.996299405122574"><ele>284.0</ele><time>2026-05-01T10:34:08Z</time></trkpt><trkpt lat="39.63300222123101" lon="8.996420389815228"><ele>284.0</ele><time>2026-05-01T10:34:09Z</time></trkpt><trkpt lat="39.63298735823253" lon="8.996538270627449"><ele>284.0</ele><time>2026-05-01T10:34:10Z</time></trkpt><trkpt lat="39.63297956179968" lon="8.996672204262953"><ele>284.0</ele><time>2026-05-01T10:34:11Z</time></trkpt><trkpt lat="39.63295994817009" lon="8.996795162881572"><ele>284.0</ele><time>2026-05-01T10:34:12Z</time></trkpt><trkpt lat="39.63294854262058" lon="8.996901537570977"><ele>284.0</ele><time>2026-05-01T10:34:13Z</time></trkpt><trkpt lat="39.63294887541329" lon="8.997012565650161"><ele>283.6666666666667</ele><time>2026-05-01T10:34:14Z</time></trkpt><trkpt lat="39.63294777991866" lon="8.997125949261806"><ele>283.33333333333337</ele><time>2026-05-01T10:34:15Z</time></trkpt><trkpt lat="39.63295615533363" lon="8.997236942094663"><ele>283.0</ele><time>2026-05-01T10:34:16Z</time></trkpt><trkpt lat="39.6329609323105" lon="8.997337143579982"><ele>282.6666666666667</ele><time>2026-05-01T10:34:17Z</time></trkpt><trkpt lat="39.63296748147834" lon="8.997435241526725"><ele>282.3333333333333</ele><time>2026-05-01T10:34:18Z</time></trkpt><trkpt lat="39.6329676587918" lon="8.99757392082499"><ele>282.0</ele><time>2026-05-01T10:34:20Z</time></trkpt><trkpt lat="39.63296906774719" lon="8.997673200542666"><ele>281.6</ele><time>2026-05-01T10:34:22Z</time></trkpt><trkpt lat="39.63296463541349" lon="8.997775432047757"><ele>281.2</ele><time>2026-05-01T10:34:24Z</time></trkpt><trkpt lat="39.63296515090064" lon="8.997862141505351"><ele>280.8</ele><time>2026-05-01T10:34:25Z</time></trkpt><trkpt lat="39.63304486264519" lon="8.997978146898689"><ele>280.4</ele><time>2026-05-01T10:34:26Z</time></trkpt><trkpt lat="39.63312680972494" lon="8.99810281712852"><ele>280.0</ele><time>2026-05-01T10:34:27Z</time></trkpt><trkpt lat="39.633227543656886" lon="8.998229855043785"><ele>279.66666666666663</ele><time>2026-05-01T10:34:28Z</time></trkpt><trkpt lat="39.63335801800136" lon="8.998348318359307"><ele>279.3333333333333</ele><time>2026-05-01T10:34:29Z</time></trkpt><trkpt lat="39.6335104290876" lon="8.998447111772245"><ele>279.0</ele><time>2026-05-01T10:34:30Z</time></trkpt><trkpt lat="39.633685004905274" lon="8.998540241548868"><ele>278.0</ele><time>2026-05-01T10:34:31Z</time></trkpt><trkpt lat="39.633875054466046" lon="8.998619807910954"><ele>277.0</ele><time>2026-05-01T10:34:32Z</time></trkpt><trkpt lat="39.63404545391776" lon="8.998684299099686"><ele>276.0</ele><time>2026-05-01T10:34:33Z</time></trkpt><trkpt lat="39.63419924366857" lon="8.998715805551022"><ele>276.0</ele><time>2026-05-01T10:34:34Z</time></trkpt><trkpt lat="39.63433668061848" lon="8.998705456258968"><ele>276.0</ele><time>2026-05-01T10:34:35Z</time></trkpt><trkpt lat="39.63447151645537" lon="8.998670750757551"><ele>276.0</ele><time>2026-05-01T10:34:36Z</time></trkpt><trkpt lat="39.6345938549818" lon="8.998648851962232"><ele>276.0</ele><time>2026-05-01T10:34:37Z</time></trkpt><trkpt lat="39.6347167802604" lon="8.998647071020205"><ele>275.75</ele><time>2026-05-01T10:34:38Z</time></trkpt><trkpt lat="39.63485043288158" lon="8.998658447341375"><ele>275.5</ele><time>2026-05-01T10:34:39Z</time></trkpt><trkpt lat="39.634992406477004" lon="8.998686676776154"><ele>275.25</ele><time>2026-05-01T10:34:40Z</time></trkpt><trkpt lat="39.63512721721355" lon="8.998721862648173"><ele>275.0</ele><time>2026-05-01T10:34:41Z</time></trkpt><trkpt lat="39.63527229076386" lon="8.998755290902329"><ele>275.0</ele><time>2026-05-01T10:34:41.999Z</time></trkpt><trkpt lat="39.635406368112875" lon="8.998782201301113"><ele>275.0</ele><time>2026-05-01T10:34:42.999Z</time></trkpt><trkpt lat="39.63551661181669" lon="8.998801425893493"><ele>275.0</ele><time>2026-05-01T10:34:43.999Z</time></trkpt><trkpt lat="39.635612398252256" lon="8.998821307946804"><ele>275.0</ele><time>2026-05-01T10:34:44.999Z</time></trkpt><trkpt lat="39.635686282679146" lon="8.998836557832558"><ele>275.0</ele><time>2026-05-01T10:34:45.999Z</time></trkpt><trkpt lat="39.635763932070695" lon="8.998907528187454"><ele>275.0</ele><time>2026-05-01T10:34:47.999Z</time></trkpt><trkpt lat="39.63565543700533" lon="8.999005515582558"><ele>275.0</ele><time>2026-05-01T10:34:50.999Z</time></trkpt><trkpt lat="39.6355814751501" lon="8.999072453131408"><ele>275.0</ele><time>2026-05-01T10:34:51.999Z</time></trkpt><trkpt lat="39.635492351461494" lon="8.999156184949188"><ele>275.0</ele><time>2026-05-01T10:34:52.999Z</time></trkpt><trkpt lat="39.63539198911296" lon="8.999249346117221"><ele>274.5</ele><time>2026-05-01T10:34:53.999Z</time></trkpt><trkpt lat="39.63527744855247" lon="8.999348355485578"><ele>274.0</ele><time>2026-05-01T10:34:54.999Z</time></trkpt><trkpt lat="39.6351527961067" lon="8.999441750084511"><ele>273.5</ele><time>2026-05-01T10:34:55.999Z</time></trkpt><trkpt lat="39.63503018652561" lon="8.999517093924835"><ele>273.0</ele><time>2026-05-01T10:34:56.999Z</time></trkpt><trkpt lat="39.63489550895057" lon="8.999580417482015"><ele>273.0</ele><time>2026-05-01T10:34:57.999Z</time></trkpt><trkpt lat="39.63475720731012" lon="8.99963778503965"><ele>273.0</ele><time>2026-05-01T10:34:58.999Z</time></trkpt><trkpt lat="39.63461611200474" lon="8.99968349670122"><ele>273.0</ele><time>2026-05-01T10:34:59.999Z</time></trkpt><trkpt lat="39.634485380787396" lon="8.999721742479185"><ele>273.0</ele><time>2026-05-01T10:35:00.999Z</time></trkpt><trkpt lat="39.634371707351775" lon="8.999748855633449"><ele>273.25</ele><time>2026-05-01T10:35:01.999Z</time></trkpt><trkpt lat="39.634273333920795" lon="8.999762798471025"><ele>273.5</ele><time>2026-05-01T10:35:02.999Z</time></trkpt><trkpt lat="39.63416057624907" lon="8.999763550991814"><ele>273.75</ele><time>2026-05-01T10:35:03.999Z</time></trkpt><trkpt lat="39.634057308252615" lon="8.999734538932582"><ele>274.0</ele><time>2026-05-01T10:35:04.999Z</time></trkpt><trkpt lat="39.63392374482627" lon="8.999970394397296"><ele>274.0</ele><time>2026-05-01T10:35:05.999Z</time></trkpt><trkpt lat="39.63380134528356" lon="9.000031863299261"><ele>274.0</ele><time>2026-05-01T10:35:06.999Z</time></trkpt><trkpt lat="39.633684509261364" lon="9.000128509842973"><ele>274.0</ele><time>2026-05-01T10:35:07.999Z</time></trkpt><trkpt lat="39.63357021221788" lon="9.000245442464584"><ele>274.0</ele><time>2026-05-01T10:35:08.999Z</time></trkpt><trkpt lat="39.6334612548711" lon="9.000362246297408"><ele>274.25</ele><time>2026-05-01T10:35:09.999Z</time></trkpt><trkpt lat="39.633363955909786" lon="9.000479984786542"><ele>274.5</ele><time>2026-05-01T10:35:10.999Z</time></trkpt><trkpt lat="39.63328886548666" lon="9.000621867818147"><ele>274.75</ele><time>2026-05-01T10:35:11.999Z</time></trkpt><trkpt lat="39.63322212114154" lon="9.000749662137336"><ele>275.0</ele><time>2026-05-01T10:35:12.999Z</time></trkpt><trkpt lat="39.63317057744409" lon="9.000889273512918"><ele>275.0</ele><time>2026-05-01T10:35:13.999Z</time></trkpt><trkpt lat="39.633125211719374" lon="9.001059240003366"><ele>275.0</ele><time>2026-05-01T10:35:14.999Z</time></trkpt><trkpt lat="39.63306429137086" lon="9.001228933712456"><ele>275.0</ele><time>2026-05-01T10:35:15.999Z</time></trkpt><trkpt lat="39.6330131148868" lon="9.001397428540777"><ele>275.0</ele><time>2026-05-01T10:35:16.999Z</time></trkpt><trkpt lat="39.63298084659186" lon="9.001557655824271"><ele>274.2</ele><time>2026-05-01T10:35:17.999Z</time></trkpt><trkpt lat="39.632937604460864" lon="9.001698280663328"><ele>273.4</ele><time>2026-05-01T10:35:18.999Z</time></trkpt><trkpt lat="39.63290250239572" lon="9.001822260054212"><ele>272.6</ele><time>2026-05-01T10:35:19.999Z</time></trkpt><trkpt lat="39.632870302297285" lon="9.001936579133261"><ele>271.8</ele><time>2026-05-01T10:35:20.999Z</time></trkpt><trkpt lat="39.63284068964674" lon="9.002042855827025"><ele>271.0</ele><time>2026-05-01T10:35:21.999Z</time></trkpt><trkpt lat="39.632797629189426" lon="9.002148504144392"><ele>271.0</ele><time>2026-05-01T10:35:22.999Z</time></trkpt><trkpt lat="39.63277722787392" lon="9.002268259810855"><ele>271.0</ele><time>2026-05-01T10:35:23.999Z</time></trkpt><trkpt lat="39.632766413897485" lon="9.002401984776181"><ele>271.0</ele><time>2026-05-01T10:35:24.999Z</time></trkpt><trkpt lat="39.632765674088674" lon="9.002541848644482"><ele>271.0</ele><time>2026-05-01T10:35:25.999Z</time></trkpt><trkpt lat="39.63274668368021" lon="9.002673322063252"><ele>271.0</ele><time>2026-05-01T10:35:26.999Z</time></trkpt><trkpt lat="39.63271351535967" lon="9.002780349200545"><ele>270.40000000000003</ele><time>2026-05-01T10:35:27.999Z</time></trkpt><trkpt lat="39.63267773273539" lon="9.00288390152178"><ele>269.8</ele><time>2026-05-01T10:35:28.999Z</time></trkpt><trkpt lat="39.63263285463471" lon="9.003000857411497"><ele>269.20000000000005</ele><time>2026-05-01T10:35:29.999Z</time></trkpt><trkpt lat="39.63259388625641" lon="9.003110621648736"><ele>268.6</ele><time>2026-05-01T10:35:30.999Z</time></trkpt><trkpt lat="39.632570933470326" lon="9.003195448850725"><ele>268.0</ele><time>2026-05-01T10:35:31.999Z</time></trkpt><trkpt lat="39.63256753703081" lon="9.003328667814772"><ele>268.0</ele><time>2026-05-01T10:35:33.999Z</time></trkpt><trkpt lat="39.63261984719127" lon="9.00337861296296"><ele>268.0</ele><time>2026-05-01T10:35:34.999Z</time></trkpt><trkpt lat="39.63269389319543" lon="9.003494477265342"><ele>268.0</ele><time>2026-05-01T10:35:36.999Z</time></trkpt><trkpt lat="39.63275390299821" lon="9.00353505152472"><ele>268.0</ele><time>2026-05-01T10:35:38.999Z</time></trkpt><trkpt lat="39.63269225540883" lon="9.003470937402978"><ele>268.0</ele><time>2026-05-01T10:36:07Z</time></trkpt><trkpt lat="39.63261321214068" lon="9.00335846199672"><ele>268.0</ele><time>2026-05-01T10:36:09Z</time></trkpt><trkpt lat="39.632577393279924" lon="9.00326450348956"><ele>268.0</ele><time>2026-05-01T10:36:11Z</time></trkpt><trkpt lat="39.63260197748638" lon="9.003130107838427"><ele>268.0</ele><time>2026-05-01T10:36:13Z</time></trkpt><trkpt lat="39.632636462837404" lon="9.003034492611704"><ele>268.0</ele><time>2026-05-01T10:36:14Z</time></trkpt><trkpt lat="39.632697110255926" lon="9.002931375973063"><ele>268.0</ele><time>2026-05-01T10:36:15Z</time></trkpt><trkpt lat="39.63273989955146" lon="9.002810457249193"><ele>268.0</ele><time>2026-05-01T10:36:16Z</time></trkpt><trkpt lat="39.63275611353302" lon="9.002701546116363"><ele>268.0</ele><time>2026-05-01T10:36:17Z</time></trkpt><trkpt lat="39.63277944097292" lon="9.002609273675263"><ele>268.0</ele><time>2026-05-01T10:36:18Z</time></trkpt><trkpt lat="39.63279719087361" lon="9.002517554302418"><ele>268.0</ele><time>2026-05-01T10:36:19Z</time></trkpt><trkpt lat="39.63279647694619" lon="9.002431436636192"><ele>268.0</ele><time>2026-05-01T10:36:20Z</time></trkpt><trkpt lat="39.63280529830753" lon="9.002337693735587"><ele>268.0</ele><time>2026-05-01T10:36:21Z</time></trkpt><trkpt lat="39.63281562057634" lon="9.002235801651132"><ele>268.0</ele><time>2026-05-01T10:36:22Z</time></trkpt><trkpt lat="39.632818940711324" lon="9.002132039884215"><ele>268.0</ele><time>2026-05-01T10:36:23Z</time></trkpt><trkpt lat="39.632848799706906" lon="9.002032579481078"><ele>268.6</ele><time>2026-05-01T10:36:24Z</time></trkpt><trkpt lat="39.63288094719556" lon="9.001930632701292"><ele>269.20000000000005</ele><time>2026-05-01T10:36:25Z</time></trkpt><trkpt lat="39.63291354447651" lon="9.001808717610091"><ele>269.8</ele><time>2026-05-01T10:36:26Z</time></trkpt><trkpt lat="39.63295154727625" lon="9.001684463987585"><ele>270.40000000000003</ele><time>2026-05-01T10:36:27Z</time></trkpt><trkpt lat="39.6329911994714" lon="9.001530422738655"><ele>271.0</ele><time>2026-05-01T10:36:28Z</time></trkpt><trkpt lat="39.63304601856424" lon="9.001368281341081"><ele>272.0</ele><time>2026-05-01T10:36:29Z</time></trkpt><trkpt lat="39.63309689286637" lon="9.001191092569014"><ele>273.0</ele><time>2026-05-01T10:36:30Z</time></trkpt><trkpt lat="39.6331574054525" lon="9.001033294806492"><ele>274.0</ele><time>2026-05-01T10:36:31Z</time></trkpt><trkpt lat="39.63319982748845" lon="9.000892535151975"><ele>275.0</ele><time>2026-05-01T10:36:32Z</time></trkpt><trkpt lat="39.63324139574324" lon="9.000771416663978"><ele>275.5</ele><time>2026-05-01T10:36:33Z</time></trkpt><trkpt lat="39.63329121022814" lon="9.000666713410837"><ele>276.0</ele><time>2026-05-01T10:36:34Z</time></trkpt><trkpt lat="39.63335680234743" lon="9.000554720940665"><ele>276.5</ele><time>2026-05-01T10:36:35Z</time></trkpt><trkpt lat="39.63344782612259" lon="9.000434216188925"><ele>277.0</ele><time>2026-05-01T10:36:36Z</time></trkpt><trkpt lat="39.63354282165281" lon="9.000330479697913"><ele>277.0</ele><time>2026-05-01T10:36:37Z</time></trkpt><trkpt lat="39.63363330235642" lon="9.000234049568284"><ele>277.0</ele><time>2026-05-01T10:36:38Z</time></trkpt><trkpt lat="39.633711100046966" lon="9.00013146043074"><ele>277.0</ele><time>2026-05-01T10:36:39Z</time></trkpt><trkpt lat="39.633811931950646" lon="9.000071089390795"><ele>277.0</ele><time>2026-05-01T10:36:40Z</time></trkpt><trkpt lat="39.633891090288735" lon="9.000022577050515"><ele>277.0</ele><time>2026-05-01T10:36:41Z</time></trkpt><trkpt lat="39.63396677577231" lon="8.999972962310407"><ele>276.5</ele><time>2026-05-01T10:36:41.999Z</time></trkpt><trkpt lat="39.634020291456025" lon="8.999909683860574"><ele>276.0</ele><time>2026-05-01T10:36:42.999Z</time></trkpt><trkpt lat="39.63410202351754" lon="8.99984093780127"><ele>275.5</ele><time>2026-05-01T10:36:44.999Z</time></trkpt><trkpt lat="39.63402902782588" lon="8.999711231016867"><ele>275.0</ele><time>2026-05-01T10:36:48.999Z</time></trkpt><trkpt lat="39.63396509678236" lon="8.99970937023951"><ele>274.5</ele><time>2026-05-01T10:36:49.999Z</time></trkpt><trkpt lat="39.63388714419445" lon="8.999667936478643"><ele>274.0</ele><time>2026-05-01T10:36:50.999Z</time></trkpt><trkpt lat="39.63378755266276" lon="8.99963667159834"><ele>274.0</ele><time>2026-05-01T10:36:51.999Z</time></trkpt><trkpt lat="39.63366282768736" lon="8.999590557191643"><ele>274.0</ele><time>2026-05-01T10:36:52.999Z</time></trkpt><trkpt lat="39.63352832990762" lon="8.999522947693116"><ele>274.0</ele><time>2026-05-01T10:36:53.999Z</time></trkpt><trkpt lat="39.633394499427155" lon="8.999436448819369"><ele>274.0</ele><time>2026-05-01T10:36:54.999Z</time></trkpt><trkpt lat="39.633253652712135" lon="8.99934518608471"><ele>274.75</ele><time>2026-05-01T10:36:55.999Z</time></trkpt><trkpt lat="39.633103866405975" lon="8.999270183754408"><ele>275.5</ele><time>2026-05-01T10:36:56.999Z</time></trkpt><trkpt lat="39.63297259468403" lon="8.999191096326397"><ele>276.25</ele><time>2026-05-01T10:36:57.999Z</time></trkpt><trkpt lat="39.632840004993" lon="8.999125309826681"><ele>277.0</ele><time>2026-05-01T10:36:58.999Z</time></trkpt><trkpt lat="39.63270290864697" lon="8.99904355451792"><ele>277.66666666666663</ele><time>2026-05-01T10:36:59.999Z</time></trkpt><trkpt lat="39.63253932267657" lon="8.998970947683077"><ele>278.3333333333333</ele><time>2026-05-01T10:37:00.999Z</time></trkpt><trkpt lat="39.632374689278706" lon="8.998903812188763"><ele>279.0</ele><time>2026-05-01T10:37:01.999Z</time></trkpt><trkpt lat="39.63222023492845" lon="8.99885526727873"><ele>279.0</ele><time>2026-05-01T10:37:02.999Z</time></trkpt><trkpt lat="39.63207404065423" lon="8.998821603316461"><ele>279.0</ele><time>2026-05-01T10:37:03.999Z</time></trkpt><trkpt lat="39.63192758567993" lon="8.998795671532816"><ele>279.0</ele><time>2026-05-01T10:37:04.999Z</time></trkpt><trkpt lat="39.63176473994274" lon="8.99877399695193"><ele>279.25</ele><time>2026-05-01T10:37:05.999Z</time></trkpt><trkpt lat="39.63159355034497" lon="8.998756158639733"><ele>279.5</ele><time>2026-05-01T10:37:06.999Z</time></trkpt><trkpt lat="39.63144395779052" lon="8.998745053828072"><ele>279.75</ele><time>2026-05-01T10:37:07.999Z</time></trkpt><trkpt lat="39.6313238052137" lon="8.998737551016161"><ele>280.0</ele><time>2026-05-01T10:37:08.999Z</time></trkpt><trkpt lat="39.63122635807492" lon="8.998759445491123"><ele>280.0</ele><time>2026-05-01T10:37:09.999Z</time></trkpt><trkpt lat="39.63115664202069" lon="8.99876393362943"><ele>280.0</ele><time>2026-05-01T10:37:10.999Z</time></trkpt><trkpt lat="39.63106883742644" lon="8.998777547210183"><ele>280.0</ele><time>2026-05-01T10:37:11.999Z</time></trkpt><trkpt lat="39.630964444329784" lon="8.998580847159332"><ele>280.0</ele><time>2026-05-01T10:37:12.999Z</time></trkpt><trkpt lat="39.63087513003188" lon="8.998460028472035"><ele>280.5</ele><time>2026-05-01T10:37:13.999Z</time></trkpt><trkpt lat="39.63078060707989" lon="8.99831764112969"><ele>281.0</ele><time>2026-05-01T10:37:14.999Z</time></trkpt><trkpt lat="39.6307056937015" lon="8.998201560270115"><ele>281.5</ele><time>2026-05-01T10:37:15.999Z</time></trkpt><trkpt lat="39.63064550236685" lon="8.998086711551359"><ele>282.0</ele><time>2026-05-01T10:37:16.999Z</time></trkpt><trkpt lat="39.6305902572383" lon="8.997949308027264"><ele>282.0</ele><time>2026-05-01T10:37:17.999Z</time></trkpt><trkpt lat="39.63054659913717" lon="8.997779378171018"><ele>282.0</ele><time>2026-05-01T10:37:18.999Z</time></trkpt><trkpt lat="39.6305065483848" lon="8.99757777857751"><ele>282.0</ele><time>2026-05-01T10:37:19.999Z</time></trkpt><trkpt lat="39.630469667377554" lon="8.99737025760825"><ele>282.25</ele><time>2026-05-01T10:37:20.999Z</time></trkpt><trkpt lat="39.63042650461927" lon="8.997173288821477"><ele>282.5</ele><time>2026-05-01T10:37:21.999Z</time></trkpt><trkpt lat="39.63038161494254" lon="8.997017435444048"><ele>282.75</ele><time>2026-05-01T10:37:22.999Z</time></trkpt><trkpt lat="39.63032472681259" lon="8.99689587778117"><ele>283.0</ele><time>2026-05-01T10:37:23.999Z</time></trkpt><trkpt lat="39.63024660941363" lon="8.99680293322611"><ele>283.0</ele><time>2026-05-01T10:37:24.999Z</time></trkpt><trkpt lat="39.630143779498134" lon="8.99672453623596"><ele>283.0</ele><time>2026-05-01T10:37:25.999Z</time></trkpt><trkpt lat="39.63004094700367" lon="8.99668516776669"><ele>283.0</ele><time>2026-05-01T10:37:26.999Z</time></trkpt><trkpt lat="39.62996189361536" lon="8.996672814784738"><ele>283.0</ele><time>2026-05-01T10:37:27.999Z</time></trkpt><trkpt lat="39.62986178928094" lon="8.996694771844988"><ele>283.0</ele><time>2026-05-01T10:37:28.999Z</time></trkpt><trkpt lat="39.62973253665502" lon="8.996725228594043"><ele>283.0</ele><time>2026-05-01T10:37:29.999Z</time></trkpt><trkpt lat="39.62958125706606" lon="8.99676828982494"><ele>283.0</ele><time>2026-05-01T10:37:30.999Z</time></trkpt><trkpt lat="39.62940921080497" lon="8.996812844105246"><ele>283.0</ele><time>2026-05-01T10:37:31.999Z</time></trkpt><trkpt lat="39.629250704642054" lon="8.996829556748967"><ele>283.66666666666663</ele><time>2026-05-01T10:37:32.999Z</time></trkpt><trkpt lat="39.62909648176739" lon="8.996827669851996"><ele>284.3333333333333</ele><time>2026-05-01T10:37:33.999Z</time></trkpt><trkpt lat="39.62893502244254" lon="8.996797996482716"><ele>285.0</ele><time>2026-05-01T10:37:34.999Z</time></trkpt><trkpt lat="39.628797996990755" lon="8.996761262657127"><ele>285.0</ele><time>2026-05-01T10:37:35.999Z</time></trkpt><trkpt lat="39.62867732633124" lon="8.99674553306435"><ele>285.0</ele><time>2026-05-01T10:37:36.999Z</time></trkpt><trkpt lat="39.62856446431843" lon="8.99673580290683"><ele>285.0</ele><time>2026-05-01T10:37:37.999Z</time></trkpt><trkpt lat="39.62844956200676" lon="8.99671795839764"><ele>285.0</ele><time>2026-05-01T10:37:38.999Z</time></trkpt><trkpt lat="39.62832923008493" lon="8.996686061773834"><ele>285.3333333333333</ele><time>2026-05-01T10:37:39.999Z</time></trkpt><trkpt lat="39.62821685018697" lon="8.996656729720874"><ele>285.6666666666667</ele><time>2026-05-01T10:37:40.999Z</time></trkpt><trkpt lat="39.62812324762935" lon="8.996638536565154"><ele>286.0</ele><time>2026-05-01T10:37:41.999Z</time></trkpt><trkpt lat="39.62805396073413" lon="8.996633924666241"><ele>286.33333333333337</ele><time>2026-05-01T10:37:42.999Z</time></trkpt><trkpt lat="39.627963423739416" lon="8.996605507752514"><ele>286.6666666666667</ele><time>2026-05-01T10:37:44.999Z</time></trkpt><trkpt lat="39.62790063923926" lon="8.996550011490326"><ele>287.0</ele><time>2026-05-01T10:37:47.999Z</time></trkpt><trkpt lat="39.62789590717182" lon="8.996632282636105"><ele>287.0</ele><time>2026-05-01T10:37:50.999Z</time></trkpt><trkpt lat="39.62799152951992" lon="8.996633288963036"><ele>287.0</ele><time>2026-05-01T10:37:53Z</time></trkpt><trkpt lat="39.62807909615149" lon="8.996616440020508"><ele>287.0</ele><time>2026-05-01T10:37:55Z</time></trkpt><trkpt lat="39.62815119807895" lon="8.996634639157518"><ele>287.0</ele><time>2026-05-01T10:37:57Z</time></trkpt><trkpt lat="39.62822523483682" lon="8.996658079548174"><ele>287.0</ele><time>2026-05-01T10:37:59Z</time></trkpt><trkpt lat="39.62830661857727" lon="8.996656280706802"><ele>287.0</ele><time>2026-05-01T10:38:01Z</time></trkpt><trkpt lat="39.62838867818697" lon="8.996682893343086"><ele>286.6</ele><time>2026-05-01T10:38:03Z</time></trkpt><trkpt lat="39.62849576438433" lon="8.996714900496519"><ele>286.2</ele><time>2026-05-01T10:38:05Z</time></trkpt><trkpt lat="39.628570973690636" lon="8.996737367925377"><ele>285.8</ele><time>2026-05-01T10:38:07Z</time></trkpt><trkpt lat="39.62867222376893" lon="8.996756053308124"><ele>285.4</ele><time>2026-05-01T10:38:09Z</time></trkpt><trkpt lat="39.62877368974681" lon="8.996759452354135"><ele>285.0</ele><time>2026-05-01T10:38:11Z</time></trkpt><trkpt lat="39.62886521019813" lon="8.996774017278833"><ele>285.0</ele><time>2026-05-01T10:38:13Z</time></trkpt><trkpt lat="39.62894904172264" lon="8.996795089497324"><ele>285.0</ele><time>2026-05-01T10:38:15Z</time></trkpt><trkpt lat="39.62902568340608" lon="8.996810118814109"><ele>285.0</ele><time>2026-05-01T10:38:17Z</time></trkpt><trkpt lat="39.629109251966966" lon="8.996824748138948"><ele>285.0</ele><time>2026-05-01T10:38:19Z</time></trkpt><trkpt lat="39.62920570243413" lon="8.996809234269346"><ele>285.0</ele><time>2026-05-01T10:38:21Z</time></trkpt><trkpt lat="39.62930000477009" lon="8.99680781576383"><ele>285.0</ele><time>2026-05-01T10:38:23Z</time></trkpt><trkpt lat="39.62941802876068" lon="8.99680238456218"><ele>284.6</ele><time>2026-05-01T10:38:25Z</time></trkpt><trkpt lat="39.62954531746922" lon="8.996775038579322"><ele>284.2</ele><time>2026-05-01T10:38:27Z</time></trkpt><trkpt lat="39.62963908378811" lon="8.996753254344863"><ele>283.8</ele><time>2026-05-01T10:38:28Z</time></trkpt><trkpt lat="39.629735457305536" lon="8.9967294540357"><ele>283.4</ele><time>2026-05-01T10:38:29Z</time></trkpt><trkpt lat="39.629831135759126" lon="8.996711580019335"><ele>283.0</ele><time>2026-05-01T10:38:30Z</time></trkpt><trkpt lat="39.629926337973764" lon="8.996701252569174"><ele>283.0</ele><time>2026-05-01T10:38:31Z</time></trkpt><trkpt lat="39.63001613561389" lon="8.996709479379934"><ele>283.0</ele><time>2026-05-01T10:38:32Z</time></trkpt><trkpt lat="39.630103742375915" lon="8.99673714607143"><ele>283.0</ele><time>2026-05-01T10:38:33Z</time></trkpt><trkpt lat="39.63018884856785" lon="8.996777924300213"><ele>283.0</ele><time>2026-05-01T10:38:34Z</time></trkpt><trkpt lat="39.63026051161797" lon="8.996839477843704"><ele>283.0</ele><time>2026-05-01T10:38:35Z</time></trkpt><trkpt lat="39.63032980928406" lon="8.996915888954243"><ele>283.0</ele><time>2026-05-01T10:38:36Z</time></trkpt><trkpt lat="39.63037961762922" lon="8.99702185932897"><ele>282.8</ele><time>2026-05-01T10:38:37Z</time></trkpt><trkpt lat="39.63042221619518" lon="8.997151519797299"><ele>282.6</ele><time>2026-05-01T10:38:38Z</time></trkpt><trkpt lat="39.630449073673326" lon="8.997305677567963"><ele>282.4</ele><time>2026-05-01T10:38:39Z</time></trkpt><trkpt lat="39.63047282319456" lon="8.997445258526097"><ele>282.2</ele><time>2026-05-01T10:38:40Z</time></trkpt><trkpt lat="39.6305002413303" lon="8.997578656417689"><ele>282.0</ele><time>2026-05-01T10:38:41Z</time></trkpt><trkpt lat="39.63052815837728" lon="8.997700169314752"><ele>282.0</ele><time>2026-05-01T10:38:42Z</time></trkpt><trkpt lat="39.63055540075364" lon="8.99780696251751"><ele>282.0</ele><time>2026-05-01T10:38:43Z</time></trkpt><trkpt lat="39.63058906835928" lon="8.997924126389211"><ele>282.0</ele><time>2026-05-01T10:38:44Z</time></trkpt><trkpt lat="39.6306278846359" lon="8.998047735403599"><ele>282.0</ele><time>2026-05-01T10:38:44.999Z</time></trkpt><trkpt lat="39.63067858332504" lon="8.99816945252359"><ele>282.0</ele><time>2026-05-01T10:38:45.999Z</time></trkpt><trkpt lat="39.63073682856198" lon="8.998271269839945"><ele>281.6</ele><time>2026-05-01T10:38:46.999Z</time></trkpt><trkpt lat="39.63080776452434" lon="8.998364721537408"><ele>281.2</ele><time>2026-05-01T10:38:47.999Z</time></trkpt><trkpt lat="39.63088261998078" lon="8.998457466325085"><ele>280.8</ele><time>2026-05-01T10:38:48.999Z</time></trkpt><trkpt lat="39.63094295101829" lon="8.998541515212704"><ele>280.4</ele><time>2026-05-01T10:38:49.999Z</time></trkpt><trkpt lat="39.63099771043531" lon="8.998614215161188"><ele>280.0</ele><time>2026-05-01T10:38:50.999Z</time></trkpt><trkpt lat="39.63106338773386" lon="8.998681625601286"><ele>280.0</ele><time>2026-05-01T10:38:51.999Z</time></trkpt><trkpt lat="39.631133844253554" lon="8.99873379742943"><ele>280.0</ele><time>2026-05-01T10:38:52.999Z</time></trkpt><trkpt lat="39.63120745891233" lon="8.998768559388852"><ele>280.0</ele><time>2026-05-01T10:38:53.999Z</time></trkpt><trkpt lat="39.63129982217845" lon="8.99879087152325"><ele>280.0</ele><time>2026-05-01T10:38:54.999Z</time></trkpt><trkpt lat="39.63139996252251" lon="8.998798649662982"><ele>280.0</ele><time>2026-05-01T10:38:55.999Z</time></trkpt><trkpt lat="39.63150952212459" lon="8.998798481856122"><ele>280.0</ele><time>2026-05-01T10:38:56.999Z</time></trkpt><trkpt lat="39.6316212601386" lon="8.998802710024266"><ele>280.0</ele><time>2026-05-01T10:38:57.999Z</time></trkpt><trkpt lat="39.63174487220177" lon="8.99881699227169"><ele>280.0</ele><time>2026-05-01T10:38:58.999Z</time></trkpt><trkpt lat="39.63188247874146" lon="8.998827969467696"><ele>280.0</ele><time>2026-05-01T10:38:59.999Z</time></trkpt><trkpt lat="39.63202274109083" lon="8.998841954136834"><ele>279.66666666666663</ele><time>2026-05-01T10:39:00.999Z</time></trkpt><trkpt lat="39.63215799724907" lon="8.998882971684107"><ele>279.3333333333333</ele><time>2026-05-01T10:39:01.999Z</time></trkpt><trkpt lat="39.6323097530389" lon="8.998906744191977"><ele>279.0</ele><time>2026-05-01T10:39:02.999Z</time></trkpt><trkpt lat="39.63246487358571" lon="8.998970031744543"><ele>279.0</ele><time>2026-05-01T10:39:03.999Z</time></trkpt><trkpt lat="39.63263789980664" lon="8.999043357825466"><ele>279.0</ele><time>2026-05-01T10:39:04.999Z</time></trkpt><trkpt lat="39.63280219079541" lon="8.999136307838164"><ele>279.0</ele><time>2026-05-01T10:39:05.999Z</time></trkpt><trkpt lat="39.63295127873914" lon="8.999189811985293"><ele>278.5</ele><time>2026-05-01T10:39:06.999Z</time></trkpt><trkpt lat="39.63308108439475" lon="8.999259293928024"><ele>278.0</ele><time>2026-05-01T10:39:07.999Z</time></trkpt><trkpt lat="39.63319063612185" lon="8.999350976427213"><ele>277.5</ele><time>2026-05-01T10:39:08.999Z</time></trkpt><trkpt lat="39.6333082851075" lon="8.999419577176011"><ele>277.0</ele><time>2026-05-01T10:39:09.999Z</time></trkpt><trkpt lat="39.633413077225434" lon="8.999512604772189"><ele>277.0</ele><time>2026-05-01T10:39:10.999Z</time></trkpt><trkpt lat="39.63352150341812" lon="8.99958080910309"><ele>277.0</ele><time>2026-05-01T10:39:11.999Z</time></trkpt><trkpt lat="39.63364771573689" lon="8.999636064409854"><ele>277.0</ele><time>2026-05-01T10:39:12.999Z</time></trkpt><trkpt lat="39.63377637942958" lon="8.999680512549876"><ele>277.0</ele><time>2026-05-01T10:39:13.999Z</time></trkpt><trkpt lat="39.63389662653567" lon="8.999711728423545"><ele>276.5</ele><time>2026-05-01T10:39:14.999Z</time></trkpt><trkpt lat="39.63400172518751" lon="8.999743961914556"><ele>276.0</ele><time>2026-05-01T10:39:15.999Z</time></trkpt><trkpt lat="39.634093196432886" lon="8.999771407484525"><ele>275.5</ele><time>2026-05-01T10:39:16.999Z</time></trkpt><trkpt lat="39.63417180953624" lon="8.999795385755476"><ele>275.0</ele><time>2026-05-01T10:39:17.999Z</time></trkpt><trkpt lat="39.634237459202694" lon="8.99980205788201"><ele>274.5</ele><time>2026-05-01T10:39:18.999Z</time></trkpt><trkpt lat="39.634326186028304" lon="8.999795192604436"><ele>274.0</ele><time>2026-05-01T10:39:19.999Z</time></trkpt><trkpt lat="39.63443061202073" lon="8.999776684412764"><ele>273.75</ele><time>2026-05-01T10:39:20.999Z</time></trkpt><trkpt lat="39.63454686401056" lon="8.99974540090387"><ele>273.5</ele><time>2026-05-01T10:39:21.999Z</time></trkpt><trkpt lat="39.63466929551916" lon="8.99970484461394"><ele>273.25</ele><time>2026-05-01T10:39:22.999Z</time></trkpt><trkpt lat="39.634795575820995" lon="8.999664677850816"><ele>273.0</ele><time>2026-05-01T10:39:23.999Z</time></trkpt><trkpt lat="39.634907453345335" lon="8.999624792505282"><ele>273.0</ele><time>2026-05-01T10:39:24.999Z</time></trkpt><trkpt lat="39.63501102898662" lon="8.999590127754885"><ele>273.0</ele><time>2026-05-01T10:39:25.999Z</time></trkpt><trkpt lat="39.63509883101151" lon="8.999523914294688"><ele>273.0</ele><time>2026-05-01T10:39:26.999Z</time></trkpt><trkpt lat="39.63519355753718" lon="8.999482967697157"><ele>273.0</ele><time>2026-05-01T10:39:27.999Z</time></trkpt><trkpt lat="39.63527876089306" lon="8.99940456789568"><ele>273.0</ele><time>2026-05-01T10:39:28.999Z</time></trkpt><trkpt lat="39.63535814455857" lon="8.999324032631385"><ele>273.3333333333333</ele><time>2026-05-01T10:39:29.999Z</time></trkpt><trkpt lat="39.63543369613313" lon="8.999246288790836"><ele>273.6666666666667</ele><time>2026-05-01T10:39:30.999Z</time></trkpt><trkpt lat="39.63550459355558" lon="8.999179764343332"><ele>274.0</ele><time>2026-05-01T10:39:31.999Z</time></trkpt><trkpt lat="39.635568099012694" lon="8.999121927358706"><ele>274.33333333333337</ele><time>2026-05-01T10:39:32.999Z</time></trkpt><trkpt lat="39.635622886757794" lon="8.999074626091106"><ele>274.6666666666667</ele><time>2026-05-01T10:39:33.999Z</time></trkpt><trkpt lat="39.635700995692986" lon="8.999025748944808"><ele>275.0</ele><time>2026-05-01T10:39:35.999Z</time></trkpt><trkpt lat="39.63575435639804" lon="8.998968899976138"><ele>275.0</ele><time>2026-05-01T10:39:37.999Z</time></trkpt><trkpt lat="39.63580019239322" lon="8.998894222160196"><ele>275.0</ele><time>2026-05-01T10:39:40.999Z</time></trkpt><trkpt lat="39.63570795636592" lon="8.998801609222868"><ele>275.0</ele><time>2026-05-01T10:39:43.999Z</time></trkpt><trkpt lat="39.63563757791381" lon="8.998791249445738"><ele>275.0</ele><time>2026-05-01T10:39:44.999Z</time></trkpt><trkpt lat="39.6355541625652" lon="8.998792604211097"><ele>275.0</ele><time>2026-05-01T10:39:45.999Z</time></trkpt><trkpt lat="39.63546433617156" lon="8.998756789505393"><ele>275.0</ele><time>2026-05-01T10:39:46.999Z</time></trkpt><trkpt lat="39.63535364522145" lon="8.998750494509949"><ele>275.0</ele><time>2026-05-01T10:39:47.999Z</time></trkpt><trkpt lat="39.63524042579196" lon="8.998713515857798"><ele>275.0</ele><time>2026-05-01T10:39:48.999Z</time></trkpt><trkpt lat="39.63511502523788" lon="8.998685378855244"><ele>275.0</ele><time>2026-05-01T10:39:49.999Z</time></trkpt><trkpt lat="39.63498134611706" lon="8.998664398021708"><ele>275.0</ele><time>2026-05-01T10:39:50.999Z</time></trkpt><trkpt lat="39.63484030309578" lon="8.998639540436745"><ele>275.0</ele><time>2026-05-01T10:39:51.999Z</time></trkpt><trkpt lat="39.634696532415305" lon="8.99861812194751"><ele>275.0</ele><time>2026-05-01T10:39:52.999Z</time></trkpt><trkpt lat="39.63454815642751" lon="8.998624650722082"><ele>275.0</ele><time>2026-05-01T10:39:53.999Z</time></trkpt><trkpt lat="39.63440091202947" lon="8.998657762699525"><ele>275.0</ele><time>2026-05-01T10:39:54.999Z</time></trkpt><trkpt lat="39.634255917388344" lon="8.998668811879321"><ele>275.33333333333337</ele><time>2026-05-01T10:39:55.998Z</time></trkpt><trkpt lat="39.6340976420724" lon="8.99864972424938"><ele>275.6666666666667</ele><time>2026-05-01T10:39:56.998Z</time></trkpt><trkpt lat="39.633948842049016" lon="8.998595648638917"><ele>276.0</ele><time>2026-05-01T10:39:57.998Z</time></trkpt><trkpt lat="39.63379377606651" lon="8.998529106677319"><ele>277.0</ele><time>2026-05-01T10:39:59Z</time></trkpt><trkpt lat="39.63363033977985" lon="8.99847647983574"><ele>278.0</ele><time>2026-05-01T10:40:00Z</time></trkpt><trkpt lat="39.63348041724166" lon="8.998364295515113"><ele>279.0</ele><time>2026-05-01T10:40:01Z</time></trkpt><trkpt lat="39.63333667480111" lon="8.998258220724"><ele>279.3333333333333</ele><time>2026-05-01T10:40:02Z</time></trkpt><trkpt lat="39.63319382716161" lon="8.998156307823795"><ele>279.66666666666663</ele><time>2026-05-01T10:40:03Z</time></trkpt><trkpt lat="39.63309344178453" lon="8.997982870146503"><ele>280.0</ele><time>2026-05-01T10:40:04Z</time></trkpt><trkpt lat="39.63298560904613" lon="8.997807910682823"><ele>280.0</ele><time>2026-05-01T10:40:05Z</time></trkpt><trkpt lat="39.63288210801302" lon="8.997625236540529"><ele>280.0</ele><time>2026-05-01T10:40:06Z</time></trkpt><trkpt lat="39.63277597953889" lon="8.997436855032518"><ele>280.0</ele><time>2026-05-01T10:40:07Z</time></trkpt><trkpt lat="39.63267314986067" lon="8.997246312660796"><ele>281.66666666666663</ele><time>2026-05-01T10:40:08Z</time></trkpt><trkpt lat="39.6325759676501" lon="8.997040962849704"><ele>283.3333333333333</ele><time>2026-05-01T10:40:09Z</time></trkpt><trkpt lat="39.63248177692086" lon="8.996822011668247"><ele>285.0</ele><time>2026-05-01T10:40:10Z</time></trkpt><trkpt lat="39.63239411878826" lon="8.996593477429649"><ele>285.3333333333333</ele><time>2026-05-01T10:40:11Z</time></trkpt><trkpt lat="39.63230223025362" lon="8.996360363437992"><ele>285.66666666666663</ele><time>2026-05-01T10:40:12Z</time></trkpt><trkpt lat="39.63220977621992" lon="8.996121711712867"><ele>286.0</ele><time>2026-05-01T10:40:13Z</time></trkpt><trkpt lat="39.632092518382194" lon="8.99588207441187"><ele>287.0</ele><time>2026-05-01T10:40:14Z</time></trkpt><trkpt lat="39.631976099880404" lon="8.995642242652423"><ele>288.0</ele><time>2026-05-01T10:40:15Z</time></trkpt><trkpt lat="39.631868584089936" lon="8.995387200589075"><ele>289.0</ele><time>2026-05-01T10:40:16Z</time></trkpt><trkpt lat="39.631757204209" lon="8.995189774911116"><ele>289.75</ele><time>2026-05-01T10:40:17Z</time></trkpt><trkpt lat="39.63167166240116" lon="8.995004772457756"><ele>290.5</ele><time>2026-05-01T10:40:18Z</time></trkpt><trkpt lat="39.63159440570688" lon="8.994845449287403"><ele>291.25</ele><time>2026-05-01T10:40:19Z</time></trkpt><trkpt lat="39.6315244544648" lon="8.994698473920533"><ele>292.0</ele><time>2026-05-01T10:40:20Z</time></trkpt><trkpt lat="39.63146649388627" lon="8.994594497516578"><ele>292.6</ele><time>2026-05-01T10:40:21Z</time></trkpt><trkpt lat="39.63143085410567" lon="8.994479410048687"><ele>293.2</ele><time>2026-05-01T10:40:22Z</time></trkpt><trkpt lat="39.63138846052008" lon="8.994394806307243"><ele>293.8</ele><time>2026-05-01T10:40:23Z</time></trkpt><trkpt lat="39.63136062091007" lon="8.99429962361871"><ele>294.4</ele><time>2026-05-01T10:40:25Z</time></trkpt><trkpt lat="39.63147033124964" lon="8.994120082139903"><ele>295.0</ele><time>2026-05-01T10:40:28Z</time></trkpt><trkpt lat="39.63153927385273" lon="8.99408690596636"><ele>295.0</ele><time>2026-05-01T10:40:29Z</time></trkpt><trkpt lat="39.63161222845096" lon="8.994054260012383"><ele>295.0</ele><time>2026-05-01T10:40:30Z</time></trkpt><trkpt lat="39.63168574774782" lon="8.993999323992913"><ele>295.0</ele><time>2026-05-01T10:40:31Z</time></trkpt><trkpt lat="39.631751575630304" lon="8.993964272892361"><ele>295.0</ele><time>2026-05-01T10:40:32Z</time></trkpt><trkpt lat="39.63181624760265" lon="8.993934757444215"><ele>295.0</ele><time>2026-05-01T10:40:33Z</time></trkpt><trkpt lat="39.63188217865326" lon="8.993895036537397"><ele>295.0</ele><time>2026-05-01T10:40:34Z</time></trkpt><trkpt lat="39.63195307128733" lon="8.99384893028436"><ele>294.66666666666663</ele><time>2026-05-01T10:40:35Z</time></trkpt><trkpt lat="39.63202394103964" lon="8.993796159700791"><ele>294.3333333333333</ele><time>2026-05-01T10:40:36Z</time></trkpt><trkpt lat="39.632082898997645" lon="8.993735452514054"><ele>294.0</ele><time>2026-05-01T10:40:37Z</time></trkpt><trkpt lat="39.63213949635637" lon="8.993673896919946"><ele>293.6666666666667</ele><time>2026-05-01T10:40:38Z</time></trkpt><trkpt lat="39.63219568919457" lon="8.993608297388564"><ele>293.33333333333337</ele><time>2026-05-01T10:40:39Z</time></trkpt><trkpt lat="39.63226323105986" lon="8.993567131082488"><ele>293.0</ele><time>2026-05-01T10:40:40Z</time></trkpt><trkpt lat="39.63234323857416" lon="8.993541891561778"><ele>293.0</ele><time>2026-05-01T10:40:41Z</time></trkpt><trkpt lat="39.63241675468781" lon="8.993507615440928"><ele>293.0</ele><time>2026-05-01T10:40:42Z</time></trkpt><trkpt lat="39.63249969909655" lon="8.993483808732691"><ele>293.0</ele><time>2026-05-01T10:40:43Z</time></trkpt><trkpt lat="39.63258490189851" lon="8.993462858913519"><ele>293.0</ele><time>2026-05-01T10:40:44Z</time></trkpt><trkpt lat="39.632664148024745" lon="8.993459739414822"><ele>293.0</ele><time>2026-05-01T10:40:45Z</time></trkpt><trkpt lat="39.63273493269507" lon="8.993435669896497"><ele>293.0</ele><time>2026-05-01T10:40:46Z</time></trkpt><trkpt lat="39.63281624456415" lon="8.993437024158638"><ele>292.6</ele><time>2026-05-01T10:40:47Z</time></trkpt><trkpt lat="39.632902174386956" lon="8.993433270517944"><ele>292.20000000000005</ele><time>2026-05-01T10:40:48Z</time></trkpt><trkpt lat="39.63300085080634" lon="8.993412418689829"><ele>291.8</ele><time>2026-05-01T10:40:49Z</time></trkpt><trkpt lat="39.63310129280524" lon="8.993424779816525"><ele>291.40000000000003</ele><time>2026-05-01T10:40:50Z</time></trkpt><trkpt lat="39.633195693587915" lon="8.993421789971576"><ele>291.0</ele><time>2026-05-01T10:40:50.999Z</time></trkpt><trkpt lat="39.63327191243524" lon="8.993428673105408"><ele>291.0</ele><time>2026-05-01T10:40:51.999Z</time></trkpt><trkpt lat="39.63334877296858" lon="8.99341915405898"><ele>291.0</ele><time>2026-05-01T10:40:52.999Z</time></trkpt><trkpt lat="39.63341990371578" lon="8.993432822558184"><ele>291.0</ele><time>2026-05-01T10:40:53.999Z</time></trkpt><trkpt lat="39.6334874465555" lon="8.993434082891344"><ele>291.0</ele><time>2026-05-01T10:40:54.999Z</time></trkpt><trkpt lat="39.6335819942204" lon="8.993438170340333"><ele>291.0</ele><time>2026-05-01T10:40:56.999Z</time></trkpt><trkpt lat="39.63366778844834" lon="8.99347274175986"><ele>291.0</ele><time>2026-05-01T10:40:58.999Z</time></trkpt><trkpt lat="39.63366910001146" lon="8.993563677112778"><ele>291.0</ele><time>2026-05-01T10:40:59.999Z</time></trkpt><trkpt lat="39.6335639353928" lon="8.99361270591954"><ele>291.0</ele><time>2026-05-01T10:41:00.999Z</time></trkpt><trkpt lat="39.6334947672147" lon="8.993737770484728"><ele>291.0</ele><time>2026-05-01T10:41:02.999Z</time></trkpt><trkpt lat="39.63345852553531" lon="8.993805997260631"><ele>291.0</ele><time>2026-05-01T10:41:03.999Z</time></trkpt><trkpt lat="39.63342066249888" lon="8.993889741252442"><ele>291.0</ele><time>2026-05-01T10:41:04.999Z</time></trkpt><trkpt lat="39.63339848019993" lon="8.993995010907348"><ele>291.0</ele><time>2026-05-01T10:41:05.999Z</time></trkpt><trkpt lat="39.63336593824728" lon="8.99409791863424"><ele>291.0</ele><time>2026-05-01T10:41:06.999Z</time></trkpt><trkpt lat="39.63331919627839" lon="8.994201830052251"><ele>291.0</ele><time>2026-05-01T10:41:07.999Z</time></trkpt><trkpt lat="39.633285999513134" lon="8.994313407181282"><ele>291.0</ele><time>2026-05-01T10:41:08.999Z</time></trkpt><trkpt lat="39.633242791735704" lon="8.994413834717786"><ele>291.0</ele><time>2026-05-01T10:41:09.999Z</time></trkpt><trkpt lat="39.63320265736582" lon="8.994517737844362"><ele>291.0</ele><time>2026-05-01T10:41:10.999Z</time></trkpt><trkpt lat="39.63318497185806" lon="8.994629677131428"><ele>290.6</ele><time>2026-05-01T10:41:11.999Z</time></trkpt><trkpt lat="39.63316599256888" lon="8.994735987392517"><ele>290.20000000000005</ele><time>2026-05-01T10:41:12.999Z</time></trkpt><trkpt lat="39.633158472604876" lon="8.994854642018746"><ele>289.79999999999995</ele><time>2026-05-01T10:41:13.999Z</time></trkpt><trkpt lat="39.6331567001773" lon="8.99498903217917"><ele>289.4</ele><time>2026-05-01T10:41:14.999Z</time></trkpt><trkpt lat="39.63315898275929" lon="8.995124730230112"><ele>289.0</ele><time>2026-05-01T10:41:15.999Z</time></trkpt><trkpt lat="39.63316338682445" lon="8.995251059561182"><ele>288.66666666666663</ele><time>2026-05-01T10:41:16.999Z</time></trkpt><trkpt lat="39.63313401744252" lon="8.99536646072979"><ele>288.3333333333333</ele><time>2026-05-01T10:41:17.999Z</time></trkpt><trkpt lat="39.633106164502635" lon="8.995459495930131"><ele>288.0</ele><time>2026-05-01T10:41:18.999Z</time></trkpt><trkpt lat="39.63307509696427" lon="8.995560452066082"><ele>287.6666666666667</ele><time>2026-05-01T10:41:19.999Z</time></trkpt><trkpt lat="39.633049771101426" lon="8.9956627197747"><ele>287.33333333333337</ele><time>2026-05-01T10:41:20.999Z</time></trkpt><trkpt lat="39.633027664841286" lon="8.995752926856595"><ele>287.0</ele><time>2026-05-01T10:41:21.999Z</time></trkpt><trkpt lat="39.63301746264973" lon="8.995852364477814"><ele>286.4</ele><time>2026-05-01T10:41:22.999Z</time></trkpt><trkpt lat="39.63301984205108" lon="8.995969686211318"><ele>285.79999999999995</ele><time>2026-05-01T10:41:23.999Z</time></trkpt><trkpt lat="39.63302652381243" lon="8.996091150375648"><ele>285.2</ele><time>2026-05-01T10:41:24.999Z</time></trkpt><trkpt lat="39.63301287606385" lon="8.9962218690315"><ele>284.59999999999997</ele><time>2026-05-01T10:41:25.999Z</time></trkpt><trkpt lat="39.63300754759175" lon="8.996338792162241"><ele>284.0</ele><time>2026-05-01T10:41:26.999Z</time></trkpt><trkpt lat="39.63300039430985" lon="8.996442523682454"><ele>284.0</ele><time>2026-05-01T10:41:27.999Z</time></trkpt><trkpt lat="39.63298838499123" lon="8.996531916961953"><ele>284.0</ele><time>2026-05-01T10:41:28.999Z</time></trkpt><trkpt lat="39.63298761345328" lon="8.996629356097246"><ele>284.0</ele><time>2026-05-01T10:41:29.999Z</time></trkpt><trkpt lat="39.63297075976604" lon="8.996728391928398"><ele>284.0</ele><time>2026-05-01T10:41:30.999Z</time></trkpt><trkpt lat="39.632962791033954" lon="8.99683313600633"><ele>284.0</ele><time>2026-05-01T10:41:31.999Z</time></trkpt><trkpt lat="39.632954086979275" lon="8.996942245408174"><ele>284.0</ele><time>2026-05-01T10:41:32.999Z</time></trkpt><trkpt lat="39.63295192611482" lon="8.997063008398433"><ele>283.6666666666667</ele><time>2026-05-01T10:41:33.999Z</time></trkpt><trkpt lat="39.632955668328265" lon="8.997172165613442"><ele>283.33333333333337</ele><time>2026-05-01T10:41:34.999Z</time></trkpt><trkpt lat="39.632962588608926" lon="8.997277133338859"><ele>283.0</ele><time>2026-05-01T10:41:35.999Z</time></trkpt><trkpt lat="39.63296647672501" lon="8.997372912147092"><ele>282.6666666666667</ele><time>2026-05-01T10:41:36.999Z</time></trkpt><trkpt lat="39.6329744855512" lon="8.997464336220117"><ele>282.3333333333333</ele><time>2026-05-01T10:41:37.999Z</time></trkpt><trkpt lat="39.63296787467517" lon="8.997609221998946"><ele>282.0</ele><time>2026-05-01T10:41:39.999Z</time></trkpt><trkpt lat="39.63296861227547" lon="8.997702214115204"><ele>281.6</ele><time>2026-05-01T10:41:41.999Z</time></trkpt><trkpt lat="39.63296653249175" lon="8.997818306470316"><ele>281.2</ele><time>2026-05-01T10:41:43.999Z</time></trkpt><trkpt lat="39.6329638540027" lon="8.997903290129242"><ele>280.8</ele><time>2026-05-01T10:41:44.999Z</time></trkpt><trkpt lat="39.63306040552096" lon="8.997981639360852"><ele>280.4</ele><time>2026-05-01T10:41:45.999Z</time></trkpt><trkpt lat="39.63311280292862" lon="8.998064127131231"><ele>280.0</ele><time>2026-05-01T10:41:46.999Z</time></trkpt><trkpt lat="39.63317761141118" lon="8.998166973922984"><ele>280.0</ele><time>2026-05-01T10:41:47.999Z</time></trkpt><trkpt lat="39.63326340028807" lon="8.998260372568136"><ele>280.0</ele><time>2026-05-01T10:41:48.999Z</time></trkpt><trkpt lat="39.633363512583834" lon="8.998344129627275"><ele>280.0</ele><time>2026-05-01T10:41:49.999Z</time></trkpt><trkpt lat="39.633482619422885" lon="8.998415649935739"><ele>280.0</ele><time>2026-05-01T10:41:50.999Z</time></trkpt><trkpt lat="39.63359825327329" lon="8.998489096436368"><ele>279.0</ele><time>2026-05-01T10:41:51.999Z</time></trkpt><trkpt lat="39.63372453771277" lon="8.99856331259333"><ele>278.0</ele><time>2026-05-01T10:41:52.999Z</time></trkpt><trkpt lat="39.63386089323783" lon="8.998624689946574"><ele>277.0</ele><time>2026-05-01T10:41:53.999Z</time></trkpt><trkpt lat="39.63400931330644" lon="8.998673774999006"><ele>276.0</ele><time>2026-05-01T10:41:54.999Z</time></trkpt><trkpt lat="39.634162613478765" lon="8.99871076079253"><ele>276.0</ele><time>2026-05-01T10:41:55.999Z</time></trkpt><trkpt lat="39.63432646977098" lon="8.998717605404975"><ele>276.0</ele><time>2026-05-01T10:41:56.999Z</time></trkpt><trkpt lat="39.63449147555046" lon="8.99868121577099"><ele>276.0</ele><time>2026-05-01T10:41:57.999Z</time></trkpt><trkpt lat="39.6346686535567" lon="8.99865508162645"><ele>275.6666666666667</ele><time>2026-05-01T10:41:58.999Z</time></trkpt><trkpt lat="39.63484977860358" lon="8.99866774161785"><ele>275.33333333333337</ele><time>2026-05-01T10:41:59.998Z</time></trkpt><trkpt lat="39.63503019545875" lon="8.998711140138907"><ele>275.0</ele><time>2026-05-01T10:42:00.998Z</time></trkpt><trkpt lat="39.635221754396284" lon="8.9987584899186"><ele>275.0</ele><time>2026-05-01T10:42:01.998Z</time></trkpt><trkpt lat="39.63543457550882" lon="8.998797046866317"><ele>275.0</ele><time>2026-05-01T10:42:02.998Z</time></trkpt><trkpt lat="39.63565670621105" lon="8.99883554528868"><ele>275.0</ele><time>2026-05-01T10:42:03.998Z</time></trkpt><trkpt lat="39.635861761019996" lon="8.998884364921423"><ele>275.0</ele><time>2026-05-01T10:42:05Z</time></trkpt><trkpt lat="39.63603483209729" lon="8.998930311970948"><ele>275.0</ele><time>2026-05-01T10:42:06Z</time></trkpt><trkpt lat="39.636188450291904" lon="8.9989886223237"><ele>275.0</ele><time>2026-05-01T10:42:07Z</time></trkpt><trkpt lat="39.6363321525144" lon="8.999053777035096"><ele>274.75</ele><time>2026-05-01T10:42:08Z</time></trkpt><trkpt lat="39.63646953445522" lon="8.999118448077898"><ele>274.5</ele><time>2026-05-01T10:42:09Z</time></trkpt><trkpt lat="39.63661156717514" lon="8.999163615644207"><ele>274.25</ele><time>2026-05-01T10:42:10Z</time></trkpt><trkpt lat="39.636753600728966" lon="8.999211253614888"><ele>274.0</ele><time>2026-05-01T10:42:11Z</time></trkpt><trkpt lat="39.63688612746588" lon="8.999246828214064"><ele>275.0</ele><time>2026-05-01T10:42:12Z</time></trkpt><trkpt lat="39.637021033564494" lon="8.9992486714831"><ele>276.0</ele><time>2026-05-01T10:42:13Z</time></trkpt><trkpt lat="39.637153014460935" lon="8.999228319896728"><ele>277.0</ele><time>2026-05-01T10:42:14Z</time></trkpt><trkpt lat="39.637277017888096" lon="8.999196465057821"><ele>278.0</ele><time>2026-05-01T10:42:15Z</time></trkpt><trkpt lat="39.637394313320335" lon="8.999156560588444"><ele>278.0</ele><time>2026-05-01T10:42:16Z</time></trkpt><trkpt lat="39.63751260360425" lon="8.999116093261046"><ele>278.0</ele><time>2026-05-01T10:42:17Z</time></trkpt><trkpt lat="39.6376360099503" lon="8.999082861231196"><ele>278.0</ele><time>2026-05-01T10:42:18Z</time></trkpt><trkpt lat="39.63775722268623" lon="8.999067247678608"><ele>278.0</ele><time>2026-05-01T10:42:19Z</time></trkpt><trkpt lat="39.637883050388865" lon="8.999064003480601"><ele>278.5</ele><time>2026-05-01T10:42:20Z</time></trkpt><trkpt lat="39.63800629467141" lon="8.99906280919892"><ele>279.0</ele><time>2026-05-01T10:42:21Z</time></trkpt><trkpt lat="39.638128699636745" lon="8.99909287181638"><ele>279.5</ele><time>2026-05-01T10:42:22Z</time></trkpt><trkpt lat="39.638247328335645" lon="8.99914765608875"><ele>280.0</ele><time>2026-05-01T10:42:23Z</time></trkpt><trkpt lat="39.63837137981658" lon="8.999209378095665"><ele>280.0</ele><time>2026-05-01T10:42:24Z</time></trkpt><trkpt lat="39.63850553959001" lon="8.999254585857306"><ele>280.0</ele><time>2026-05-01T10:42:25Z</time></trkpt><trkpt lat="39.63865206057904" lon="8.999324395512083"><ele>280.0</ele><time>2026-05-01T10:42:26Z</time></trkpt><trkpt lat="39.63881187819672" lon="8.999393675590968"><ele>280.3333333333333</ele><time>2026-05-01T10:42:27Z</time></trkpt><trkpt lat="39.63897433130761" lon="8.99946661658016"><ele>280.6666666666667</ele><time>2026-05-01T10:42:28Z</time></trkpt><trkpt lat="39.639148328324374" lon="8.999536305801563"><ele>281.0</ele><time>2026-05-01T10:42:29Z</time></trkpt><trkpt lat="39.639326065180306" lon="8.999639193473065"><ele>281.6666666666667</ele><time>2026-05-01T10:42:30Z</time></trkpt><trkpt lat="39.63951367489207" lon="8.99974588712745"><ele>282.3333333333333</ele><time>2026-05-01T10:42:31Z</time></trkpt><trkpt lat="39.639706982816946" lon="8.99985379003427"><ele>283.0</ele><time>2026-05-01T10:42:32Z</time></trkpt><trkpt lat="39.63988869832266" lon="8.999966255237585"><ele>283.0</ele><time>2026-05-01T10:42:33Z</time></trkpt><trkpt lat="39.64005259819624" lon="9.000078381671031"><ele>283.0</ele><time>2026-05-01T10:42:34Z</time></trkpt><trkpt lat="39.640202128171985" lon="9.000176291023381"><ele>283.0</ele><time>2026-05-01T10:42:35Z</time></trkpt><trkpt lat="39.64034428927844" lon="9.00025328719559"><ele>283.0</ele><time>2026-05-01T10:42:36Z</time></trkpt><trkpt lat="39.64047825139824" lon="9.000328425162303"><ele>283.0</ele><time>2026-05-01T10:42:37Z</time></trkpt><trkpt lat="39.64061039835992" lon="9.000401458758814"><ele>283.0</ele><time>2026-05-01T10:42:38Z</time></trkpt><trkpt lat="39.64073768062953" lon="9.000472078538586"><ele>283.0</ele><time>2026-05-01T10:42:39Z</time></trkpt><trkpt lat="39.64087345751678" lon="9.000546681829743"><ele>283.0</ele><time>2026-05-01T10:42:40Z</time></trkpt><trkpt lat="39.64100951404424" lon="9.000621701487768"><ele>283.0</ele><time>2026-05-01T10:42:41Z</time></trkpt><trkpt lat="39.64115455049707" lon="9.000691210548911"><ele>283.0</ele><time>2026-05-01T10:42:42Z</time></trkpt><trkpt lat="39.641302833386355" lon="9.00073130617838"><ele>282.25</ele><time>2026-05-01T10:42:43Z</time></trkpt><trkpt lat="39.641449025034234" lon="9.000772589223342"><ele>281.5</ele><time>2026-05-01T10:42:44Z</time></trkpt><trkpt lat="39.64158923124397" lon="9.000785188560204"><ele>280.75</ele><time>2026-05-01T10:42:45Z</time></trkpt><trkpt lat="39.64170259200042" lon="9.000821965704507"><ele>280.0</ele><time>2026-05-01T10:42:46Z</time></trkpt><trkpt lat="39.641798412188386" lon="9.000853443272955"><ele>280.0</ele><time>2026-05-01T10:42:47Z</time></trkpt><trkpt lat="39.64188525347427" lon="9.000883952061821"><ele>280.0</ele><time>2026-05-01T10:42:48Z</time></trkpt><trkpt lat="39.64198721108451" lon="9.000934697390411"><ele>280.0</ele><time>2026-05-01T10:42:50Z</time></trkpt><trkpt lat="39.642070970570124" lon="9.000969705727329"><ele>280.0</ele><time>2026-05-01T10:42:52Z</time></trkpt><trkpt lat="39.64211963627639" lon="9.001022627789776"><ele>280.0</ele><time>2026-05-01T10:42:55.999Z</time></trkpt><trkpt lat="39.64205567739884" lon="9.001229193996002"><ele>280.0</ele><time>2026-05-01T10:42:58.999Z</time></trkpt><trkpt lat="39.64200628401927" lon="9.001323951769294"><ele>280.0</ele><time>2026-05-01T10:42:59.999Z</time></trkpt><trkpt lat="39.64196077106507" lon="9.001440464687997"><ele>280.0</ele><time>2026-05-01T10:43:00.999Z</time></trkpt><trkpt lat="39.64188653792605" lon="9.00156977404564"><ele>280.0</ele><time>2026-05-01T10:43:01.999Z</time></trkpt><trkpt lat="39.64181032813655" lon="9.001719828668197"><ele>280.0</ele><time>2026-05-01T10:43:02.999Z</time></trkpt><trkpt lat="39.64172973119388" lon="9.001873881026807"><ele>280.0</ele><time>2026-05-01T10:43:03.999Z</time></trkpt><trkpt lat="39.64164451146646" lon="9.002038748420452"><ele>280.0</ele><time>2026-05-01T10:43:04.999Z</time></trkpt><trkpt lat="39.641555775069186" lon="9.002206480414374"><ele>280.0</ele><time>2026-05-01T10:43:05.999Z</time></trkpt><trkpt lat="39.64146614076603" lon="9.002374324315236"><ele>280.0</ele><time>2026-05-01T10:43:06.999Z</time></trkpt><trkpt lat="39.641382989746056" lon="9.002531798700717"><ele>280.0</ele><time>2026-05-01T10:43:07.999Z</time></trkpt><trkpt lat="39.64130751054202" lon="9.002671670565624"><ele>280.0</ele><time>2026-05-01T10:43:08.999Z</time></trkpt><trkpt lat="39.641265298071644" lon="9.002797086200705"><ele>280.0</ele><time>2026-05-01T10:43:09.999Z</time></trkpt><trkpt lat="39.64124102935256" lon="9.002935154141488"><ele>280.0</ele><time>2026-05-01T10:43:10.999Z</time></trkpt><trkpt lat="39.64124017351837" lon="9.003072645925457"><ele>280.0</ele><time>2026-05-01T10:43:11.999Z</time></trkpt><trkpt lat="39.64125521004258" lon="9.003216680705146"><ele>280.0</ele><time>2026-05-01T10:43:12.999Z</time></trkpt><trkpt lat="39.64130088038561" lon="9.00337305234458"><ele>280.0</ele><time>2026-05-01T10:43:13.999Z</time></trkpt><trkpt lat="39.641372782520875" lon="9.00353751556977"><ele>280.0</ele><time>2026-05-01T10:43:14.999Z</time></trkpt><trkpt lat="39.641454733911004" lon="9.003718676782196"><ele>280.0</ele><time>2026-05-01T10:43:15.999Z</time></trkpt><trkpt lat="39.6415438192855" lon="9.003939845454944"><ele>279.3333333333333</ele><time>2026-05-01T10:43:16.999Z</time></trkpt><trkpt lat="39.64163490522764" lon="9.004188685997901"><ele>278.6666666666667</ele><time>2026-05-01T10:43:17.999Z</time></trkpt><trkpt lat="39.64172539539995" lon="9.004436063726471"><ele>278.0</ele><time>2026-05-01T10:43:18.999Z</time></trkpt><trkpt lat="39.6418383013234" lon="9.00471181659877"><ele>276.5</ele><time>2026-05-01T10:43:19.999Z</time></trkpt><trkpt lat="39.64196446381472" lon="9.005001542839379"><ele>275.0</ele><time>2026-05-01T10:43:20.999Z</time></trkpt><trkpt lat="39.642096605147835" lon="9.005312409647251"><ele>274.5</ele><time>2026-05-01T10:43:21.999Z</time></trkpt><trkpt lat="39.642237014069266" lon="9.0056409910098"><ele>274.0</ele><time>2026-05-01T10:43:22.999Z</time></trkpt><trkpt lat="39.64237429497207" lon="9.005963988694507"><ele>271.5</ele><time>2026-05-01T10:43:23.999Z</time></trkpt><trkpt lat="39.6424920912649" lon="9.006246656716641"><ele>269.0</ele><time>2026-05-01T10:43:24.999Z</time></trkpt><trkpt lat="39.642596587477165" lon="9.006498032884746"><ele>269.33333333333337</ele><time>2026-05-01T10:43:25.999Z</time></trkpt><trkpt lat="39.64269826433455" lon="9.006737655853241"><ele>269.6666666666667</ele><time>2026-05-01T10:43:26.999Z</time></trkpt><trkpt lat="39.64279673405976" lon="9.006971542599583"><ele>270.0</ele><time>2026-05-01T10:43:27.999Z</time></trkpt><trkpt lat="39.64288484684103" lon="9.007186686018777"><ele>271.6666666666667</ele><time>2026-05-01T10:43:28.999Z</time></trkpt><trkpt lat="39.64296326603637" lon="9.007374352487206"><ele>273.33333333333337</ele><time>2026-05-01T10:43:29.999Z</time></trkpt><trkpt lat="39.6430377346453" lon="9.007550640684041"><ele>275.0</ele><time>2026-05-01T10:43:30.999Z</time></trkpt><trkpt lat="39.643107563707915" lon="9.007719137184203"><ele>275.25</ele><time>2026-05-01T10:43:31.999Z</time></trkpt><trkpt lat="39.64316348191622" lon="9.007880603688946"><ele>275.5</ele><time>2026-05-01T10:43:32.999Z</time></trkpt><trkpt lat="39.64320706853717" lon="9.008039516029609"><ele>275.75</ele><time>2026-05-01T10:43:33.999Z</time></trkpt><trkpt lat="39.643235427007525" lon="9.008207962436146"><ele>276.0</ele><time>2026-05-01T10:43:34.999Z</time></trkpt><trkpt lat="39.64324499371493" lon="9.008375455244455"><ele>276.0</ele><time>2026-05-01T10:43:35.999Z</time></trkpt><trkpt lat="39.64324965911355" lon="9.00853446540409"><ele>276.0</ele><time>2026-05-01T10:43:36.999Z</time></trkpt><trkpt lat="39.64325064065239" lon="9.00867583516282"><ele>276.0</ele><time>2026-05-01T10:43:37.999Z</time></trkpt><trkpt lat="39.64325497781934" lon="9.00880199264651"><ele>276.0</ele><time>2026-05-01T10:43:38.999Z</time></trkpt><trkpt lat="39.64325192645765" lon="9.008909032054634"><ele>276.0</ele><time>2026-05-01T10:43:39.999Z</time></trkpt><trkpt lat="39.64325097027447" lon="9.00900601919979"><ele>276.0</ele><time>2026-05-01T10:43:40.999Z</time></trkpt><trkpt lat="39.64325503378931" lon="9.009100180733123"><ele>276.0</ele><time>2026-05-01T10:43:41.999Z</time></trkpt><trkpt lat="39.6432594232022" lon="9.00918396463754"><ele>276.0</ele><time>2026-05-01T10:43:42.999Z</time></trkpt><trkpt lat="39.643248531585286" lon="9.009334333254088"><ele>276.0</ele><time>2026-05-01T10:43:44.999Z</time></trkpt><trkpt lat="39.643262668550406" lon="9.009427087564715"><ele>276.0</ele><time>2026-05-01T10:43:46.999Z</time></trkpt><trkpt lat="39.64342775952315" lon="9.009318572746317"><ele>276.0</ele><time>2026-05-01T10:43:47.999Z</time></trkpt><trkpt lat="39.6435019148357" lon="9.009301101778204"><ele>276.0</ele><time>2026-05-01T10:43:48.999Z</time></trkpt><trkpt lat="39.64357911935842" lon="9.009277140854476"><ele>276.0</ele><time>2026-05-01T10:43:49.999Z</time></trkpt><trkpt lat="39.64366696612492" lon="9.009223084266532"><ele>276.0</ele><time>2026-05-01T10:43:50.999Z</time></trkpt><trkpt lat="39.643765985351635" lon="9.009107094635482"><ele>276.0</ele><time>2026-05-01T10:43:51.999Z</time></trkpt><trkpt lat="39.64388955227263" lon="9.008993435750524"><ele>276.0</ele><time>2026-05-01T10:43:52.999Z</time></trkpt><trkpt lat="39.6440318870308" lon="9.00885552859133"><ele>276.0</ele><time>2026-05-01T10:43:53.999Z</time></trkpt><trkpt lat="39.644173173224814" lon="9.008685981342591"><ele>276.0</ele><time>2026-05-01T10:43:54.999Z</time></trkpt><trkpt lat="39.64432970302941" lon="9.008519098903951"><ele>277.0</ele><time>2026-05-01T10:43:55.999Z</time></trkpt><trkpt lat="39.64451775310319" lon="9.008358483277958"><ele>278.0</ele><time>2026-05-01T10:43:56.999Z</time></trkpt><trkpt lat="39.64469325538857" lon="9.008167826869647"><ele>279.6666666666667</ele><time>2026-05-01T10:43:57.999Z</time></trkpt><trkpt lat="39.64486934904645" lon="9.007988734531242"><ele>281.3333333333333</ele><time>2026-05-01T10:43:58.999Z</time></trkpt><trkpt lat="39.64504506145906" lon="9.007807089983128"><ele>283.0</ele><time>2026-05-01T10:43:59.999Z</time></trkpt><trkpt lat="39.645225576396996" lon="9.007625239541703"><ele>285.0</ele><time>2026-05-01T10:44:00.999Z</time></trkpt><trkpt lat="39.64539490063169" lon="9.007435255457018"><ele>287.0</ele><time>2026-05-01T10:44:01.999Z</time></trkpt><trkpt lat="39.645542039619926" lon="9.007224499009535"><ele>289.0</ele><time>2026-05-01T10:44:02.999Z</time></trkpt><trkpt lat="39.64566498405493" lon="9.007009978671103"><ele>289.0</ele><time>2026-05-01T10:44:03.998Z</time></trkpt><trkpt lat="39.64575892719402" lon="9.006833204283257"><ele>289.0</ele><time>2026-05-01T10:44:04.998Z</time></trkpt><trkpt lat="39.645851715805236" lon="9.006680489449327"><ele>289.0</ele><time>2026-05-01T10:44:05.998Z</time></trkpt><trkpt lat="39.64592068293474" lon="9.00657394179261"><ele>289.0</ele><time>2026-05-01T10:44:06.998Z</time></trkpt><trkpt lat="39.64597570678593" lon="9.006484866725668"><ele>289.2</ele><time>2026-05-01T10:44:07.998Z</time></trkpt><trkpt lat="39.64591921799168" lon="9.006360970703291"><ele>289.4</ele><time>2026-05-01T10:44:11Z</time></trkpt><trkpt lat="39.645853469999764" lon="9.006344434121488"><ele>289.6</ele><time>2026-05-01T10:44:12Z</time></trkpt><trkpt lat="39.64577695964483" lon="9.006280112656134"><ele>289.8</ele><time>2026-05-01T10:44:13Z</time></trkpt><trkpt lat="39.64568233262853" lon="9.006221035066572"><ele>290.0</ele><time>2026-05-01T10:44:14Z</time></trkpt><trkpt lat="39.64558851017621" lon="9.00616164749032"><ele>290.0</ele><time>2026-05-01T10:44:15Z</time></trkpt><trkpt lat="39.645504051313" lon="9.006105683276175"><ele>290.0</ele><time>2026-05-01T10:44:16Z</time></trkpt><trkpt lat="39.64542486363366" lon="9.00605321193405"><ele>290.0</ele><time>2026-05-01T10:44:17Z</time></trkpt><trkpt lat="39.64536518259615" lon="9.006013666108501"><ele>290.0</ele><time>2026-05-01T10:44:18Z</time></trkpt><trkpt lat="39.64530641681764" lon="9.005974726693264"><ele>290.0</ele><time>2026-05-01T10:44:19Z</time></trkpt><trkpt lat="39.64525380550454" lon="9.005908844766013"><ele>290.0</ele><time>2026-05-01T10:44:21Z</time></trkpt><trkpt lat="39.64533619118802" lon="9.005797472567693"><ele>289.6666666666667</ele><time>2026-05-01T10:44:23Z</time></trkpt><trkpt lat="39.645371554418595" lon="9.005714124404918"><ele>289.33333333333337</ele><time>2026-05-01T10:44:24Z</time></trkpt><trkpt lat="39.64540594524056" lon="9.005594888398104"><ele>289.0</ele><time>2026-05-01T10:44:26Z</time></trkpt><trkpt lat="39.64546246022388" lon="9.005544663190213"><ele>288.6666666666667</ele><time>2026-05-01T10:44:29Z</time></trkpt><trkpt lat="39.645400329492816" lon="9.005564428126727"><ele>288.3333333333333</ele><time>2026-05-01T10:44:47Z</time></trkpt><trkpt lat="39.64531400432956" lon="9.005496455454075"><ele>288.0</ele><time>2026-05-01T10:45:45.999Z</time></trkpt><trkpt lat="39.64525016620095" lon="9.005438484043895"><ele>282.0</ele><time>2026-05-01T10:45:47.999Z</time></trkpt><trkpt lat="39.64518804747855" lon="9.00550525064479"><ele>282.0</ele><time>2026-05-01T10:45:50.999Z</time></trkpt></trkseg></trk></gpx>